[[{"header":{"parameterUnit":"m.s-1","parameterCategory":1,"la1":31.0,"la2":29.5877,"lo1":-88.7671,"lo2":-86.6584,"dy":0.0162,"dx":0.0185,"nx":115,"ny":88,"refTime":"2023-06-11T12:00:00:Z","depth":0,"parameterNumber":2,"parameterNumberName":"U-component_of_WINDS"},"data":[0.0,0.0,0.0,0.0,0.0,0.0,0.0,0.0,0.0,0.0,0.0,0.0,0.0,0.0,0.0,0.0,0.0,0.0,0.0,0.0,0.0,0.0,0.0,0.0,0.0,0.0,0.0,0.0,0.0,0.0,0.0,0.0,0.0,0.0,0.0,0.0,0.0,0.0,0.0,0.0,0.0,0.0,0.0,0.0,0.0,0.0,0.0,0.0,0.0,0.0,0.0,0.0,0.0,0.0,0.0,0.0,0.0,0.0,0.0,0.0,0.0,0.0,0.0,0.0,0.0,0.0,0.0,0.0,0.0,0.0,0.0,0.0,0.0,0.0,0.0,0.0,0.0,0.0,0.0,0.0,0.0,0.0,0.0,0.0,0.0,0.0,0.0,0.0,0.0,0.0,0.0,0.0,0.0,0.0,0.0,0.0,0.0,0.0,0.0,0.0,0.0,0.0,0.0,0.0,0.0,0.0,0.0,0.0,0.0,0.0,0.0,0.0,0.0,0.0,0.0,0.0,0.0,0.0,0.0,0.0,0.0,0.0,0.0,0.0,0.0,0.0,0.0,0.0,0.0,0.0,0.0,0.0,0.0,0.0,0.0,0.0,0.0,0.0,0.0,0.0,0.0,0.0,0.0,0.0,0.0,0.0,0.0,0.0,0.0,0.0,0.0,0.0,0.0,0.0,0.0,0.0,0.0,0.0,0.0,0.0,0.0,0.0,0.0,0.0,0.0,0.0,0.0,0.0,0.0,0.0,0.0,0.0,0.0,0.0,0.0,0.0,0.0,0.0,0.0,0.0,0.0,0.0,0.0,0.0,0.0,0.0,0.0,0.0,0.0,0.0,0.0,0.0,0.0,0.0,0.0,0.0,0.0,0.0,0.0,0.0,0.0,0.0,0.0,0.0,0.0,0.0,0.0,0.0,0.0,0.0,0.0,0.0,0.0,0.0,0.0,0.0,0.0,0.0,0.0,0.0,0.0,0.0,0.0,0.0,0.0,0.0,0.0,0.0,0.0,0.0,0.0,0.0,0.0,0.0,0.0,0.0,0.0,0.0,0.0,0.0,0.0,0.0,0.0,0.0,0.0,0.0,0.0,0.0,0.0,0.0,0.0,0.0,0.0,0.0,0.0,0.0,0.0,0.0,0.0,0.0,0.0,0.0,0.0,0.0,0.0,0.0,0.0,0.0,0.0,0.0,0.0,0.0,0.0,0.0,0.0,0.0,0.0,0.0,0.0,0.0,0.0,0.0,0.0,0.0,0.0,0.0,0.0,0.0,0.0,0.0,0.0,0.0,0.0,0.0,0.0,0.0,0.0,0.0,0.0,0.0,0.0,0.0,0.0,0.0,0.0,0.0,0.0,0.0,0.0,0.0,0.0,0.0,0.0,0.0,0.0,0.0,0.0,0.0,0.0,0.0,0.0,0.0,0.0,0.0,0.0,0.0,0.0,0.0,0.0,0.0,0.0,0.0,0.0,0.0,0.0,0.0,0.0,0.0,0.0,0.0,0.0,0.0,0.0,0.0,0.0,0.0,0.0,0.0,0.0,0.0,0.0,0.0,0.0,0.0,0.0,0.0,0.0,0.0,0.0,0.0,0.0,0.0,0.0,0.0,0.0,0.0,0.0,0.0,0.0,0.0,0.0,0.0,0.0,0.0,0.0,0.0,0.0,0.0,0.0,0.0,0.0,0.0,0.0,0.0,0.0,0.0,0.0,0.0,0.0,0.0,0.0,0.0,0.0,0.0,0.0,0.0,0.0,0.0,0.0,0.0,0.0,0.0,0.0,0.0,0.0,0.0,0.0,0.0,0.0,0.0,0.0,0.0,0.0,0.0,0.0,0.0,0.0,0.0,0.0,0.0,0.0,0.0,0.0,0.0,0.0,0.0,0.0,0.0,0.0,0.0,0.0,0.0,0.0,0.0,0.0,0.0,0.0,0.0,0.0,0.0,0.0,0.0,0.0,0.0,0.0,0.0,0.0,0.0,0.0,0.0,0.0,0.0,0.0,0.0,0.0,0.0,0.0,0.0,0.0,0.0,0.0,0.0,0.0,0.0,0.0,0.0,0.0,0.0,0.0,0.0,0.0,0.0,0.0,0.0,0.0,0.0,0.0,0.0,0.0,0.0,0.0,0.0,0.0,0.0,0.0,0.0,0.0,0.0,0.0,0.0,0.0,0.0,0.0,0.0,0.0,0.0,0.0,0.0,0.0,0.0,0.0,0.0,0.0,0.0,0.0,0.0,0.0,0.0,0.0,0.0,0.0,0.0,0.0,0.0,0.0,0.0,0.0,0.0,0.0,0.0,0.0,0.0,0.0,0.0,0.0,0.0,0.0,0.0,0.0,0.0,0.0,0.0,0.0,0.0,0.0,0.0,0.0,0.0,0.0,0.0,0.0,0.0,0.0,0.0,0.0,0.0,0.0,0.0,0.0,0.0,0.0,0.0,0.0,0.0,0.0,0.0,0.0,0.0,0.0,0.0,0.0,0.0,0.0,0.0,0.0,0.0,0.0,0.0,0.0,0.0,0.0,0.0,0.0,0.0,0.0,0.0,0.0,0.0,0.0,0.0,0.0,0.0,0.0,0.0,0.0,0.0,0.0,0.0,0.0,0.0,0.0,0.0,0.0,0.0,0.0,0.0,0.0,0.0,0.0,0.0,0.0,0.0,0.0,0.0,0.0,0.0,0.0,0.0,0.0,0.0,0.0,0.0,0.0,0.0,0.0,0.0,0.0,0.0,0.0,0.0,0.0,0.0,0.0,0.0,0.0,0.0,0.0,0.0,0.0,0.0,0.0,0.0,0.0,0.0,0.0,0.0,0.0,0.0,0.0,0.0,0.0,0.0,0.0,0.0,0.0,0.0,0.0,0.0,0.0,0.0,0.0,0.0,0.0,0.0,0.0,0.0,0.0,0.0,0.0,0.0,0.0,0.0,0.0,0.0,0.0,0.0,0.0,0.0,0.0,0.0,0.0,0.0,0.0,0.0,0.0,0.0,0.0,0.0,0.0,0.0,0.0,0.0,0.0,0.0,0.0,0.0,0.0,0.0,0.0,0.0,0.0,0.0,0.0,0.0,0.0,0.0,0.0,0.0,0.0,0.0,0.0,0.0,0.0,0.0,0.0,0.0,0.0,0.0,0.0,0.0,0.0,0.0,0.0,0.0,0.0,0.0,0.0,0.0,0.0,0.0,0.0,0.0,0.0,0.0,0.0,0.0,0.0,0.0,0.0,0.0,0.0,0.0,0.0,0.0,0.0,0.0,0.0,0.0,0.0,0.0,0.0,0.0,0.0,0.0,0.0,0.0,0.0,0.0,0.0,0.0,0.0,0.0,0.0,0.0,0.0,0.0,0.0,0.0,0.0,0.0,0.0,0.0,0.0,0.0,0.0,0.0,0.0,0.0,0.0,0.0,0.0,0.0,0.0,0.0,0.0,0.0,0.0,0.0,0.0,0.0,0.0,0.0,0.0,0.0,0.0,0.0,0.0,0.0,0.0,0.0,0.0,0.0,0.0,0.0,0.0,0.0,0.0,0.0,0.0,0.0,0.0,0.0,0.0,0.0,0.0,0.0,0.0,0.0,0.0,0.0,0.0,0.0,0.0,0.0,0.0,0.0,0.0,0.0,0.0,0.0,0.0,0.0,0.0,0.0,0.0,0.0,0.0,0.0,0.0,0.0,0.0,0.0,0.0,0.0,0.0,0.0,0.0,0.0,0.0,0.0,0.0,0.0,0.0,0.0,0.0,0.0,0.0,0.0,0.0,0.0,0.0,0.0,0.0,0.0,0.0,0.0,0.0,0.0,0.0,0.0,0.0,0.0,0.0,0.0,0.0,0.0,0.0,0.0,0.0,0.0,0.0,0.0,0.0,0.0,0.0,0.0,0.0,0.0,0.0,0.0,0.0,0.0,0.0,0.0,0.0,0.0,0.0,0.0,0.0,0.0,0.0,0.0,0.0,0.0,0.0,0.0,0.0,0.0,0.0,0.0,0.0,0.0,0.0,0.0,0.0,0.0,0.0,0.0,0.0,0.0,0.0,0.0,0.0,0.0,0.0,0.0,0.0,0.0,0.0,0.0,0.0,0.0,0.0,0.0,0.0,0.0,0.0,0.0,0.0,0.0,0.0,0.0,0.0,0.0,0.0,0.0,0.0,0.0,0.0,0.0,0.0,0.0,0.0,0.0,0.0,0.0,0.0,0.0,0.0,0.0,0.0,0.0,0.0,0.0,0.0,0.0,0.0,0.0,0.0,0.0,0.0,0.0,0.0,0.0,0.0,0.0,-1.6698,0.0,0.0,0.0,0.0,0.0,0.0,0.0,0.0,0.0,0.0,0.0,0.0,0.0,0.0,0.0,0.0,0.0,0.0,0.0,0.0,0.0,0.0,0.0,0.0,0.0,0.0,0.0,0.0,0.0,0.0,0.0,0.0,0.0,0.0,0.0,0.0,0.0,0.0,0.0,0.0,0.0,0.0,0.0,0.0,0.0,0.0,0.0,0.0,0.0,0.0,0.0,0.0,0.0,0.0,0.0,0.0,0.0,0.0,0.0,0.0,0.0,0.0,0.0,0.0,0.0,0.0,0.0,0.0,0.0,0.0,0.0,0.0,0.0,0.0,0.0,0.0,0.0,0.0,0.0,0.0,0.0,0.0,0.0,0.0,0.0,0.0,0.0,0.0,0.0,0.0,0.0,0.0,0.0,0.0,0.0,0.0,0.0,0.0,0.0,0.0,0.0,0.0,0.0,0.0,0.0,0.0,0.0,0.0,0.0,0.0,-1.4088,-1.4088,-1.4901,-1.5794,-1.669,0.0,0.0,0.0,0.0,0.0,0.0,0.0,0.0,0.0,0.0,0.0,0.0,0.0,0.0,0.0,0.0,0.0,0.0,0.0,0.0,0.0,0.0,0.0,0.0,0.0,0.0,0.0,0.0,0.0,0.0,0.0,0.0,0.0,0.0,0.0,0.0,0.0,0.0,0.0,0.0,0.0,0.0,0.0,0.0,0.0,0.0,0.0,0.0,0.0,0.0,0.0,0.0,0.0,0.0,0.0,0.0,0.0,0.0,0.0,0.0,0.0,0.0,0.0,0.0,0.0,0.0,0.0,0.0,0.0,0.0,0.0,0.0,0.0,0.0,0.0,0.0,0.0,0.0,0.0,0.0,0.0,0.0,0.0,0.0,0.0,0.0,0.0,0.0,0.0,0.0,0.0,0.0,0.0,0.0,0.0,0.0,0.0,0.0,0.0,0.0,0.0,0.0,0.0,0.0,0.0,0.0,0.0,0.0,0.0,0.0,0.0,0.0,-1.4811,-1.5717,-1.6698,0.0,0.0,0.0,0.0,0.0,0.0,0.0,0.0,0.0,0.0,0.0,0.0,0.0,0.0,0.0,0.0,0.0,0.0,0.0,0.0,0.0,0.0,0.0,0.0,0.0,0.0,0.0,0.0,0.0,0.0,0.0,0.0,0.0,0.0,0.0,0.0,0.0,0.0,0.0,0.0,0.0,0.0,0.0,0.0,0.0,0.0,0.0,0.0,0.0,0.0,0.0,0.0,0.0,0.0,0.0,0.0,0.0,0.0,0.0,0.0,0.0,0.0,0.0,0.0,0.0,0.0,0.0,0.0,0.0,0.0,0.0,0.0,0.0,0.0,0.0,0.0,0.0,0.0,0.0,0.0,0.0,0.0,0.0,0.0,0.0,0.0,0.0,0.0,0.0,0.0,0.0,0.0,0.0,0.0,0.0,0.0,0.0,0.0,0.0,0.0,0.0,0.0,0.0,0.0,0.0,0.0,0.0,0.0,0.0,0.0,-1.4355,-1.4102,-1.4428,0.0,-1.6648,0.0,0.0,0.0,0.0,0.0,0.0,0.0,0.0,0.0,0.0,0.0,0.0,0.0,0.0,0.0,0.0,0.0,0.0,0.0,0.0,0.0,0.0,0.0,0.0,0.0,0.0,0.0,0.0,0.0,0.0,0.0,0.0,0.0,0.0,0.0,0.0,0.0,0.0,0.0,0.0,0.0,0.0,0.0,0.0,0.0,0.0,0.0,0.0,0.0,0.0,0.0,0.0,0.0,0.0,0.0,0.0,0.0,0.0,0.0,0.0,0.0,0.0,0.0,0.0,0.0,0.0,0.0,0.0,0.0,0.0,0.0,0.0,0.0,0.0,0.0,0.0,0.0,0.0,0.0,0.0,0.0,0.0,0.0,0.0,0.0,0.0,0.0,0.0,0.0,0.0,0.0,0.0,0.0,0.0,0.0,0.0,0.0,0.0,0.0,0.0,0.0,0.0,0.0,0.0,0.0,0.0,0.0,0.0,0.0,0.0,-1.4723,-1.4609,-1.5237,-1.6096,0.0,0.0,0.0,0.0,0.0,0.0,0.0,0.0,0.0,0.0,0.0,0.0,0.0,0.0,0.0,0.0,0.0,0.0,0.0,0.0,0.0,0.0,0.0,0.0,0.0,0.0,0.0,0.0,0.0,0.0,0.0,0.0,0.0,0.0,0.0,0.0,0.0,0.0,0.0,0.0,0.0,0.0,0.0,0.0,0.0,0.0,0.0,0.0,0.0,0.0,0.0,0.0,0.0,0.0,0.0,0.0,0.0,0.0,0.0,0.0,0.0,0.0,0.0,0.0,0.0,0.0,0.0,0.0,0.0,0.0,0.0,0.0,0.0,0.0,0.0,0.0,0.0,0.0,0.0,0.0,0.0,0.0,0.0,0.0,0.0,0.0,0.0,0.0,0.0,0.0,0.0,0.0,0.0,0.0,0.0,0.0,0.0,0.0,0.0,0.0,0.0,0.0,0.0,0.0,0.0,0.0,0.0,0.0,0.0,0.0,-1.5044,-1.5084,-1.5174,-1.5871,-1.661,-1.7224,0.0,0.0,0.0,0.0,0.0,0.0,0.0,0.0,0.0,0.0,0.0,0.0,0.0,0.0,0.0,0.0,0.0,0.0,0.0,0.0,0.0,0.0,0.0,0.0,0.0,0.0,0.0,0.0,0.0,0.0,0.0,0.0,0.0,0.0,0.0,0.0,0.0,0.0,0.0,0.0,0.0,0.0,0.0,0.0,0.0,0.0,0.0,0.0,0.0,0.0,0.0,0.0,0.0,0.0,0.0,0.0,0.0,0.0,0.0,0.0,0.0,0.0,0.0,0.0,0.0,0.0,0.0,0.0,0.0,0.0,0.0,0.0,0.0,0.0,0.0,0.0,0.0,0.0,0.0,0.0,0.0,0.0,0.0,0.0,0.0,0.0,0.0,0.0,0.0,0.0,0.0,0.0,0.0,0.0,0.0,0.0,0.0,0.0,0.0,0.0,0.0,0.0,0.0,0.0,0.0,0.0,0.0,0.0,-1.5073,-1.5244,-1.5378,-1.5371,-1.5984,-1.636,0.0,0.0,0.0,0.0,0.0,0.0,0.0,0.0,0.0,0.0,0.0,0.0,0.0,0.0,0.0,0.0,0.0,0.0,0.0,0.0,0.0,0.0,0.0,0.0,0.0,0.0,0.0,0.0,0.0,0.0,0.0,0.0,0.0,0.0,0.0,0.0,0.0,0.0,0.0,0.0,0.0,0.0,0.0,0.0,0.0,0.0,0.0,0.0,0.0,0.0,0.0,0.0,0.0,0.0,0.0,0.0,0.0,0.0,0.0,0.0,0.0,0.0,0.0,0.0,0.0,0.0,0.0,0.0,0.0,0.0,0.0,0.0,0.0,0.0,0.0,0.0,0.0,0.0,0.0,0.0,0.0,0.0,0.0,0.0,0.0,0.0,0.0,0.0,0.0,0.0,0.0,0.0,0.0,0.0,0.0,0.0,0.0,0.0,0.0,0.0,0.0,0.0,0.0,0.0,0.0,0.0,0.0,0.0,0.0,-1.5524,-1.5625,-1.5671,-1.5671,-1.5837,-1.6246,0.0,0.0,0.0,0.0,0.0,0.0,0.0,0.0,0.0,0.0,0.0,0.0,0.0,0.0,0.0,0.0,0.0,0.0,0.0,0.0,0.0,0.0,0.0,0.0,0.0,0.0,0.0,0.0,0.0,0.0,0.0,0.0,0.0,0.0,0.0,0.0,0.0,0.0,0.0,0.0,0.0,0.0,0.0,0.0,0.0,0.0,0.0,0.0,0.0,0.0,0.0,0.0,0.0,0.0,0.0,0.0,0.0,0.0,0.0,0.0,0.0,0.0,0.0,0.0,0.0,0.0,0.0,0.0,0.0,0.0,0.0,0.0,0.0,0.0,0.0,0.0,0.0,0.0,0.0,0.0,0.0,0.0,0.0,0.0,0.0,0.0,0.0,0.0,0.0,0.0,0.0,0.0,0.0,0.0,0.0,0.0,0.0,0.0,0.0,0.0,0.0,0.0,0.0,0.0,0.0,0.0,0.0,0.0,0.0,-1.5825,0.0,-1.5825,-1.5825,-1.6109,-1.6487,0.0,0.0,0.0,0.0,0.0,0.0,0.0,0.0,0.0,0.0,0.0,0.0,0.0,0.0,0.0,0.0,0.0,0.0,0.0,0.0,0.0,0.0,0.0,0.0,0.0,0.0,0.0,0.0,0.0,0.0,0.0,0.0,0.0,0.0,0.0,0.0,0.0,0.0,0.0,0.0,0.0,0.0,0.0,0.0,0.0,0.0,0.0,0.0,0.0,0.0,0.0,0.0,0.0,0.0,0.0,0.0,0.0,0.0,0.0,0.0,0.0,0.0,0.0,0.0,0.0,0.0,0.0,0.0,0.0,0.0,0.0,0.0,0.0,0.0,0.0,0.0,0.0,0.0,0.0,0.0,0.0,0.0,0.0,0.0,0.0,0.0,0.0,0.0,0.0,0.0,0.0,0.0,0.0,0.0,0.0,0.0,0.0,0.0,0.0,0.0,0.0,0.0,0.0,0.0,0.0,0.0,0.0,0.0,-1.5825,-1.5825,-1.5825,-1.5825,-1.5832,-1.6676,-1.677,0.0,0.0,0.0,0.0,0.0,0.0,0.0,0.0,0.0,0.0,0.0,0.0,0.0,0.0,0.0,0.0,0.0,0.0,0.0,0.0,0.0,0.0,0.0,0.0,0.0,0.0,0.0,0.0,0.0,0.0,0.0,0.0,0.0,0.0,0.0,0.0,0.0,0.0,0.0,0.0,0.0,0.0,0.0,0.0,0.0,0.0,0.0,0.0,0.0,0.0,0.0,0.0,0.0,0.0,0.0,0.0,0.0,0.0,0.0,0.0,0.0,0.0,0.0,0.0,0.0,0.0,0.0,0.0,0.0,0.0,0.0,0.0,0.0,0.0,0.0,0.0,0.0,0.0,0.0,0.0,0.0,0.0,0.0,0.0,0.0,0.0,0.0,0.0,0.0,0.0,0.0,0.0,0.0,0.0,0.0,0.0,0.0,0.0,0.0,0.0,0.0,0.0,0.0,0.0,0.0,0.0,0.0,0.0,0.0,-1.5825,-1.5825,-1.5825,-1.5825,-1.6109,-1.6393,0.0,0.0,0.0,0.0,0.0,0.0,0.0,0.0,0.0,0.0,0.0,0.0,0.0,0.0,0.0,0.0,0.0,0.0,0.0,0.0,0.0,0.0,0.0,0.0,0.0,0.0,0.0,0.0,0.0,0.0,0.0,0.0,0.0,0.0,0.0,0.0,0.0,0.0,0.0,0.0,0.0,0.0,0.0,0.0,0.0,0.0,0.0,0.0,0.0,0.0,0.0,0.0,0.0,0.0,0.0,0.0,0.0,0.0,0.0,0.0,0.0,0.0,0.0,0.0,0.0,0.0,0.0,0.0,0.0,0.0,0.0,0.0,0.0,0.0,0.0,0.0,0.0,0.0,0.0,0.0,0.0,0.0,0.0,0.0,0.0,0.0,0.0,0.0,0.0,0.0,0.0,0.0,0.0,0.0,0.0,0.0,0.0,0.0,0.0,0.0,0.0,0.0,0.0,0.0,0.0,0.0,0.0,0.0,0.0,-1.5255,-1.5635,-1.5825,-1.5825,-1.6204,-1.648,-1.677,0.0,0.0,0.0,0.0,0.0,0.0,0.0,0.0,0.0,0.0,0.0,0.0,0.0,0.0,0.0,0.0,0.0,0.0,0.0,0.0,0.0,0.0,0.0,0.0,0.0,0.0,0.0,0.0,0.0,0.0,0.0,0.0,0.0,0.0,0.0,0.0,0.0,0.0,0.0,0.0,0.0,0.0,0.0,0.0,0.0,0.0,0.0,0.0,0.0,0.0,0.0,0.0,0.0,0.0,0.0,0.0,0.0,0.0,0.0,0.0,0.0,0.0,0.0,0.0,0.0,0.0,0.0,0.0,0.0,0.0,0.0,0.0,0.0,0.0,0.0,0.0,0.0,0.0,0.0,0.0,0.0,0.0,0.0,0.0,0.0,0.0,0.0,0.0,0.0,0.0,0.0,0.0,0.0,0.0,0.0,0.0,0.0,0.0,0.0,0.0,0.0,0.0,0.0,0.0,0.0,0.0,0.0,0.0,-1.4388,-1.535,-1.5825,-1.5825,-1.6676,-1.6763,0.0,0.0,0.0,0.0,0.0,0.0,0.0,0.0,0.0,0.0,0.0,0.0,0.0,0.0,0.0,0.0,0.0,0.0,0.0,0.0,0.0,0.0,0.0,0.0,0.0,0.0,0.0,0.0,0.0,0.0,0.0,0.0,0.0,0.0,0.0,0.0,0.0,0.0,0.0,0.0,0.0,0.0,0.0,0.0,0.0,0.0,0.0,0.0,0.0,0.0,0.0,0.0,0.0,0.0,0.0,0.0,0.0,0.0,0.0,0.0,0.0,0.0,0.0,0.0,0.0,0.0,0.0,0.0,0.0,0.0,0.0,0.0,0.0,0.0,0.0,0.0,0.0,0.0,0.0,0.0,0.0,0.0,0.0,0.0,0.0,0.0,0.0,0.0,0.0,0.0,0.0,0.0,0.0,0.0,0.0,0.0,0.0,0.0,0.0,0.0,0.0,0.0,0.0,0.0,0.0,0.0,0.0,0.0,0.0,-1.5445,-1.5635,-1.5825,-1.5825,-1.6015,-1.6116,0.0,0.0,0.0,0.0,0.0,0.0,0.0,0.0,0.0,0.0,0.0,0.0,0.0,0.0,0.0,0.0,0.0,0.0,0.0,0.0,0.0,0.0,0.0,0.0,0.0,0.0,0.0,0.0,0.0,0.0,0.0,0.0,0.0,0.0,0.0,0.0,0.0,0.0,0.0,0.0,0.0,0.0,0.0,0.0,0.0,0.0,0.0,0.0,0.0,0.0,0.0,0.0,0.0,0.0,0.0,0.0,0.0,0.0,0.0,0.0,0.0,0.0,0.0,0.0,0.0,0.0,0.0,0.0,0.0,0.0,0.0,0.0,0.0,0.0,0.0,0.0,0.0,0.0,0.0,0.0,0.0,0.0,0.0,0.0,0.0,0.0,0.0,0.0,0.0,0.0,0.0,0.0,0.0,0.0,0.0,0.0,0.0,0.0,0.0,0.0,0.0,0.0,0.0,0.0,0.0,0.0,0.0,0.0,-1.5635,-1.5159,-1.554,-1.5825,-1.5825,-1.5825,-1.5825,0.0,0.0,0.0,0.0,0.0,0.0,0.0,0.0,0.0,0.0,0.0,0.0,0.0,0.0,0.0,0.0,0.0,0.0,0.0,0.0,0.0,0.0,0.0,0.0,0.0,0.0,0.0,0.0,0.0,0.0,0.0,0.0,0.0,0.0,0.0,0.0,0.0,0.0,0.0,0.0,0.0,0.0,0.0,0.0,0.0,0.0,0.0,0.0,0.0,0.0,0.0,0.0,0.0,0.0,0.0,0.0,0.0,0.0,0.0,0.0,0.0,0.0,0.0,0.0,0.0,0.0,0.0,0.0,0.0,0.0,0.0,0.0,0.0,0.0,0.0,0.0,0.0,0.0,0.0,0.0,0.0,0.0,0.0,0.0,0.0,0.0,0.0,0.0,0.0,0.0,0.0,0.0,0.0,0.0,0.0,0.0,0.0,0.0,0.0,0.0,0.0,0.0,0.0,0.0,0.0,0.0,0.0,0.0,-1.5248,-1.4484,-1.5255,-1.575,-1.5879,-1.5845,-1.5825,0.0,0.0,0.0,0.0,0.0,0.0,0.0,0.0,0.0,0.0,0.0,0.0,0.0,0.0,0.0,0.0,0.0,0.0,0.0,0.0,0.0,0.0,0.0,0.0,0.0,0.0,0.0,0.0,0.0,0.0,0.0,0.0,0.0,0.0,0.0,0.0,0.0,0.0,0.0,0.0,0.0,0.0,0.0,0.0,0.0,0.0,0.0,0.0,0.0,0.0,0.0,0.0,0.0,0.0,0.0,0.0,0.0,0.0,0.0,0.0,0.0,0.0,0.0,0.0,0.0,0.0,0.0,0.0,0.0,0.0,0.0,0.0,0.0,0.0,0.0,0.0,0.0,0.0,0.0,0.0,0.0,0.0,0.0,0.0,0.0,0.0,0.0,0.0,0.0,0.0,0.0,0.0,0.0,0.0,0.0,0.0,0.0,0.0,0.0,0.0,0.0,0.0,0.0,0.0,0.0,0.0,0.0,0.0,-1.4873,-1.5445,-1.4867,-1.5166,-1.6166,-1.5952,-1.5825,0.0,0.0,0.0,0.0,0.0,0.0,0.0,0.0,0.0,0.0,0.0,0.0,0.0,0.0,0.0,0.0,0.0,0.0,0.0,0.0,0.0,0.0,0.0,0.0,0.0,0.0,0.0,0.0,0.0,0.0,0.0,0.0,0.0,0.0,0.0,0.0,0.0,0.0,0.0,0.0,0.0,0.0,0.0,0.0,0.0,0.0,0.0,0.0,-2.1677,0.0,0.0,0.0,0.0,0.0,0.0,0.0,0.0,0.0,0.0,0.0,0.0,0.0,0.0,0.0,0.0,0.0,0.0,0.0,0.0,0.0,0.0,0.0,0.0,0.0,0.0,0.0,0.0,0.0,0.0,0.0,0.0,0.0,0.0,0.0,0.0,0.0,0.0,0.0,0.0,0.0,0.0,0.0,0.0,0.0,0.0,0.0,0.0,0.0,0.0,0.0,0.0,0.0,0.0,0.0,0.0,0.0,0.0,0.0,-1.4063,-1.455,-1.466,-1.4924,-1.5655,-1.6019,-1.6179,0.0,0.0,0.0,0.0,0.0,0.0,0.0,0.0,0.0,0.0,0.0,0.0,0.0,0.0,0.0,0.0,0.0,0.0,0.0,0.0,0.0,0.0,0.0,0.0,0.0,0.0,0.0,0.0,0.0,0.0,0.0,0.0,0.0,0.0,0.0,0.0,0.0,0.0,0.0,0.0,0.0,0.0,0.0,0.0,0.0,0.0,0.0,0.0,0.0,0.0,0.0,0.0,0.0,0.0,0.0,0.0,0.0,0.0,0.0,0.0,0.0,0.0,0.0,0.0,0.0,0.0,0.0,0.0,0.0,0.0,0.0,0.0,0.0,0.0,0.0,0.0,0.0,0.0,0.0,0.0,0.0,0.0,0.0,0.0,0.0,0.0,0.0,0.0,0.0,0.0,0.0,0.0,0.0,0.0,0.0,0.0,0.0,0.0,0.0,0.0,0.0,0.0,0.0,0.0,0.0,0.0,0.0,-1.3645,-1.3437,-1.3539,-1.4355,-1.4886,-1.5334,-1.6263,-1.6653,-1.642,0.0,0.0,0.0,0.0,0.0,0.0,0.0,0.0,0.0,0.0,0.0,0.0,0.0,0.0,0.0,0.0,0.0,0.0,0.0,0.0,0.0,0.0,0.0,0.0,0.0,0.0,0.0,0.0,0.0,0.0,0.0,0.0,0.0,0.0,0.0,0.0,0.0,0.0,-1.9272,-1.9272,0.0,0.0,0.0,0.0,0.0,0.0,0.0,0.0,-2.0086,0.0,0.0,0.0,0.0,0.0,0.0,0.0,0.0,0.0,0.0,0.0,0.0,0.0,0.0,0.0,0.0,0.0,0.0,0.0,0.0,0.0,0.0,0.0,0.0,0.0,0.0,0.0,0.0,0.0,0.0,0.0,0.0,0.0,0.0,0.0,0.0,0.0,0.0,0.0,0.0,0.0,0.0,0.0,0.0,0.0,0.0,0.0,0.0,0.0,0.0,0.0,0.0,0.0,0.0,0.0,0.0,-1.3587,-1.3427,-1.3846,-1.4659,-1.4055,-1.4669,-1.6747,-1.6972,-1.7054,-1.7103,0.0,0.0,0.0,0.0,0.0,0.0,0.0,0.0,0.0,0.0,0.0,0.0,0.0,0.0,0.0,0.0,0.0,0.0,0.0,0.0,0.0,0.0,0.0,0.0,0.0,0.0,0.0,0.0,0.0,0.0,0.0,0.0,0.0,0.0,0.0,0.0,0.0,0.0,0.0,-1.9272,-1.9272,0.0,0.0,0.0,0.0,0.0,0.0,0.0,0.0,-1.9576,0.0,0.0,0.0,0.0,0.0,0.0,0.0,0.0,0.0,0.0,0.0,0.0,0.0,0.0,0.0,0.0,0.0,0.0,0.0,0.0,0.0,0.0,0.0,0.0,0.0,0.0,0.0,0.0,0.0,0.0,0.0,0.0,0.0,0.0,0.0,0.0,0.0,0.0,0.0,0.0,0.0,0.0,0.0,0.0,0.0,0.0,0.0,0.0,0.0,0.0,0.0,0.0,0.0,0.0,0.0,-1.269,-1.2279,-1.2226,-1.2755,-1.2856,-1.3752,-1.5551,-1.6199,-1.684,0.0,0.0,0.0,0.0,0.0,0.0,0.0,0.0,0.0,0.0,0.0,0.0,0.0,0.0,0.0,0.0,0.0,0.0,0.0,0.0,0.0,0.0,0.0,0.0,0.0,0.0,0.0,0.0,0.0,0.0,0.0,0.0,0.0,0.0,0.0,0.0,0.0,0.0,0.0,0.0,-1.9272,-1.9272,-1.9272,0.0,0.0,0.0,0.0,0.0,0.0,-1.9783,-1.9983,0.0,0.0,0.0,0.0,0.0,0.0,0.0,0.0,0.0,0.0,0.0,0.0,0.0,0.0,0.0,0.0,0.0,0.0,0.0,0.0,0.0,0.0,0.0,0.0,0.0,0.0,0.0,0.0,0.0,0.0,0.0,0.0,0.0,0.0,0.0,0.0,0.0,0.0,0.0,0.0,0.0,0.0,0.0,0.0,0.0,0.0,0.0,0.0,0.0,0.0,0.0,0.0,0.0,0.0,0.0,-1.2491,-1.1476,-1.1017,-1.1122,-1.22,-1.3275,-1.4454,-1.5642,-1.6717,0.0,0.0,0.0,0.0,0.0,0.0,0.0,0.0,0.0,0.0,0.0,0.0,0.0,0.0,0.0,0.0,0.0,0.0,0.0,0.0,0.0,0.0,0.0,0.0,0.0,0.0,0.0,0.0,0.0,0.0,0.0,0.0,0.0,0.0,0.0,0.0,0.0,0.0,0.0,0.0,0.0,-1.9272,-1.9272,-1.9272,0.0,0.0,0.0,0.0,-1.9272,-1.9983,0.0,0.0,0.0,0.0,0.0,0.0,0.0,0.0,0.0,0.0,0.0,0.0,0.0,0.0,0.0,0.0,0.0,0.0,0.0,0.0,0.0,0.0,0.0,0.0,0.0,0.0,0.0,0.0,0.0,0.0,0.0,0.0,0.0,0.0,0.0,0.0,0.0,0.0,0.0,0.0,0.0,0.0,0.0,0.0,0.0,0.0,0.0,0.0,0.0,0.0,0.0,0.0,0.0,0.0,0.0,0.0,-1.3874,-1.2724,-1.22,-1.22,-1.3275,-1.446,-1.5642,-1.6829,-1.747,0.0,0.0,0.0,0.0,0.0,0.0,0.0,0.0,0.0,0.0,0.0,0.0,0.0,0.0,0.0,0.0,0.0,0.0,0.0,0.0,0.0,0.0,0.0,0.0,0.0,0.0,0.0,0.0,0.0,0.0,0.0,0.0,0.0,0.0,0.0,0.0,0.0,0.0,0.0,0.0,0.0,-1.9272,-1.9272,-1.9272,-1.9272,0.0,0.0,-1.9272,-1.9272,-1.9383,0.0,0.0,0.0,0.0,0.0,0.0,0.0,0.0,0.0,0.0,0.0,0.0,0.0,0.0,0.0,0.0,0.0,0.0,0.0,0.0,0.0,0.0,0.0,0.0,0.0,0.0,0.0,0.0,0.0,0.0,0.0,0.0,0.0,0.0,0.0,0.0,0.0,0.0,0.0,0.0,0.0,0.0,0.0,0.0,0.0,0.0,0.0,0.0,0.0,0.0,0.0,0.0,0.0,0.0,0.0,-1.4781,-1.3166,-1.263,-1.2096,-1.1446,-1.1873,-1.2738,-1.3922,-1.4352,-1.5322,0.0,0.0,0.0,0.0,0.0,0.0,0.0,0.0,0.0,0.0,0.0,0.0,0.0,0.0,0.0,0.0,0.0,0.0,0.0,0.0,0.0,0.0,0.0,0.0,0.0,0.0,0.0,0.0,0.0,0.0,0.0,0.0,0.0,0.0,0.0,0.0,0.0,0.0,0.0,0.0,0.0,0.0,-1.9272,-1.9272,0.0,0.0,0.0,-1.9272,-1.9272,0.0,0.0,0.0,0.0,0.0,0.0,0.0,0.0,0.0,0.0,0.0,0.0,0.0,0.0,0.0,0.0,0.0,0.0,0.0,0.0,0.0,0.0,0.0,0.0,0.0,0.0,0.0,0.0,0.0,0.0,0.0,0.0,0.0,0.0,0.0,0.0,0.0,0.0,0.0,0.0,0.0,0.0,0.0,0.0,0.0,0.0,0.0,0.0,0.0,0.0,0.0,0.0,0.0,0.0,0.0,0.0,0.0,-1.2847,-1.2521,-1.1987,-1.1126,-1.1664,-1.2422,-1.328,-1.3491,0.0,0.0,0.0,0.0,0.0,0.0,0.0,0.0,0.0,0.0,0.0,0.0,0.0,0.0,0.0,0.0,0.0,0.0,0.0,0.0,0.0,0.0,0.0,0.0,0.0,0.0,0.0,-1.7589,0.0,0.0,0.0,0.0,0.0,0.0,0.0,0.0,0.0,0.0,0.0,0.0,0.0,0.0,-1.9272,-1.9272,-1.9345,-1.9396,0.0,0.0,-1.9513,-1.952,-1.9513,-1.952,0.0,0.0,0.0,0.0,0.0,0.0,0.0,0.0,0.0,0.0,0.0,0.0,0.0,0.0,0.0,0.0,0.0,0.0,0.0,0.0,0.0,0.0,0.0,0.0,0.0,0.0,0.0,0.0,0.0,0.0,0.0,0.0,0.0,0.0,0.0,0.0,0.0,0.0,0.0,0.0,0.0,0.0,0.0,0.0,0.0,0.0,0.0,0.0,0.0,0.0,0.0,0.0,0.0,0.0,-1.4132,-1.3922,-1.2955,-1.2417,-1.2309,-1.446,-1.5642,-1.5648,-1.6717,-1.7259,0.0,0.0,0.0,0.0,0.0,0.0,0.0,0.0,0.0,0.0,0.0,0.0,0.0,0.0,0.0,0.0,0.0,0.0,0.0,0.0,0.0,0.0,0.0,0.0,0.0,0.0,0.0,0.0,0.0,0.0,0.0,0.0,0.0,0.0,0.0,0.0,0.0,0.0,0.0,0.0,0.0,-1.9279,-1.9272,-1.9535,-1.9733,0.0,-1.9981,-2.0172,-2.0164,-2.0164,-2.0172,-2.0164,0.0,0.0,0.0,0.0,0.0,0.0,0.0,0.0,0.0,0.0,0.0,0.0,0.0,0.0,0.0,0.0,0.0,0.0,0.0,0.0,0.0,0.0,0.0,0.0,0.0,0.0,0.0,0.0,0.0,0.0,0.0,0.0,0.0,0.0,0.0,0.0,0.0,0.0,0.0,0.0,0.0,0.0,0.0,0.0,0.0,0.0,0.0,0.0,0.0,0.0,0.0,0.0,0.0,-1.553,-1.4132,-1.3701,-1.3058,-1.2521,-1.3275,-1.3712,-1.3712,-1.4137,-1.4352,0.0,0.0,0.0,0.0,0.0,0.0,0.0,0.0,0.0,0.0,0.0,0.0,0.0,0.0,0.0,0.0,0.0,0.0,0.0,0.0,0.0,0.0,0.0,0.0,0.0,0.0,0.0,0.0,-1.7694,-1.8115,-1.8653,0.0,0.0,0.0,0.0,0.0,0.0,0.0,0.0,0.0,0.0,-1.9645,-1.9842,-1.9974,0.0,0.0,-2.0157,-2.0237,-2.0237,-2.0869,-2.1287,-2.1287,-2.2355,0.0,0.0,0.0,0.0,0.0,0.0,0.0,0.0,0.0,0.0,0.0,0.0,0.0,0.0,0.0,0.0,0.0,0.0,0.0,0.0,0.0,0.0,0.0,0.0,0.0,0.0,0.0,0.0,0.0,0.0,0.0,0.0,0.0,0.0,0.0,0.0,0.0,0.0,0.0,0.0,0.0,0.0,0.0,0.0,0.0,0.0,0.0,0.0,0.0,0.0,0.0,0.0,-1.6293,-1.4674,-1.4674,-1.4245,-1.3491,-1.3814,-1.3922,-1.3917,-1.3922,-1.3922,0.0,0.0,0.0,0.0,0.0,0.0,0.0,0.0,0.0,0.0,0.0,0.0,0.0,0.0,0.0,0.0,0.0,0.0,0.0,0.0,0.0,0.0,0.0,0.0,0.0,0.0,0.0,0.0,-1.8115,-1.8743,-1.916,0.0,0.0,0.0,0.0,0.0,0.0,0.0,0.0,0.0,0.0,-1.9981,-2.0208,-2.0632,-2.0918,-2.0918,-2.1213,-2.1634,-2.1734,-2.219,-2.2434,-2.264,0.0,0.0,0.0,0.0,0.0,0.0,0.0,0.0,0.0,0.0,0.0,0.0,0.0,0.0,0.0,0.0,0.0,0.0,0.0,0.0,0.0,0.0,0.0,0.0,0.0,0.0,0.0,-1.7555,0.0,0.0,-1.7549,0.0,0.0,0.0,0.0,0.0,0.0,0.0,0.0,0.0,0.0,0.0,0.0,0.0,0.0,0.0,0.0,0.0,0.0,0.0,0.0,0.0,0.0,-1.5968,-1.5861,-1.5861,-1.5861,-1.5755,-1.6935,-1.7364,-1.7364,-1.747,-1.7477,-1.7371,0.0,0.0,0.0,0.0,0.0,0.0,0.0,0.0,0.0,0.0,0.0,0.0,0.0,0.0,0.0,0.0,0.0,0.0,0.0,0.0,0.0,0.0,0.0,0.0,0.0,0.0,-1.7687,-1.884,-1.9776,0.0,0.0,0.0,0.0,0.0,0.0,0.0,0.0,0.0,-2.0288,-2.023,-2.023,-2.0252,-2.1478,-2.2348,-2.2332,-2.3599,-2.4718,-2.4964,-2.4236,-2.3586,0.0,0.0,0.0,0.0,0.0,0.0,0.0,0.0,0.0,0.0,0.0,0.0,0.0,0.0,0.0,0.0,0.0,0.0,0.0,0.0,0.0,0.0,0.0,0.0,0.0,0.0,0.0,-1.7589,-1.7589,0.0,0.0,0.0,0.0,0.0,0.0,0.0,0.0,0.0,0.0,0.0,-1.7589,-1.7589,0.0,0.0,0.0,0.0,0.0,0.0,0.0,0.0,0.0,0.0,0.0,0.0,-1.6611,-1.5968,-1.5861,-1.5861,-1.5861,-1.6293,-1.6505,-1.6499,-1.6499,-1.6499,-1.6505,0.0,0.0,0.0,0.0,0.0,0.0,0.0,0.0,0.0,0.0,0.0,0.0,0.0,0.0,0.0,0.0,0.0,0.0,0.0,0.0,0.0,0.0,0.0,0.0,0.0,-1.7989,0.0,0.0,0.0,0.0,0.0,0.0,0.0,0.0,0.0,0.0,-2.1545,-2.0622,-2.0516,-2.0559,-2.064,-2.0852,-2.1494,-2.185,0.0,0.0,0.0,0.0,0.0,0.0,0.0,0.0,0.0,0.0,0.0,0.0,0.0,0.0,-2.1533,-2.1525,-2.1533,-2.1533,-2.1533,0.0,0.0,0.0,0.0,0.0,0.0,0.0,0.0,0.0,0.0,0.0,0.0,0.0,0.0,-1.7589,-1.7589,-1.7589,0.0,0.0,0.0,0.0,0.0,0.0,0.0,0.0,-1.7589,-1.7589,-1.7589,-1.7589,-1.7642,-1.7742,-1.7736,-1.7782,0.0,0.0,0.0,0.0,0.0,0.0,0.0,0.0,-1.7259,-1.6505,-1.6505,-1.6555,-1.665,-1.6656,-1.6706,-1.6794,-1.68,-1.6584,-1.6253,-1.5813,-1.5813,0.0,0.0,0.0,0.0,0.0,0.0,0.0,0.0,0.0,0.0,0.0,0.0,0.0,0.0,0.0,0.0,0.0,0.0,0.0,0.0,0.0,0.0,0.0,-1.8943,0.0,0.0,0.0,0.0,0.0,0.0,0.0,0.0,0.0,-2.3713,-2.2108,-2.0995,-2.0998,-2.0962,-2.1006,-2.1335,0.0,0.0,0.0,0.0,0.0,0.0,0.0,-2.3451,-2.3808,-2.4186,-2.4338,-2.3743,-2.2847,-2.2384,-2.2384,0.0,0.0,-2.222,-2.2057,-2.2049,-2.2049,-2.1763,-2.1565,-2.1773,-2.1525,-2.132,0.0,0.0,0.0,0.0,-1.8058,0.0,0.0,0.0,-1.7622,-1.7629,0.0,-1.7635,0.0,0.0,0.0,0.0,-1.7622,-1.7629,0.0,0.0,-1.7629,-1.7609,-1.7622,-1.7622,-1.7776,-1.805,-1.8036,-1.8183,-1.8437,-1.7903,-1.7609,0.0,0.0,0.0,0.0,0.0,-1.7609,-1.7622,-1.7629,-1.7762,-1.7935,-1.8056,-1.819,-1.8464,-1.8366,-1.7909,-1.69,-1.7792,-1.7922,-1.69,-1.765,0.0,0.0,0.0,0.0,0.0,0.0,0.0,0.0,0.0,0.0,0.0,0.0,0.0,0.0,0.0,0.0,0.0,0.0,0.0,0.0,-1.9491,0.0,0.0,0.0,0.0,0.0,0.0,0.0,0.0,0.0,-2.2879,-2.3838,-2.2921,-2.2193,-2.1831,0.0,0.0,0.0,0.0,-2.4197,-2.3095,-2.4872,-2.6024,-2.5266,-2.435,-2.3992,-2.4492,0.0,0.0,-2.3135,-2.2885,-2.2641,-2.2634,-2.239,-2.2199,-2.2268,-2.2024,-2.1732,-2.1725,-2.1491,-2.1229,-2.1229,-2.1271,-2.125,-1.8557,0.0,0.0,0.0,0.0,-1.8544,-1.8442,-1.823,-1.8237,-1.823,-1.823,-1.823,0.0,0.0,0.0,0.0,0.0,0.0,-1.8237,-1.823,-1.823,-1.823,-1.823,-1.823,-1.8277,-1.8364,-1.8357,-1.8404,-1.8477,-1.8317,-1.823,-1.823,0.0,0.0,0.0,0.0,-1.823,-1.823,-1.823,-1.8277,-1.8364,-1.8364,-1.8404,-1.8484,-1.7693,-1.7464,-1.7929,-1.7582,-1.747,-1.804,-1.8189,0.0,0.0,0.0,0.0,0.0,0.0,0.0,0.0,0.0,0.0,0.0,0.0,0.0,0.0,0.0,0.0,0.0,0.0,0.0,-2.0825,-2.1217,-2.1487,0.0,0.0,0.0,0.0,0.0,0.0,0.0,0.0,0.0,-2.3228,-2.2536,-2.216,0.0,0.0,-2.1789,-2.3545,-2.3804,-2.3594,-2.3119,-2.3747,0.0,-2.2929,-2.2572,-2.255,-2.345,-2.368,-2.3808,-2.3801,-2.3543,-2.3278,-2.3278,-2.302,-2.2706,-2.2794,-2.239,-2.199,-2.1969,-2.1845,-2.1845,-2.1845,-2.1721,-2.1479,-1.9293,-1.9361,-1.9111,-1.8913,-1.8698,-1.8705,-1.8594,-1.8497,-1.8497,-1.8497,-1.8497,-1.8497,-1.8497,-1.8497,-1.8497,0.0,0.0,0.0,-1.8497,-1.8497,-1.8497,-1.8497,-1.8497,-1.8497,-1.8557,-1.8664,-1.8664,-1.8724,-1.8844,-1.8838,-1.8838,-1.8831,0.0,-1.8497,-1.8497,-1.8497,-1.8497,-1.8497,-1.8497,-1.8544,-1.8664,-1.8778,-1.8838,-1.8838,-1.8139,-1.8146,-1.8838,-1.8146,-1.8146,-1.8831,-1.8724,-1.8664,0.0,0.0,0.0,0.0,0.0,0.0,0.0,0.0,0.0,0.0,0.0,-1.8223,-1.823,0.0,0.0,0.0,-1.9244,-2.0243,-2.1562,-2.1803,0.0,0.0,0.0,0.0,0.0,0.0,0.0,-2.3789,-2.3873,-2.3606,-2.2591,-2.2561,-2.2749,-2.2736,-2.1862,-2.1919,-2.394,0.0,-2.3934,-2.3981,-2.4619,-2.4911,-2.3904,-2.3921,-2.412,-2.4242,-2.469,-2.4705,-2.4216,-2.3681,-2.3289,-2.3289,-2.2897,-2.2635,-2.2642,-2.2332,-2.2084,-2.2219,-2.2091,-2.2091,-2.2091,-2.1963,-2.1713,-2.0234,-2.014,-1.9078,-1.8637,-1.8631,-1.8631,-1.8637,-1.8631,-1.8637,-1.8631,-1.8624,-1.8631,-1.8631,-1.8631,-1.8631,0.0,-1.8624,-1.8624,-1.8644,-1.8631,-1.8631,-1.8631,-1.8631,-1.8637,-1.8771,-1.9025,-1.9032,-1.9172,-1.9432,-1.9439,-1.9432,-1.9419,-1.8898,-1.8604,-1.8564,-1.8564,-1.8564,-1.8564,-1.8564,-1.8698,-1.8951,-1.9225,-1.9366,-1.9359,-1.9392,-1.9399,-1.9399,-1.9426,-1.9439,-1.9426,-1.9172,-1.9032,-1.9018,0.0,0.0,0.0,0.0,0.0,0.0,0.0,0.0,0.0,0.0,0.0,0.0,0.0,0.0,-1.8591,-1.8971,0.0,-2.1447,-2.1851,0.0,0.0,0.0,-2.4811,-2.5792,-2.4977,-2.3929,-2.2893,0.0,0.0,-2.2064,-2.31,-2.3575,-2.2199,-2.1661,-2.2024,-2.3688,-2.4637,-2.5104,-2.5622,-2.6891,-2.7497,-2.6372,-2.6638,-2.6711,-2.5793,-2.6047,-2.5466,-2.4326,-2.3534,-2.3112,-2.3015,-2.2579,-2.2071,-2.2064,-2.2203,-2.219,-2.2447,-2.2261,-2.1964,-2.1944,-2.1937,-2.1931,-2.0234,-2.0214,-1.9933,-1.982,-1.982,-1.9813,-1.982,-1.982,-1.982,-1.982,-1.9813,-1.982,-1.982,-1.982,-1.982,-1.982,-1.982,-1.982,-1.982,-1.982,-1.982,-1.982,-1.982,-1.982,-1.9853,-1.992,-1.992,-1.996,-2.0027,-2.0027,-2.0027,-2.002,-1.9887,-1.9593,-1.9178,-1.9165,-1.9158,-1.9158,-1.9158,-1.9192,-1.9265,-1.9332,-1.9366,-1.9366,-1.9579,-1.9693,-1.9706,-1.9913,-2.0027,-2.0027,-1.996,-1.992,-1.992,-1.9853,0.0,0.0,0.0,0.0,0.0,0.0,0.0,0.0,0.0,-1.8818,-1.8824,0.0,-1.9252,0.0,-2.0669,-2.2273,-2.4449,-2.4879,0.0,0.0,-2.477,-2.4926,-2.3638,-2.4029,-2.3656,-2.1728,-2.2799,-2.3482,-2.2669,-2.3291,-2.3944,-2.44,-2.3664,-2.4073,-2.7114,-2.7581,-2.7576,-2.7685,-2.837,-2.8054,-2.6413,-2.5548,-2.5375,-2.4679,-2.476,-2.4669,-2.4139,-2.36,-2.3323,-2.333,-2.2917,-2.2652,-2.2639,-2.2652,-2.2645,-2.2754,-2.2438,-2.1984,-2.1984,-2.1991,-2.1991,-2.0621,-2.0628,-2.0621,-2.0621,-2.0608,-2.0347,-2.0234,-2.0234,-2.0234,-2.0234,-2.0234,-2.0234,-2.0234,-2.0234,-2.0234,-2.0234,-2.0234,-2.0234,-2.0234,-2.0234,-2.0234,-2.0234,-2.0234,-2.0234,-2.0234,-2.0234,-2.0234,-2.0234,-2.0234,-2.0234,-2.0234,-2.0234,-2.0234,-2.0074,-1.9766,-1.9753,-1.9753,-1.9753,-1.9753,-1.9753,-1.9753,-1.9753,-1.9753,-1.9753,-1.9907,-1.9993,-2.0,-2.0147,-2.0234,-2.0234,-2.0234,-2.0234,-2.0234,-2.0234,-2.0234,0.0,0.0,0.0,0.0,0.0,0.0,0.0,0.0,0.0,0.0,0.0,-2.0281,-2.1611,-2.2015,-2.2944,-2.4819,-2.521,-2.5066,-2.4364,-2.4492,-2.4291,-2.3764,-2.4268,-2.3978,-2.2194,-2.3807,-2.4597,-2.3375,-2.4306,-2.4924,-2.4969,-2.5738,-2.6874,-2.8333,-2.8527,-2.8793,-2.9644,-3.0177,-3.0046,-2.8329,-2.7877,-2.7106,-2.5692,-2.5569,-2.5292,-2.4367,-2.3952,-2.3679,-2.34,-2.314,-2.2866,-2.2866,-2.2866,-2.2866,-2.2819,-2.2605,-2.2398,-2.2372,-2.2378,-2.2378,-2.1102,-2.1116,-2.1149,-2.1169,-2.1129,-2.0655,-2.0414,-2.0341,-2.0347,-2.0347,-2.0347,-2.0341,-2.0347,-2.0347,-2.0341,-2.0347,-2.0341,-2.0341,-2.0341,-2.0347,-2.0347,-2.0347,-2.0347,-2.0347,-2.0347,-2.0341,-2.0347,-2.0347,-2.0347,-2.0347,-2.0347,-2.0347,-2.0341,-2.0341,-2.0341,-2.0347,-2.0307,-2.0234,-2.0234,-2.0234,-2.0234,-2.0234,-2.0234,-2.0234,-2.0267,-2.0287,-2.0287,-2.0321,-2.0341,-2.0341,-2.0347,-2.0341,-2.0347,-2.0341,-2.0347,0.0,-2.0347,0.0,0.0,0.0,0.0,0.0,0.0,0.0,0.0,-2.0267,-2.1357,-2.3827,-2.3161,-2.2953,-2.4016,-2.454,-2.4868,-2.4674,-2.3955,-2.3897,-2.5183,-2.5314,-2.4688,-2.3569,-2.5782,-2.6512,-2.4397,-2.57,-2.6277,-2.5624,-2.7479,-2.8917,-2.8928,-2.9062,-2.9714,-3.1223,-3.1667,-3.1149,-3.0929,-3.0873,-2.9865,-2.7519,-2.6871,-2.6352,-2.4495,-2.4095,-2.3686,-2.3406,-2.3133,-2.2859,-2.2866,-2.2866,-2.2866,-2.2859,-2.2832,-2.2819,-2.2819,-2.2806,-2.2866,-2.1102,-2.1129,-2.137,-2.147,-2.1476,-2.1603,-2.1383,-2.0949,-2.0949,-2.0942,-2.0942,-2.0942,-2.0942,-2.0949,-2.0942,-2.0949,-2.0942,-2.0942,-2.0949,-2.0942,-2.0942,-2.0942,-2.0942,-2.0942,-2.0949,-2.0942,-2.0942,-2.0942,-2.0942,-2.0949,-2.0949,-2.0949,-2.0942,-2.0942,-2.0942,0.0,0.0,0.0,-2.0234,-2.0234,-2.0234,-2.0234,-2.0234,-2.0241,-2.0468,0.0,-2.0595,-2.0815,-2.0942,-2.0949,-2.0942,0.0,0.0,0.0,0.0,0.0,0.0,0.0,0.0,0.0,0.0,0.0,-2.0915,-2.0742,-2.0287,-2.0448,-2.168,-2.4212,-2.4448,-2.4613,-2.4857,-2.5894,-2.6302,-2.5598,-2.532,-2.5838,-2.7386,-2.6531,-2.5771,-2.5763,-2.6372,-2.6619,-2.6067,-2.6786,-2.7608,-2.7922,-2.8351,-2.8941,-2.9983,-3.0954,-3.1579,-3.1015,-3.042,-3.0223,-3.1157,-3.029,-2.8977,-2.7137,-2.647,-2.554,-2.4074,-2.3406,-2.314,-2.2996,-2.2996,-2.2866,-2.2866,-2.2866,-2.2866,-2.2866,-2.2866,-2.2866,-2.2866,-2.2866,-2.2866,-2.1543,-2.1557,-2.1697,-2.1764,0.0,-2.1924,-2.1817,-2.1543,-2.1543,-2.1543,-2.1537,-2.139,-2.1329,-2.1323,-2.1176,-2.1102,-2.1102,-2.1102,-2.1102,-2.1102,-2.1102,-2.1102,-2.1102,-2.1102,-2.1102,-2.1102,-2.1102,-2.1102,-2.1102,-2.1102,-2.1102,-2.1102,-2.1102,-2.1102,-2.1102,-2.1102,-2.0962,-2.0661,-2.0668,-2.0668,-2.0661,-2.0668,-2.0661,-2.0675,-2.0808,0.0,0.0,0.0,0.0,0.0,0.0,0.0,0.0,-2.1102,0.0,-2.1102,-2.1102,-2.1102,-2.1102,-2.1102,-2.1176,-2.1316,-2.1456,-2.1296,-2.0708,-2.0808,-2.1811,-2.3807,-2.4215,-2.4625,-2.5548,-2.6819,-2.7142,-2.6055,-2.5834,-2.6294,-2.6829,-2.5976,-2.5327,-2.596,-2.5712,-2.5378,-2.5485,-2.612,-2.6504,-2.6758,-2.7916,-2.8597,-2.9017,-3.0592,-3.1421,-3.0974,-3.001,-2.9239,-2.9117,-2.8723,-2.7676,-2.5958,-2.5412,-2.4745,-2.3679,-2.327,-2.314,-2.3003,-2.2866,-2.2866,-2.2866,-2.2866,-2.2866,-2.2866,-2.2866,-2.2866,-2.2866,-2.2866,-2.2866,-2.1984,-2.1991,-2.2044,-2.2064,-2.2064,-2.2118,-2.2144,-2.2131,-2.2031,0.0,0.0,-2.173,-2.163,-2.161,-2.1376,-2.1263,-2.1263,-2.1263,-2.1263,-2.1263,-2.1263,-2.1263,-2.1269,-2.1269,-2.1263,-2.1263,-2.1263,-2.1263,-2.1263,-2.1263,-2.1269,-2.1263,-2.1269,-2.1269,-2.1263,-2.1263,-2.1263,-2.1263,-2.1162,-2.1102,-2.1102,-2.1102,-2.1102,-2.1102,-2.1102,-2.1136,-2.1189,-2.1189,-2.1216,-2.1256,-2.1263,-2.1269,-2.1263,-2.1263,-2.1263,-2.1263,-2.1263,-2.1269,-2.1263,-2.1517,-2.174,-2.1998,-2.2229,-2.2161,-2.1672,-2.1638,-2.2363,-2.4112,-2.4142,-2.4637,-2.632,-2.7234,-2.7394,-2.6304,-2.6184,-2.6199,-2.6263,-2.5252,-2.5161,-2.5884,-2.5413,-2.4624,-2.4777,-2.5366,-2.5401,-2.5048,-2.6643,-2.8196,-2.7511,-2.8852,-3.0191,-3.057,-2.95,-2.8468,-2.7949,-2.7684,-2.6753,-2.5427,-2.503,-2.4495,-2.3672,-2.3406,-2.3133,-2.2996,-2.2866,-2.2866,-2.2866,-2.2866,-2.2866,-2.2866,-2.2866,-2.2866,-2.2866,-2.2866,-2.2866,-2.1991,-2.2004,-2.2251,-2.2358,-2.2372,-2.2632,-2.2739,-2.2699,-2.2205,-2.1984,-2.1977,-2.1944,-2.1924,-2.1924,-2.1884,-2.1864,-2.1864,-2.1857,-2.1857,-2.1864,-2.1864,-2.1864,-2.1864,-2.1864,-2.1864,-2.1864,-2.1857,-2.1864,-2.1864,-2.185,-2.1857,-2.1857,-2.1864,-2.1857,-2.1864,-2.1857,-2.1864,-2.185,-2.137,-2.1102,-2.1102,-2.1102,-2.1102,-2.1102,-2.1109,-2.1236,-2.1476,-2.149,-2.1603,-2.1844,-2.1864,-2.1864,-2.1864,-2.185,-2.1864,-2.1864,-2.1864,-2.1864,-2.1857,-2.3025,-2.3674,-2.3717,-2.3768,-2.3753,-2.3666,-2.3659,-2.4691,-2.7176,-2.6399,-2.6288,-2.7638,-2.7021,-2.6504,-2.6615,-2.6533,-2.6644,-2.6767,-2.6542,-2.6394,-2.679,-2.711,-2.6433,-2.536,-2.568,-2.597,-2.6,-2.5771,-2.5689,-2.6745,-2.737,-2.8139,-2.8969,-2.8337,-2.7949,-2.8205,-2.8863,-2.78,-2.6612,-2.595,-2.5143,-2.3536,-2.314,-2.2996,-2.2866,-2.2866,-2.2866,-2.2866,-2.2866,-2.2866,-2.2866,-2.2866,-2.2866,-2.2866,-2.2866,-2.2866,-2.2458,-2.2478,-2.2605,-2.2659,-2.2665,-2.2806,-2.2866,-2.2839,-2.2579,-2.2458,-2.2445,-2.2291,-2.2218,-2.2205,-2.2058,-2.1984,-2.1984,-2.1984,-2.1984,-2.1984,-2.1984,-2.1984,-2.1984,-2.1984,-2.1984,-2.1984,-2.1984,-2.1984,-2.1984,-2.1984,-2.1984,-2.1984,-2.1984,-2.1984,-2.1984,-2.1984,-2.1984,-2.1977,-2.1717,-2.1583,-2.1583,-2.159,-2.1583,-2.1583,-2.1583,-2.1643,-2.1777,-2.1784,-2.185,-2.1984,-2.1984,-2.1984,-2.1984,-2.1984,-2.1984,-2.1984,-2.1984,-2.1984,-2.1984,-2.3438,-2.4699,-2.5474,-2.5635,-2.5735,-2.5735,-2.4755,-2.5016,-2.7123,-2.6761,-2.6705,-2.7539,-2.7035,-2.6446,-2.5817,-2.5832,-2.5768,-2.5897,-2.5256,-2.5121,-2.5793,-2.539,-2.4865,-2.4474,-2.4745,-2.5015,-2.5292,-2.5037,-2.5172,-2.5965,-2.6115,-2.6501,-2.7676,-2.6886,-2.6368,-2.6894,-2.7028,-2.6494,-2.5285,-2.5015,-2.4481,-2.3406,-2.3003,-2.2866,-2.2866,-2.2866,-2.2866,-2.2866,-2.2866,-2.2866,-2.2866,-2.2866,-2.2866,-2.2866,-2.2866,-2.2866,-2.2866,-2.2866,-2.2866,-2.2866,-2.2866,-2.2866,-2.2866,-2.2866,-2.2859,-2.2866,-2.2826,-2.2619,-2.2519,-2.2492,-2.2278,-2.2184,-2.2178,-2.2184,-2.2191,-2.2184,-2.2184,-2.2184,-2.2178,-2.2184,-2.2184,-2.2184,-2.2184,-2.2184,-2.2184,-2.2184,-2.2184,-2.2184,-2.2191,-2.2184,-2.2178,-2.2178,-2.2178,-2.2184,-2.2184,-2.2118,-2.1991,-2.1984,-2.1984,-2.1984,-2.1984,-2.2017,-2.2078,-2.2084,-2.2118,-2.2178,-2.2184,-2.2184,-2.2178,-2.2184,-2.2178,-2.2184,-2.2184,-2.2317,-2.2716,-2.3973,-2.5166,-2.6199,-2.6822,-2.7113,-2.6941,-2.572,-2.5528,-2.6937,-2.6985,-2.709,-2.7958,-2.7487,-2.6714,-2.5667,-2.5143,-2.4858,-2.4467,-2.3802,-2.3536,-2.4338,-2.3802,-2.3672,-2.3543,-2.3686,-2.4231,-2.4495,-2.4916,-2.5059,-2.5059,-2.5059,-2.5584,-2.6107,-2.5712,-2.5187,-2.5059,-2.5052,-2.4781,-2.4095,-2.3952,-2.3679,-2.314,-2.2866,-2.2866,-2.2866,-2.2866,-2.2866,-2.2866,-2.2866,-2.2866,-2.2866,-2.2933,-2.2986,-2.2999,-2.2913,-2.2873,-2.2866,-2.2866,-2.2866,-2.2866,-2.2866,-2.2866,-2.2866,-2.2866,-2.2866,-2.2866,-2.2853,-2.2832,-2.2812,-2.2819,-2.2779,-2.2752,-2.2759,-2.2772,-2.2759,-2.2759,-2.2779,-2.2786,-2.2752,-2.2766,-2.2779,-2.2766,-2.2752,-2.2726,-2.2732,-2.2752,-2.2772,-2.2779,-2.2786,-2.2759,-2.2766,-2.2766,-2.2772,-2.2779,-2.2779,-2.2519,-2.2017,-2.1984,-2.1984,-2.1984,-2.1991,-2.2118,-2.2358,-2.2378,-2.2498,-2.2752,-2.2759,-2.2772,-2.2772,-2.2772,-2.2779,-2.2772,-2.2772,-2.3317,-2.4509,-2.4815,-2.5084,-2.5233,-2.6424,-2.7113,-2.6988,-2.6925,-2.743,-2.8254,-2.7727,-2.8122,-3.0428,-2.8575,-2.6847,-2.6314,-2.5532,-2.4467,-2.3536,-2.4067,-2.4331,-2.3126,-2.421,-2.4745,-2.3672,-2.3816,-2.4095,-2.4503,-2.4916,-2.5059,-2.5059,-2.5059,-2.5059,-2.5322,-2.5059,-2.5059,-2.5052,-2.4781,-2.451,-2.4095,-2.3679,-2.3406,-2.2996,-2.2866,-2.2866,-2.2866,-2.2866,-2.2866,-2.2866,-2.2866,-2.2866,-2.2966,-2.31,-2.328,-2.3253,-2.3106,-2.2966,-2.2866,-2.2866,-2.2866,-2.2866,-2.2866,-2.2866,-2.2866,-2.2866,-2.2866,-2.2866,-2.2866,-2.2866,-2.2866,-2.2866,-2.2866,-2.2866,-2.2866,-2.2866,-2.2866,-2.2866,-2.2866,-2.2866,-2.2866,-2.2866,-2.2866,-2.2866,-2.2866,-2.2866,-2.2866,-2.2866,-2.2866,-2.2866,-2.2866,-2.2866,-2.2866,-2.2866,-2.2866,-2.2866,-2.2866,-2.2739,-2.2539,-2.2505,-2.2505,-2.2505,-2.2505,-2.2552,-2.2665,-2.2686,-2.2739,-2.2853,-2.2866,-2.2866,-2.2866,-2.2866,-2.2866,-2.2866,-2.2866,-2.3536,-2.4873,-2.5008,-2.5405,-2.6195,-2.6722,-2.6714,-2.5927,-2.5927,-2.6195,-2.6604,-2.6996,-2.7379,-2.7527,-2.6596,-2.5525,-2.4723,-2.4067,-2.3536,-2.2996,-2.34,-2.3529,-2.3003,-2.3536,-2.3938,-2.3536,-2.3952,-2.4367,-2.4503,-2.4774,-2.5059,-2.5059,-2.5059,-2.5059,-2.5059,-2.4916,-2.4774,-2.4774,-2.4638,-2.4231,-2.3816,-2.3543,-2.327,-2.2996,-2.2866,-2.2866,-2.2866,-2.2866,-2.2866,-2.2866,-2.2879,-2.2899,-2.3093,-2.3367,-2.3587,-2.3587,-2.3487,-2.3407,-2.2866,-2.2866,-2.2866,-2.2866,-2.2866,-2.2866,-2.2866,-2.2866,-2.2866,-2.2866,-2.2866,-2.2866,-2.2866,-2.2866,-2.2866,-2.2866,-2.2866,-2.2866,-2.2866,-2.2866,-2.2866,-2.2866,-2.2866,-2.2866,-2.2866,-2.2866,-2.2866,-2.2866,-2.2866,-2.2866,-2.2866,-2.2866,-2.2866,-2.2866,-2.2866,-2.2866,-2.2866,-2.2866,-2.2866,-2.2866,-2.2853,-2.2866,-2.2866,-2.2866,-2.2866,-2.2866,-2.2866,-2.2866,-2.2866,-2.2866,-2.2866,-2.2866,-2.2866,-2.2866,-2.2866,-2.2866,-2.2866,-2.3263,-2.4338,-2.4474,-2.4865,-2.5786,-2.6188,-2.6069,-2.527,-2.5008,-2.5008,-2.5143,-2.5659,-2.5525,-2.5793,-2.527,-2.4474,-2.3529,-2.327,-2.2859,-2.2866,-2.2866,-2.2996,-2.2866,-2.3133,-2.327,-2.3679,-2.4088,-2.4503,-2.4645,-2.4916,-2.5059,-2.5059,-2.5059,-2.5059,-2.5059,-2.4781,-2.4781,-2.4645,-2.4367,-2.3952,-2.3679,-2.3406,-2.3133,-2.2996,-2.2866,-2.2866,-2.2866,-2.2866,-2.2873,-2.2893,-2.2913,-2.3153,-2.346,-2.3694,-2.3828,-2.3875,-2.3828,-2.3768,-2.2866,-2.2866,-2.2866,-2.2866,-2.2866,-2.2866,-2.2866,-2.2866,-2.2866,-2.2866,-2.2866,-2.2866,-2.2866,-2.2866,-2.2866,-2.2866,-2.2866,-2.2866,-2.2866,-2.2866,-2.2866,-2.2866,-2.2866,-2.2866,-2.2866,-2.2866,-2.2866,-2.2866,-2.2866,-2.2866,-2.2866,-2.2866,-2.2866,-2.2866,-2.2866,-2.2866,-2.2866,-2.2866,-2.2866,-2.2866,-2.2866,-2.2866,-2.2866,-2.2866,-2.2866,-2.2866,-2.2866,-2.2866,-2.2866,-2.2866,-2.2866,-2.2866,-2.2866,-2.2866,-2.2866,-2.2866,-2.2866,-2.2859,-2.2996,-2.3133,-2.3126,-2.3393,-2.4474,-2.5001,-2.488,-2.4738,-2.4738,-2.5008,-2.3938,-2.4196,-2.6054,-2.5398,-2.4745,-2.4609,-2.3672,-2.2996,-2.2866,-2.2866,-2.2866,-2.3003,-2.3133,-2.3543,-2.4224,-2.4503,-2.4638,-2.4916,-2.5059,-2.5059,-2.5059,-2.5059,-2.5059,-2.5059,-2.5052,-2.5059,-2.4916,-2.4367,-2.3816,-2.3543,-2.327,-2.2996,-2.2859,-2.2866,-2.2866,-2.2866,-2.2866,-2.2879,-2.2919,-2.316,-2.3547,-2.3801,-2.3868,-2.3981,-2.4162,-2.3941,-2.3901,-2.2866,-2.2866,-2.2866,-2.2866,-2.2866,-2.2866,-2.2866,-2.2866,-2.2866,-2.2866,-2.2866,-2.2866,-2.2866,-2.2866,-2.2866,-2.2866,-2.2866,-2.2866,-2.2866,-2.2866,-2.2866,-2.2866,-2.2866,-2.2866,-2.2866,-2.2866,-2.2866,-2.2866,-2.2866,-2.2866,-2.2866,-2.2866,-2.2866,-2.2866,-2.2866,-2.2866,-2.2866,-2.2866,-2.2866,-2.2866,-2.2866,-2.2866,-2.2866,-2.2866,-2.2866,-2.2866,-2.2866,-2.2866,-2.2866,-2.2866,-2.2866,-2.2866,-2.2866,-2.2866,-2.2866,-2.2866,-2.2866,-2.2866,-2.2866,-2.2866,-2.2866,-2.2859,-2.34,-2.3665,-2.3665,-2.3665,-2.3672,-2.3536,-2.3263,-2.3529,-2.3931,-2.3931,-2.3665,-2.3529,-2.3263,-2.2866,-2.2866,-2.2866,-2.2866,-2.2866,-2.2996,-2.3277,-2.3679,-2.3952,-2.4367,-2.4645,-2.4916,-2.5052,-2.5059,-2.5059,-2.5059,-2.5059,-2.4781,-2.451,-2.5059,-2.4367,-2.3816,-2.3543,-2.327,-2.3133,-2.314,-2.2996,-2.2859,-2.2873,-2.2873,-2.304,-2.3153,-2.3554,-2.3928,-2.4062,-2.4128,-2.4249,-2.4456,-2.4262,-2.4255,-2.2866,-2.2866,-2.2866,-2.2866,-2.2866,-2.2866,-2.2866,-2.2866,-2.2866,-2.2866,-2.2866,-2.2866,-2.2866,-2.2866,-2.2866,-2.2866,-2.2866,-2.2866,-2.2866,-2.2866,-2.2866,-2.2866,-2.2866,-2.2866,-2.2866,-2.2866,-2.2866,-2.2866,-2.2866,-2.2866,-2.2866,-2.2866,-2.2866,-2.2866,-2.2866,-2.2866,-2.2866,-2.2866,-2.2866,-2.2866,-2.2866,-2.2866,-2.2866,-2.2866,-2.2866,-2.2866,-2.2866,-2.2866,-2.2866,-2.2866,-2.2866,-2.2866,-2.2866,-2.2866,-2.2866,-2.2866,-2.2866,-2.2866,-2.2866,-2.2866,-2.2866,-2.2866,-2.2866,-2.2866,-2.2866,-2.2866,-2.2866,-2.2866,-2.2866,-2.2866,-2.2866,-2.2866,-2.2866,-2.2866,-2.2866,-2.2866,-2.2866,-2.2866,-2.2866,-2.2866,-2.2866,-2.3133,-2.34,-2.3679,-2.3952,-2.4231,-2.4638,-2.4916,-2.4916,-2.4916,-2.4916,-2.4916,-2.4503,-2.4367,-2.451,-2.4231,-2.3959,-2.3679,-2.34,-2.327,-2.3133,-2.2996,-2.2996,-2.2879,-2.302,-2.3227,-2.3541,-2.3941,-2.4162,-2.4309,-2.4402,-2.4489,-2.4583,-2.4609,-2.4536,-2.2866,-2.2866,-2.2866,-2.2866,-2.2866,-2.2866,-2.2866,-2.2866,-2.2866,-2.2996,-2.3133,-2.2996,-2.3133,-2.2996,-2.3133,-2.2996,-2.2866,-2.2866,-2.2866,-2.2866,-2.2866,-2.2866,-2.2866,-2.2866,-2.2866,-2.2866,-2.2866,-2.2866,-2.2866,-2.2866,-2.2866,-2.2866,-2.2866,-2.2866,-2.2866,-2.2866,-2.2866,-2.2866,-2.2866,-2.2866,-2.2866,-2.2866,-2.2866,-2.2866,-2.2866,-2.2866,-2.2866,-2.2866,-2.2866,-2.2866,-2.2866,-2.2866,-2.2866,-2.2866,-2.2866,-2.2866,-2.2866,-2.2866,-2.2866,-2.2866,-2.2866,-2.2866,-2.2866,-2.2866,-2.2866,-2.2866,-2.2866,-2.2866,-2.2866,-2.2866,-2.2866,-2.2866,-2.2866,-2.2866,-2.2866,-2.2866,-2.2866,-2.2866,-2.2866,-2.2866,-2.2866,-2.3003,-2.327,-2.3406,-2.3679,-2.4095,-2.4367,-2.4638,-2.4638,-2.4638,-2.4503,-2.4503,-2.436,-2.4231,-2.4095,-2.3959,-2.3959,-2.3959,-2.3543,-2.3263,-2.3133,-2.2996,-2.3133,-2.303,-2.3352,-2.3581,-2.3957,-2.4327,-2.4342,-2.4482,-2.4589,-2.4629,-2.4629,-2.4629,-2.4629,-2.2866,-2.2866,-2.2866,-2.2866,-2.2866,-2.2866,-2.2866,-2.2866,-2.2866,-2.34,-2.4203,-2.4338,-2.4338,-2.4338,-2.4338,-2.3802,-2.3003,-2.2866,-2.2866,-2.2859,-2.2866,-2.2866,-2.2866,-2.2866,-2.2866,-2.2866,-2.2866,-2.2866,-2.2866,-2.2866,-2.2866,-2.2866,-2.2866,-2.2866,-2.2866,-2.2866,-2.2866,-2.2866,-2.2866,-2.2866,-2.2866,-2.2866,-2.2866,-2.2866,-2.2866,-2.2866,-2.2866,-2.2866,-2.2866,-2.2866,-2.2866,-2.2866,-2.2866,-2.2866,-2.2866,-2.2866,-2.2866,-2.2866,-2.2866,-2.2866,-2.2866,-2.2866,-2.2866,-2.2866,-2.2866,-2.2866,-2.2866,-2.2866,-2.2866,-2.2866,-2.2866,-2.2866,-2.2866,-2.2866,-2.2866,-2.2866,-2.2866,-2.2866,-2.2866,-2.2866,-2.2866,-2.2996,-2.327,-2.34,-2.3679,-2.4095,-2.436,-2.4503,-2.4503,-2.4503,-2.4503,-2.4503,-2.4224,-2.3952,-2.4088,-2.3959,-2.3823,-2.3823,-2.3679,-2.34,-2.327,-2.314,-2.3133,-2.3349,-2.3667,-2.4012,-2.439,-2.4488,-2.4496,-2.4569,-2.4616,-2.4629,-2.4629,-2.4629,-2.4629,-2.2866,-2.2866,-2.2866,-2.327,-2.3665,-2.3665,-2.3931,-2.446,-2.446,-2.4993,-2.5667,-2.527,-2.5008,-2.4873,-2.4467,-2.3802,-2.2996,-2.34,-2.34,-2.2996,-2.2866,-2.2866,-2.2866,-2.2866,-2.2866,-2.2866,-2.2866,-2.2866,-2.2866,-2.2866,-2.2866,-2.2866,-2.2866,-2.2866,-2.2866,-2.2866,-2.2866,-2.2866,-2.2866,-2.2866,-2.2866,-2.2866,-2.2866,-2.2866,-2.2866,-2.2866,-2.2866,-2.2866,-2.2866,-2.2866,-2.2866,-2.2866,-2.2866,-2.2866,-2.2866,-2.2866,-2.2866,-2.2866,-2.2866,-2.2866,-2.2866,-2.2866,-2.2866,-2.2866,-2.2866,-2.2866,-2.2866,-2.2866,-2.2866,-2.2866,-2.2866,-2.2866,-2.2866,-2.2866,-2.2866,-2.2866,-2.2866,-2.2866,-2.2866,-2.2866,-2.2866,-2.2996,-2.3133,-2.34,-2.3543,-2.3952,-2.4231,-2.4367,-2.4367,-2.4367,-2.4231,-2.4231,-2.3959,-2.3952,-2.4224,-2.4088,-2.3816,-2.3679,-2.3679,-2.3536,-2.3406,-2.3277,-2.3427,-2.3739,-2.4106,-2.4289,-2.4647,-2.4622,-2.4609,-2.4629,-2.4629,-2.4629,-2.4629,-2.4629,-2.4636,-2.3133,-2.3133,-2.3126,-2.4067,-2.5001,-2.5143,-2.5659,-2.6581,-2.6714,-2.6714,-2.6722,-2.5801,-2.5405,-2.5008,-2.4602,-2.3931,-2.3393,-2.4467,-2.4331,-2.3536,-2.3133,-2.3126,-2.2859,-2.2866,-2.2866,-2.2866,-2.2866,-2.2866,-2.2866,-2.2866,-2.2866,-2.2866,-2.2866,-2.2866,-2.2866,-2.2866,-2.2866,-2.2866,-2.2866,-2.2866,-2.2866,-2.2866,-2.2866,-2.2866,-2.2866,-2.2866,-2.2866,-2.2866,-2.2866,-2.2866,-2.2866,-2.2866,-2.2866,-2.2866,-2.2866,-2.2866,-2.2866,-2.2866,-2.2866,-2.2866,-2.2866,-2.2866,-2.2866,-2.2866,-2.2866,-2.2866,-2.2866,-2.2866,-2.2866,-2.2866,-2.2866,-2.2866,-2.2866,-2.2866,-2.2866,-2.2866,-2.2866,-2.2866,-2.2866,-2.2866,-2.2866,-2.2866,-2.2996,-2.3133,-2.34,-2.3543,-2.3816,-2.3952,-2.4088,-2.3959,-2.3823,-2.3823,-2.3823,-2.3816,-2.4088,-2.3816,-2.3679,-2.3952,-2.3816,-2.3413,-2.3461,-2.3495,-2.3846,-2.4293,-2.4487,-2.4684,-2.4776,-2.487,-2.4924,-2.4924,-2.4924,-2.4629,-2.4777,-2.4924,-2.4924,-2.6054,-2.6054,-2.6054,-2.6188,-2.6581,-2.6588,-2.6195,-2.5667,-2.5667,-2.6455,-2.6847,-2.6722,-2.7129,-2.8073,-2.7668,-2.7129,-2.6188,-2.6321,-2.5793,-2.4602,-2.4474,-2.3795,-2.3133,-2.2866,-2.2866,-2.2866,-2.2866,-2.2866,-2.2866,-2.2866,-2.2866,-2.2866,-2.2866,-2.2866,-2.2866,-2.2866,-2.2866,-2.2866,-2.2866,-2.2866,-2.2866,-2.2866,-2.2866,-2.2866,-2.2866,-2.2866,-2.2866,-2.2866,-2.2866,-2.2866,-2.2866,-2.2866,-2.2859,-2.2866,-2.2866,-2.2996,-2.2859,-2.2859,-2.2859,-2.2866,-2.2866,-2.2866,-2.2859,-2.2866,-2.2866,-2.2866,-2.2866,-2.2866,-2.2866,-2.2873,-2.2873,-2.2886,-2.2886,-2.2866,-2.2919,-2.2899,-2.2866,-2.2866,-2.2866,-2.2866,-2.2866,-2.2866,-2.2866,-2.3003,-2.3133,-2.3406,-2.3543,-2.3679,-2.3816,-2.3816,-2.3686,-2.3686,-2.3816,-2.3816,-2.3816,-2.3679,-2.3679,-2.4095,-2.3966,-2.3297,-2.3399,-2.3653,-2.4176,-2.4936,-2.4939,-2.5084,-2.5382,-2.5499,-2.5506,-2.5359,-2.5359,-2.5212,-2.5359,-2.5506,-2.5506,-2.7121,-2.7121,-2.7121,-2.7511,-2.7924,-2.8056,-2.7924,-2.766,-2.766,-2.8056,-2.8715,-2.8188,-2.846,-2.9134,-2.8592,-2.7924,-2.7121,-2.7121,-2.6321,-2.5001,-2.4338,-2.3672,-2.3003,-2.2866,-2.2866,-2.2866,-2.2866,-2.2866,-2.2866,-2.2866,-2.2866,-2.2866,-2.2866,-2.2866,-2.2866,-2.2866,-2.2866,-2.2866,-2.2866,-2.2866,-2.2866,-2.2866,-2.2866,-2.2866,-2.2859,-2.2996,-2.3133,-2.3133,-2.2996,-2.3003,-2.2866,-2.3003,-2.3133,-2.2996,-2.3003,-2.327,-2.3133,-2.2996,-2.3277,-2.314,-2.2996,-2.2996,-2.2996,-2.2859,-2.2866,-2.2866,-2.2866,-2.2866,-2.2973,-2.3046,-2.308,-2.3166,-2.324,-2.3273,-2.3247,-2.3133,-2.2913,-2.2866,-2.2866,-2.2866,-2.2866,-2.2866,-2.2866,-2.3003,-2.3133,-2.3406,-2.355,-2.3679,-2.3679,-2.3679,-2.3543,-2.3679,-2.3679,-2.3816,-2.383,-2.3707,-2.3646,-2.4057,-2.4369,-2.3646,-2.3748,-2.3913,-2.4579,-2.5261,-2.5415,-2.5562,-2.5695,-2.5793,-2.5646,-2.5653,-2.5793,-2.58,-2.58,-2.5946,-2.5946,-2.7511,-2.7511,-2.7519,-2.832,-2.9404,-2.9535,-2.9917,-3.0843,-3.0584,-3.0705,-3.0584,-2.9796,-2.9395,-2.9404,-2.8846,-2.7784,-2.7784,-2.8048,-2.6988,-2.5793,-2.4595,-2.3802,-2.3795,-2.3133,-2.2996,-2.2866,-2.2866,-2.2866,-2.2866,-2.2866,-2.2866,-2.2866,-2.2866,-2.2866,-2.2866,-2.2866,-2.2866,-2.2866,-2.2866,-2.2866,-2.2859,-2.2996,-2.2996,-2.2996,-2.3133,-2.327,-2.3406,-2.3406,-2.3406,-2.2996,-2.3003,-2.3133,-2.34,-2.3133,-2.327,-2.3679,-2.3406,-2.3406,-2.383,-2.3413,-2.3133,-2.327,-2.3133,-2.2866,-2.2859,-2.2866,-2.2893,-2.2966,-2.3173,-2.328,-2.3394,-2.3601,-2.3674,-2.3661,-2.3714,-2.348,-2.3113,-2.2933,-2.2906,-2.2866,-2.2866,-2.2866,-2.3003,-2.314,-2.3406,-2.3133,-2.3413,-2.3543,-2.3543,-2.3543,-2.3543,-2.3406,-2.3543,-2.3679,-2.37,-2.3728,-2.3838,-2.4073,-2.4519,-2.4484,-2.4406,-2.4734,-2.5027,-2.5429,-2.5576,-2.5812,-2.589,-2.5939,-2.5946,-2.6093,-2.6246,-2.6093,-2.5946,-2.6239,-2.6239,-3.0714,-3.0446,-3.0446,-3.0705,-3.0982,-3.0982,-3.0455,-2.9796,-2.9796,-3.0056,-2.9796,-2.9404,-2.9926,-3.0852,-3.0437,-3.0437,-3.0178,-3.0178,-2.9657,-2.8328,-2.6855,-2.6321,-2.5651,-2.4196,-2.2996,-2.2996,-2.2866,-2.2866,-2.2866,-2.2866,-2.2859,-2.2859,-2.2866,-2.2859,-2.2859,-2.2866,-2.2866,-2.2866,-2.2866,-2.3003,-2.3003,-2.3133,-2.327,-2.327,-2.355,-2.3823,-2.3823,-2.3823,-2.3823,-2.3823,-2.3686,-2.3679,-2.3543,-2.3686,-2.3686,-2.3679,-2.3823,-2.3823,-2.3959,-2.3823,-2.3686,-2.3406,-2.3406,-2.3133,-2.2859,-2.2879,-2.2993,-2.3153,-2.3293,-2.3474,-2.3688,-2.3734,-2.3821,-2.3855,-2.3828,-2.3761,-2.3574,-2.3367,-2.3146,-2.2953,-2.2886,-2.2866,-2.2866,-2.3003,-2.2996,-2.2996,-2.3133,-2.327,-2.3406,-2.3543,-2.3543,-2.3543,-2.3543,-2.37,-2.3983,-2.4073,-2.4275,-2.4379,-2.4785,-2.503,-2.51,-2.517,-2.5566,-2.5735,-2.5876,-2.6086,-2.6239,-2.6239,-2.6239,-2.6538,-2.6692,-2.6546,-2.6546,-2.6538,-2.6538,-3.2038,-3.1901,-3.1901,-3.1772,-3.1644,-3.1644,-3.112,-3.0446,-3.0325,-3.0325,-3.0325,-3.0455,-3.0982,-3.1644,-3.1644,-3.1644,-3.1387,-3.0843,-2.9778,-2.8583,-2.7784,-2.7643,-2.7238,-2.5517,-2.4338,-2.3938,-2.3133,-2.3003,-2.2866,-2.2859,-2.2996,-2.3133,-2.2996,-2.3003,-2.2996,-2.2996,-2.2996,-2.3133,-2.3133,-2.327,-2.3406,-2.3543,-2.3679,-2.3679,-2.3959,-2.4095,-2.4231,-2.4231,-2.4367,-2.451,-2.451,-2.4367,-2.3959,-2.3952,-2.3959,-2.4231,-2.3959,-2.4238,-2.4374,-2.4231,-2.3959,-2.3952,-2.3679,-2.3502,-2.3295,-2.3211,-2.3227,-2.3474,-2.3674,-2.3855,-2.4128,-2.4182,-2.4175,-2.4175,-2.4168,-2.4122,-2.3968,-2.3714,-2.342,-2.3166,-2.31,-2.2999,-2.2946,-2.2939,-2.2886,-2.303,-2.327,-2.3406,-2.3406,-2.3543,-2.3679,-2.3679,-2.3679,-2.3749,-2.4225,-2.4449,-2.4623,-2.4911,-2.51,-2.5324,-2.5471,-2.5679,-2.5763,-2.6015,-2.6086,-2.6385,-2.6538,-2.6684,-2.6684,-2.6838,-2.6845,-2.6991,-2.6991,-2.6838,-2.6838,-3.2422,-3.2422,-3.2422,-3.2166,-3.2047,-3.1919,-3.1782,-3.1506,-3.1506,-3.1506,-3.1644,-3.191,-3.1782,-3.1919,-3.1919,-3.1919,-3.1644,-3.0972,-2.9909,-2.9108,-2.9239,-2.923,-2.8698,-2.7387,-2.6069,-2.5412,-2.3945,-2.3277,-2.3133,-2.3133,-2.3277,-2.3406,-2.327,-2.3277,-2.3406,-2.327,-2.327,-2.3406,-2.3543,-2.3543,-2.3816,-2.3959,-2.4095,-2.4231,-2.4231,-2.4367,-2.4503,-2.4638,-2.4774,-2.5059,-2.5059,-2.4916,-2.4638,-2.4367,-2.4374,-2.4916,-2.4503,-2.451,-2.4781,-2.4503,-2.4367,-2.451,-2.4022,-2.3729,-2.3776,-2.378,-2.3823,-2.3944,-2.4192,-2.4309,-2.4596,-2.4556,-2.4569,-2.4589,-2.4609,-2.4516,-2.4302,-2.4035,-2.3801,-2.3467,-2.3387,-2.332,-2.3166,-2.3086,-2.2993,-2.3057,-2.3304,-2.3427,-2.357,-2.3755,-2.3941,-2.4038,-2.3956,-2.4024,-2.4505,-2.4743,-2.5051,-2.5247,-2.5559,-2.5679,-2.5862,-2.6161,-2.6314,-2.6196,-2.6392,-2.6538,-2.6692,-2.6692,-2.6692,-2.6991,-2.6991,-2.6991,-2.6991,-2.6991,-2.6991,-3.2667,-3.2422,-3.2422,-3.2422,-3.2294,-3.2294,-3.2294,-3.2294,-3.2157,-3.2294,-3.2166,-3.2294,-3.2294,-3.2294,-3.2294,-3.2294,-3.2166,-3.1754,-3.1616,-3.1221,-3.1359,-3.1479,-3.0954,-2.8854,-2.7808,-2.7012,-2.515,-2.3823,-2.3823,-2.3823,-2.3823,-2.3823,-2.3823,-2.3823,-2.3823,-2.3823,-2.3816,-2.3823,-2.3959,-2.3959,-2.4095,-2.4367,-2.4503,-2.4781,-2.4781,-2.4781,-2.4916,-2.4924,-2.5059,-2.5059,-2.5059,-2.5059,-2.4916,-2.4916,-2.4781,-2.4781,-2.4781,-2.4924,-2.5059,-2.4924,-2.4781,-2.4696,-2.458,-2.4475,-2.4484,-2.4532,-2.452,-2.4514,-2.4495,-2.4576,-2.4623,-2.4629,-2.4629,-2.4629,-2.4629,-2.4603,-2.4543,-2.4429,-2.4222,-2.3841,-2.3748,-2.3641,-2.3601,-2.3599,-2.3685,-2.361,-2.368,-2.377,-2.3749,-2.3977,-2.4074,-2.4198,-2.419,-2.4451,-2.4726,-2.5054,-2.5345,-2.5527,-2.566,-2.5944,-2.621,-2.6531,-2.6692,-2.6538,-2.6538,-2.6692,-2.6692,-2.6692,-2.6838,-2.6991,-2.6991,-2.6991,-2.6991,-2.6991,-2.6991,-3.3048,-3.2921,-3.2921,-3.2794,-3.2667,-3.2676,-3.254,-3.2422,-3.2422,-3.2422,-3.2422,-3.2549,-3.2667,-3.2667,-3.2676,-3.2549,-3.2422,-3.2667,-3.2667,-3.2667,-3.2794,-3.2921,-3.253,-3.0039,-2.8994,-2.7941,-2.5958,-2.4367,-2.4095,-2.3959,-2.4095,-2.4231,-2.4095,-2.4095,-2.4231,-2.4095,-2.4102,-2.4245,-2.4252,-2.4381,-2.4517,-2.4795,-2.4931,-2.5066,-2.5074,-2.5059,-2.5059,-2.5059,-2.5059,-2.5059,-2.5059,-2.5059,-2.5059,-2.5059,-2.5059,-2.4916,-2.4924,-2.5059,-2.5059,-2.5066,-2.4989,-2.5027,-2.5056,-2.5154,-2.5102,-2.52,-2.511,-2.4939,-2.4782,-2.4629,-2.4629,-2.4629,-2.4629,-2.4629,-2.4629,-2.4629,-2.4636,-2.4629,-2.4436,-2.4327,-2.4363,-2.4351,-2.4133,-2.4166,-2.4258,-2.4176,-2.4073,-2.4004,-2.4088,-2.4226,-2.4378,-2.4658,-2.4655,-2.4842,-2.5098,-2.5471,-2.5665,-2.5855,-2.596,-2.6246,-2.6246,-2.6546,-2.6546,-2.6392,-2.6538,-2.6692,-2.6845,-2.6845,-2.6845,-2.6991,-2.6991,-2.6991,-2.6991,-2.6991,-2.6991,-3.3418,-3.3418,-3.3418,-3.3301,-3.3048,-3.3048,-3.2921,-3.2676,-3.2676,-3.2667,-3.2676,-3.2921,-3.3038,-3.3048,-3.2921,-3.2921,-3.2676,-3.2921,-3.3048,-3.3048,-3.3175,-3.3418,-3.2638,-3.1212,-2.9639,-2.9378,-2.7419,-2.5307,-2.4503,-2.4374,-2.4367,-2.4503,-2.4374,-2.4424,-2.4603,-2.4516,-2.4474,-2.4689,-2.4833,-2.4969,-2.5249,-2.5249,-2.5249,-2.5249,-2.5242,-2.5257,-2.5198,-2.5198,-2.5132,-2.5088,-2.5059,-2.5059,-2.5059,-2.5059,-2.5059,-2.5059,-2.5059,-2.5059,-2.5074,-2.5169,-2.5293,-2.5324,-2.5382,-2.5588,-2.5734,-2.564,-2.5388,-2.5311,-2.4931,-2.4636,-2.4629,-2.4629,-2.4629,-2.4629,-2.4629,-2.4636,-2.4784,-2.4784,-2.4931,-2.4902,-2.4945,-2.4809,-2.4487,-2.4324,-2.4276,-2.4479,-2.4234,-2.4413,-2.4385,-2.4706,-2.5002,-2.5142,-2.5268,-2.538,-2.5541,-2.5791,-2.5979,-2.6196,-2.6253,-2.6546,-2.6538,-2.6538,-2.6538,-2.6538,-2.6692,-2.6991,-2.6991,-2.6991,-2.6991,-2.6991,-2.6991,-2.6991,-2.6991,-2.6991,-2.6991,-3.3418,-3.3418,-3.3418,-3.3418,-3.3301,-3.3292,-3.3292,-3.3292,-3.3175,-3.3301,-3.3165,-3.3301,-3.3292,-3.3301,-3.3292,-3.3292,-3.3292,-3.3292,-3.3301,-3.3301,-3.3292,-3.3418,-3.3155,-3.1845,-3.0936,-3.041,-2.9248,-2.7286,-2.5839,-2.518,-2.5052,-2.5052,-2.5103,-2.504,-2.5251,-2.5179,-2.5491,-2.5688,-2.5724,-2.5864,-2.5857,-2.5842,-2.5835,-2.5842,-2.582,-2.5718,-2.5505,-2.5469,-2.5374,-2.511,-2.5081,-2.5066,-2.5059,-2.5059,-2.5059,-2.5059,-2.5059,-2.5066,-2.5132,-2.5293,-2.5513,-2.5718,-2.5884,-2.6212,-2.6279,-2.6025,-2.5723,-2.5772,-2.5072,-2.4784,-2.4784,-2.4636,-2.4636,-2.4636,-2.4636,-2.4784,-2.4931,-2.4784,-2.4931,-2.5212,-2.5075,-2.4956,-2.4749,-2.4434,-2.428,-2.448,-2.4535,-2.4724,-2.486,-2.5184,-2.5453,-2.5725,-2.5781,-2.5735,-2.5916,-2.6036,-2.6364,-2.6399,-2.6546,-2.6692,-2.6692,-2.6692,-2.6546,-2.6692,-2.6845,-2.6991,-2.6991,-2.6991,-2.6991,-2.6991,-2.6991,-2.6991,-2.6991,-2.6991,-2.6991,-3.3418,-3.3418,-3.3418,-3.3418,-3.3418,-3.3418,-3.3418,-3.3418,-3.3418,-3.3418,-3.3418,-3.3418,-3.3418,-3.3418,-3.3418,-3.3418,-3.3418,-3.3418,-3.3418,-3.3418,-3.3418,-3.3418,-3.3029,-3.211,-3.1313,-3.1056,-3.003,-2.8732,-2.7427,-2.6651,-2.6234,-2.6138,-2.5635,-2.5374,-2.5608,-2.5732,-2.5857,-2.5966,-2.6003,-2.601,-2.6018,-2.6025,-2.6025,-2.6025,-2.6032,-2.5952,-2.5857,-2.5798,-2.5644,-2.5396,-2.5322,-2.522,-2.511,-2.5074,-2.511,-2.533,-2.533,-2.5337,-2.5352,-2.5476,-2.5703,-2.6025,-2.6354,-2.6552,-2.6597,-2.6438,-2.61,-2.6093,-2.5653,-2.5359,-2.5219,-2.5079,-2.4931,-2.4931,-2.4784,-2.4784,-2.4931,-2.479,-2.4784,-2.5079,-2.5366,-2.5072,-2.5072,-2.4956,-2.4966,-2.5216,-2.5319,-2.5429,-2.558,-2.5838,-2.6075,-2.6146,-2.6175,-2.605,-2.6196,-2.6232,-2.6524,-2.6692,-2.6546,-2.6692,-2.6692,-2.6692,-2.6699,-2.6845,-2.6991,-2.6991,-2.6991,-2.6991,-2.6991,-2.6991,-2.6991,-2.6991,-2.6991,-2.7136,-2.742,-3.3418,-3.3418,-3.3418,-3.3418,-3.3418,-3.3418,-3.3418,-3.3418,-3.3418,-3.3418,-3.3418,-3.3418,-3.3418,-3.3418,-3.3418,-3.3418,-3.3418,-3.3418,-3.3418,-3.3418,-3.3418,-3.3418,-3.3155,-3.2237,-3.1973,-3.1845,-3.1377,-3.0745,-3.0241,-2.924,-2.8368,-2.7296,-2.6451,-2.6037,-2.582,-2.6018,-2.6193,-2.6339,-2.6339,-2.6325,-2.631,-2.6303,-2.6296,-2.6281,-2.6252,-2.6222,-2.6149,-2.6142,-2.5981,-2.5718,-2.5652,-2.5557,-2.5403,-2.5403,-2.5469,-2.5622,-2.5659,-2.5718,-2.5776,-2.5893,-2.6061,-2.6339,-2.6617,-2.6757,-2.6903,-2.6684,-2.6392,-2.6385,-2.5946,-2.58,-2.58,-2.5513,-2.5366,-2.5219,-2.5072,-2.5072,-2.4931,-2.5079,-2.5226,-2.552,-2.5667,-2.5373,-2.5373,-2.5513,-2.5639,-2.6086,-2.6093,-2.6093,-2.6232,-2.6378,-2.6378,-2.6392,-2.6392,-2.6246,-2.6246,-2.6392,-2.6692,-2.6838,-2.6692,-2.6692,-2.6838,-2.6845,-2.6845,-2.6845,-2.7136,-2.6991,-2.6991,-2.6991,-2.6991,-2.6991,-2.6991,-2.6991,-2.6991,-2.7274,-2.8122,-3.3418,-3.3418,-3.3418,-3.3418,-3.3418,-3.3418,-3.3418,-3.3418,-3.3418,-3.3418,-3.3418,-3.3418,-3.3418,-3.3418,-3.3418,-3.3418,-3.3418,-3.3418,-3.3418,-3.3418,-3.3418,-3.3418,-3.3292,-3.3155,-3.3038,-3.3106,-3.2806,-3.3135,-3.3297,-3.2129,-3.0226,-2.798,-2.7571,-2.7061,-2.6624,-2.6398,-2.6581,-2.672,-2.6778,-2.6808,-2.6822,-2.683,-2.6837,-2.6859,-2.6866,-2.6793,-2.6493,-2.6471,-2.6325,-2.601,-2.5981,-2.5922,-2.5805,-2.5791,-2.5849,-2.5952,-2.5988,-2.6105,-2.6274,-2.631,-2.642,-2.6574,-2.6742,-2.691,-2.6976,-2.6692,-2.6399,-2.6392,-2.6246,-2.5946,-2.5946,-2.58,-2.58,-2.5653,-2.5653,-2.5506,-2.5513,-2.5513,-2.566,-2.596,-2.596,-2.5667,-2.552,-2.566,-2.5807,-2.61,-2.6392,-2.6246,-2.6538,-2.6677,-2.6531,-2.6538,-2.6538,-2.6392,-2.6392,-2.6538,-2.6692,-2.6845,-2.6845,-2.6845,-2.6991,-2.6991,-2.6845,-2.7412,-2.755,-2.7274,-2.7274,-2.7985,-2.8122,-2.742,-2.7282,-2.7985,-2.8547,-2.9115,-2.9965,-3.3418,-3.3418,-3.3418,-3.3418,-3.3418,-3.3418,-3.3418,-3.3418,-3.3418,-3.3418,-3.3418,-3.3418,-3.3418,-3.3418,-3.3418,-3.3418,-3.3418,-3.3418,-3.3418,-3.3418,-3.3418,-3.3418,-3.3418,-3.3418,-3.3418,-3.3535,-3.3857,-3.4062,-3.3963,-3.3915,-3.2249,-3.0318,-2.8972,-2.7617,-2.6907,-2.6691,-2.6859,-2.6925,-2.6991,-2.6991,-2.6991,-2.6991,-2.6991,-2.6991,-2.6991,-2.6939,-2.6815,-2.68,-2.6603,-2.6405,-2.6325,-2.623,-2.6113,-2.6083,-2.6157,-2.6288,-2.6318,-2.6478,-2.6654,-2.6647,-2.6588,-2.6793,-2.6925,-2.6991,-2.6991,-2.6845,-2.6838,-2.6692,-2.6546,-2.6392,-2.6538,-2.6392,-2.61,-2.6093,-2.6093,-2.6093,-2.6093,-2.6093,-2.6232,-2.6524,-2.6093,-2.5653,-2.5653,-2.566,-2.5953,-2.61,-2.6399,-2.6692,-2.6976,-2.6976,-2.6823,-2.6684,-2.6546,-2.6538,-2.6392,-2.6546,-2.6845,-2.6991,-2.6991,-2.7274,-2.742,-2.6991,-2.7129,-2.7695,-2.8539,-2.8827,-2.9107,-2.9671,-2.9393,-2.8691,-2.9115,-2.9957,-3.0526,-3.081,-3.1798,-3.3623,-3.3633,-3.374,-3.3643,-3.3437,-3.3418,-3.3418,-3.3418,-3.3418,-3.3418,-3.3418,-3.3418,-3.3418,-3.3418,-3.3418,-3.3418,-3.3418,-3.3418,-3.3418,-3.3418,-3.3418,-3.3418,-3.3418,-3.3447,-3.3506,-3.3662,-3.4043,-3.4307,-3.457,-3.4902,-3.3722,-3.2005,-3.0704,-2.9309,-2.713,-2.6852,-2.6991,-2.6991,-2.6991,-2.6991,-2.6991,-2.6991,-2.6991,-2.6991,-2.6991,-2.6983,-2.6954,-2.6932,-2.6859,-2.672,-2.6625,-2.653,-2.6405,-2.6339,-2.6435,-2.6552,-2.6669,-2.6764,-2.6852,-2.6844,-2.6749,-2.6917,-2.6969,-2.6991,-2.6991,-2.6991,-2.6991,-2.6991,-2.6991,-2.6991,-2.6991,-2.6692,-2.6546,-2.6538,-2.6392,-2.6392,-2.667,-2.6816,-2.6954,-2.7092,-2.6801,-2.6648,-2.6947,-2.7092,-2.7237,-2.7528,-2.768,-2.7825,-2.797,-2.7825,-2.7398,-2.7114,-2.6692,-2.6538,-2.6538,-2.683,-2.7129,-2.7267,-2.7412,-2.784,-2.784,-2.7695,-2.8266,-2.9393,-3.0091,-3.0518,-3.0801,-3.1226,-3.0801,-3.0099,-3.066,-3.1367,-3.207,-3.25,-3.3345,-3.4023,-3.4111,-3.4453,-3.416,-3.3525,-3.3428,-3.3447,-3.3476,-3.3428,-3.3418,-3.3418,-3.3418,-3.3418,-3.3418,-3.3418,-3.3418,-3.3418,-3.3418,-3.3418,-3.3418,-3.3418,-3.3418,-3.3437,-3.3486,-3.3691,-3.4082,-3.4482,-3.4892,-3.5244,-3.5557,-3.4723,-3.3661,-3.2385,-3.0859,-2.739,-2.6983,-2.6991,-2.6991,-2.6991,-2.6991,-2.6991,-2.6991,-2.6991,-2.6991,-2.6991,-2.6991,-2.6991,-2.6991,-2.6939,-2.6903,-2.6888,-2.6852,-2.683,-2.6822,-2.6874,-2.691,-2.6932,-2.6961,-2.6983,-2.6976,-2.6969,-2.6976,-2.6991,-2.6991,-2.6991,-2.6991,-2.7274,-2.7412,-2.742,-2.7274,-2.7129,-2.7274,-2.7412,-2.755,-2.7543,-2.768,-2.7962,-2.8099,-2.8524,-2.8516,-2.8364,-2.8213,-2.8508,-2.8804,-2.8947,-2.8955,-2.9099,-2.9107,-2.9107,-2.8963,-2.8676,-2.8532,-2.8107,-2.8107,-2.8107,-2.755,-2.7558,-2.7558,-2.7977,-2.8827,-2.9393,-2.9814,-3.0376,-3.1226,-3.1649,-3.193,-3.2351,-3.2779,-3.25,-3.2351,-3.193,-3.2351,-3.3206,-3.3909,-3.4618,-3.3809,-3.4082,-3.4228,-3.4287,-3.4219,-3.3965,-3.3857,-3.3799,-3.3564,-3.3418,-3.3418,-3.3418,-3.3418,-3.3418,-3.3418,-3.3418,-3.3418,-3.3418,-3.3418,-3.3418,-3.3437,-3.3418,-3.3486,-3.374,-3.3945,-3.4238,-3.4726,-3.5176,-3.5361,-3.582,-3.5139,-3.4048,-3.3067,-3.0943,-2.8819,-2.7695,-2.6991,-2.6991,-2.6991,-2.6991,-2.6991,-2.7136,-2.7136,-2.7136,-2.7136,-2.7136,-2.6991,-2.6991,-2.6991,-2.6991,-2.6991,-2.6991,-2.6991,-2.6991,-2.7136,-2.7136,-2.6991,-2.6991,-2.6991,-2.6991,-2.6991,-2.6991,-2.6991,-2.6991,-2.6991,-2.6991,-2.7412,-2.8259,-2.8403,-2.8827,-2.9814,-2.9957,-3.0099,-3.0233,-3.0233,-3.0233,-3.0376,-3.0376,-3.0518,-3.0509,-3.0217,-2.9766,-2.9766,-3.0359,-3.0643,-3.0935,-3.1076,-3.0801,-3.0801,-3.0801,-3.0509,-3.0518,-3.0376,-3.0091,-2.9814,-2.925,-2.9115,-2.9536,-2.9957,-3.0518,-3.1084,-3.1508,-3.207,-3.2779,-3.3058,-3.3336,-3.3771,-3.4333,-3.4746,-3.4609,-3.4038,-3.3762,-3.4609,-3.504,-3.546,-3.3896,-3.4297,-3.4463,-3.4766,-3.5029,-3.4541,-3.4287,-3.4238,-3.3984,-3.3799,-3.3682,-3.3652,-3.3555,-3.3467,-3.3418,-3.3418,-3.3418,-3.3418,-3.3418,-3.3447,-3.3603,-3.3662,-3.3809,-3.4082,-3.4414,-3.4629,-3.501,-3.5439,-3.5654,-3.5898,-3.5441,-3.4471,-3.3067,-3.2211,-3.066,-2.9679,-2.8827,-2.8971,-2.8971,-2.8827,-2.8827,-2.8683,-2.8403,-2.7977,-2.7833,-2.755,-2.7129,-2.6991,-2.6991,-2.7136,-2.7136,-2.7136,-2.7129,-2.7558,-2.7695,-2.7695,-2.784,-2.784,-2.784,-2.7136,-2.7274,-2.784,-2.7412,-2.6991,-2.7129,-2.7558,-2.8259,-2.8955,-2.9671,-3.0518,-3.1367,-3.1649,-3.1789,-3.1649,-3.1649,-3.1649,-3.1649,-3.1649,-3.2219,-3.2211,-3.2062,-3.1614,-3.1175,-3.1755,-3.2202,-3.277,-3.3197,-3.277,-3.2351,-3.2351,-3.207,-3.193,-3.1649,-3.1217,-3.1084,-3.0943,-3.0943,-3.1367,-3.1789,-3.2219,-3.2639,-3.3197,-3.3762,-3.4186,-3.4471,-3.4756,-3.546,-3.5879,-3.5597,-3.5597,-3.546,-3.5597,-3.6025,-3.6025,-3.6025,-3.4287,-3.4736,-3.5185,-3.5566,-3.581,-3.5107,-3.4756,-3.4687,-3.4668,-3.4434,-3.4092,-3.4062,-3.3887,-3.3564,-3.3486,-3.3535,-3.3603,-3.3584,-3.3603,-3.3672,-3.3965,-3.4033,-3.4219,-3.4521,-3.4844,-3.5185,-3.5478,-3.5684,-3.5976,-3.6006,-3.5879,-3.5597,-3.4471,-3.3762,-3.3058,-3.236,-3.1367,-3.0801,-3.0518,-3.0518,-3.0518,-3.0801,-3.0091,-2.9671,-2.925,-2.8683,-2.8259,-2.784,-2.7695,-2.7558,-2.7412,-2.7412,-2.7695,-2.8539,-2.8963,-2.9099,-2.9107,-2.925,-2.8827,-2.784,-2.8259,-2.8963,-2.8266,-2.7558,-2.784,-2.8827,-2.9528,-3.0233,-3.1084,-3.1508,-3.207,-3.2211,-3.2351,-3.2211,-3.2211,-3.2351,-3.2351,-3.2779,-3.3632,-3.3771,-3.3771,-3.3466,-3.2761,-3.3049,-3.3614,-3.4038,-3.4461,-3.4471,-3.4048,-3.3909,-3.3484,-3.277,-3.2491,-3.2202,-3.207,-3.2639,-3.2779,-3.3197,-3.3484,-3.3909,-3.4333,-3.448,-3.4893,-3.5314,-3.5743,-3.6025,-3.6025,-3.6025,-3.6025,-3.6025,-3.6025,-3.6025,-3.6025,-3.6025,-3.6025,-3.4033,-3.4697,-3.4844,-3.5322,-3.5937,-3.5742,-3.5293,-3.4746,-3.4697,-3.4609,-3.4502,-3.4199,-3.418,-3.4297,-3.4033,-3.4092,-3.4219,-3.4336,-3.4346,-3.4404,-3.4424,-3.4482,-3.4678,-3.4961,-3.5254,-3.5459,-3.5674,-3.5859,-3.5976,-3.6025,-3.6025,-3.5879,-3.546,-3.5314,-3.503,-3.4893,-3.3336,-3.2351,-3.193,-3.193,-3.1789,-3.193,-3.1358,-3.1084,-3.0801,-3.0376,-2.9957,-2.9814,-2.9814,-2.9957,-3.0099,-3.0099,-3.0376,-3.0518,-3.066,-2.9528,-2.9957,-3.0518,-2.9528,-2.9814,-3.0376,-3.066,-3.0242,-3.0376,-3.0376,-3.066,-3.1367,-3.1789,-3.2491,-3.3197,-3.3623,-3.3909,-3.3909,-3.3909,-3.3909,-3.3909,-3.4048,-3.4324,-3.504,-3.4902,-3.504,-3.4893,-3.4186,-3.4471,-3.503,-3.5314,-3.546,-3.546,-3.546,-3.5177,-3.4893,-3.4048,-3.39,-3.3762,-3.4324,-3.4756,-3.4756,-3.503,-3.504,-3.504,-3.5323,-3.546,-3.5889,-3.6025,-3.6025,-3.6025,-3.6025,-3.6025,-3.6025,-3.6025,-3.6025,-3.6025,-3.6025,-3.6025,-3.6025,-3.3926,-3.4648,-3.4697,-3.5215,-3.5937,-3.6025,-3.5684,-3.5264,-3.5225,-3.5146,-3.4951,-3.4736,-3.4639,-3.4609,-3.4434,-3.4434,-3.4629,-3.4609,-3.4619,-3.4648,-3.4902,-3.4951,-3.5127,-3.5391,-3.5615,-3.5752,-3.585,-3.5986,-3.6025,-3.6025,-3.6025,-3.6025,-3.6025,-3.6025,-3.5889,-3.5606,-3.503,-3.4038,-3.3475,-3.3336,-3.3197,-3.3058,-3.291,-3.2491,-3.236,-3.2211,-3.1649,-3.1649,-3.1649,-3.1508,-3.1508,-3.1508,-3.1649,-3.193,-3.2211,-3.1367,-3.1789,-3.207,-3.1499,-3.1226,-3.1789,-3.2211,-3.2351,-3.2779,-3.2779,-3.2919,-3.3067,-3.3345,-3.4186,-3.4893,-3.546,-3.6025,-3.5889,-3.5889,-3.5889,-3.5889,-3.5889,-3.5889,-3.5889,-3.5889,-3.5889,-3.5889,-3.5889,-3.6025,-3.6025,-3.5879,-3.5879,-3.5743,-3.5753,-3.5743,-3.5606,-3.5314,-3.546,-3.546,-3.6025,-3.6025,-3.5743,-3.5597,-3.5606,-3.5743,-3.6025,-3.6025,-3.6025,-3.6025,-3.6025,-3.6025,-3.6025,-3.6025,-3.6025,-3.6025,-3.6025,-3.6025,-3.6025,-3.6025,-3.6025,-3.3926,-3.4707,-3.4775,-3.5303,-3.5967,-3.6025,-3.5996,-3.6025,-3.5937,-3.5791,-3.5469,-3.5391,-3.5137,-3.5,-3.4834,-3.4834,-3.498,-3.5019,-3.5039,-3.4834,-3.5254,-3.543,-3.5547,-3.5801,-3.5879,-3.5976,-3.6025,-3.6025,-3.6025,-3.6025,-3.6025,-3.6025,-3.6025,-3.6025,-3.6025,-3.6025,-3.5597,-3.5314,-3.5177,-3.5314,-3.546,-3.5597,-3.5451,-3.4195,-3.3771,-3.3484,-3.2491,-3.193,-3.1789,-3.193,-3.193,-3.2211,-3.2639,-3.3197,-3.3762,-3.3771,-3.3623,-3.3484,-3.3197,-3.2779,-3.3067,-3.3623,-3.4048,-3.4471,-3.4471,-3.4333,-3.4333,-3.448,-3.5177,-3.546,-3.5889,-3.6025,-3.6025,-3.6025,-3.6025,-3.6025,-3.6025,-3.6025,-3.6025,-3.6025,-3.6025,-3.6025,-3.6025,-3.6025,-3.6025,-3.6025,-3.6025,-3.6025,-3.6025,-3.6025,-3.6025,-3.6025,-3.6025,-3.6025,-3.6025,-3.6025,-3.6025,-3.6025,-3.6025,-3.6025,-3.6025,-3.6025,-3.6025,-3.6025,-3.6025,-3.6025,-3.6025,-3.6025,-3.6025,-3.6025,-3.6025,-3.6025,-3.6025,-3.6025,-3.6025,-3.3916,-3.4766,-3.543,-3.584,-3.6016,-3.6025,-3.6025,-3.6025,-3.6025,-3.5957,-3.582,-3.5566,-3.5517,-3.5576,-3.5312,-3.5332,-3.5586,-3.5517,-3.5674,-3.5635,-3.5791,-3.5771,-3.585,-3.5937,-3.6025,-3.6025,-3.6025,-3.6025,-3.6025,-3.6025,-3.6025,-3.6025,-3.6025,-3.6025,-3.6025,-3.6025,-3.6025,-3.6025,-3.6025,-3.6025,-3.6025,-3.6025,-3.5743,-3.546,-3.5314,-3.5177,-3.4609,-3.4756,-3.4756,-3.4893,-3.4893,-3.503,-3.503,-3.5314,-3.4756,-3.4186,-3.4756,-3.4618,-3.4333,-3.4333,-3.4756,-3.504,-3.546,-3.5597,-3.5743,-3.5606,-3.547,-3.5606,-3.5743,-3.5889,-3.6025,-3.6025,-3.6025,-3.6025,-3.6025,-3.6025,-3.6025,-3.6025,-3.6025,-3.6025,-3.6025,-3.6025,-3.6025,-3.6025,-3.6025,-3.6025,-3.6025,-3.6025,-3.6025,-3.6025,-3.6025,-3.6025,-3.6025,-3.6025,-3.6025,-3.6025,-3.6025,-3.6025,-3.6025,-3.6025,-3.6025,-3.6025,-3.6025,-3.6025,-3.6025,-3.6025,-3.6025,-3.6025,-3.6025,-3.6025,-3.6025,-3.6025,-3.6025,-3.6025,-3.6025,-3.3926,-3.4775,-3.5654,-3.6025,-3.6025,-3.6025,-3.6025,-3.6025,-3.6025,-3.6025,-3.6006,-3.5801,-3.581,-3.6016,-3.5762,-3.5732,-3.6006,-3.6006,-3.5937,-3.5986,-3.6025,-3.6006,-3.6025,-3.6025,-3.6025,-3.6025,-3.6025,-3.6025,-3.6025,-3.6025,-3.6025,-3.6025,-3.6025,-3.6025,-3.6025,-3.6025,-3.6025,-3.6025,-3.6025,-3.6025,-3.6025,-3.6025,-3.6025,-3.6025,-3.6025,-3.6025,-3.6025,-3.6025,-3.6025,-3.6025,-3.5879,-3.5177,-3.5167,-3.5451,-3.503,-3.4609,-3.4893,-3.5597,-3.5314,-3.546,-3.6025,-3.6025,-3.6025,-3.5889,-3.5889,-3.5743,-3.5743,-3.5889,-3.5889,-3.6025,-3.6025,-3.6025,-3.6025,-3.6025,-3.6025,-3.6025,-3.6025,-3.6025,-3.6025,-3.6025,-3.6025,-3.6025,-3.6025,-3.6025,-3.6025,-3.6025,-3.6025,-3.6025,-3.6025,-3.6025,-3.6025,-3.6025,-3.6025,-3.6025,-3.6025,-3.6025,-3.6025,-3.6025,-3.6025,-3.6025,-3.6025,-3.6025,-3.6025,-3.6025,-3.6025,-3.6025,-3.6025,-3.6025,-3.6025,-3.6025,-3.6025,-3.6025,-3.6025,-3.6025,-3.6025,-3.4054,-3.4907,-3.5644,-3.6016,-3.6016,-3.6016,-3.6025,-3.6025,-3.6025,-3.6025,-3.6025,-3.6006,-3.6025,-3.6025,-3.6025,-3.6025,-3.6025,-3.6025,-3.6025,-3.6025,-3.6025,-3.6025,-3.6025,-3.6025,-3.6025,-3.6025,-3.6025,-3.6025,-3.6025,-3.6025,-3.6025,-3.6025,-3.6025,-3.6025,-3.6025,-3.6025,-3.6025,-3.6025,-3.6025,-3.6025,-3.6025,-3.6025,-3.6025,-3.6025,-3.6025,-3.6025,-3.6025,-3.6025,-3.6025,-3.6025,-3.6025,-3.546,-3.5177,-3.546,-3.5177,-3.4893,-3.5314,-3.5879,-3.5889,-3.5889,-3.6025,-3.6025,-3.6025,-3.6025,-3.6025,-3.6025,-3.6025,-3.6025,-3.6025,-3.6025,-3.6025,-3.6025,-3.6025,-3.6025,-3.6025,-3.6025,-3.6025,-3.6025,-3.6025,-3.6025,-3.6025,-3.6025,-3.6025,-3.6025,-3.6025,-3.6025,-3.6025,-3.6025,-3.6025,-3.6025,-3.6025,-3.6025,-3.6025,-3.6025,-3.6025,-3.6025,-3.6025,-3.6025,-3.6025,-3.6025,-3.6025,-3.6025,-3.6025,-3.6025,-3.6025,-3.6025,-3.6025,-3.6025,-3.6025,-3.6025,-3.6025,-3.6025,-3.6025,-3.6025,-3.6025,-3.4565,-3.5571,-3.5923,-3.6142,-3.6258,-3.6152,-3.6025,-3.6025,-3.6025,-3.6025,-3.6025,-3.6025,-3.6025,-3.6025,-3.6025,-3.6025,-3.6025,-3.6025,-3.6025,-3.6025,-3.6025,-3.6025,-3.6025,-3.6025,-3.6025,-3.6025,-3.6025,-3.6025,-3.6025,-3.6025,-3.6025,-3.6025,-3.6025,-3.6025,-3.6025,-3.6025,-3.6025,-3.6025,-3.6025,-3.6025,-3.6025,-3.6025,-3.6025,-3.6025,-3.6025,-3.6025,-3.6025,-3.6025,-3.6025,-3.6025,-3.6025,-3.5743,-3.5743,-3.5743,-3.5597,-3.546,-3.5879,-3.5889,-3.6025,-3.6025,-3.6025,-3.6025,-3.6025,-3.6025,-3.6025,-3.6025,-3.6025,-3.6025,-3.6025,-3.6025,-3.6025,-3.6025,-3.6025,-3.6025,-3.6025,-3.6025,-3.6025,-3.6025,-3.6025,-3.6025,-3.6025,-3.6025,-3.6025,-3.6025,-3.6025,-3.6025,-3.6025,-3.6025,-3.6025,-3.6025,-3.6025,-3.6025,-3.6025,-3.6025,-3.6025,-3.6025,-3.6025,-3.6025,-3.6025,-3.6025,-3.6025,-3.6025,-3.6025,-3.6025,-3.6025,-3.6025,-3.6025,-3.6025,-3.6025,-3.6025,-3.6025,-3.6025,-3.6025,-3.6025,-3.6025]},{"header":{"parameterUnit":"m.s-1","parameterCategory":1,"la1":31.0,"la2":29.5877,"lo1":-88.7671,"lo2":-86.6584,"dy":0.0162,"dx":0.0185,"nx":115,"ny":88,"refTime":"2023-06-11T12:00:00:Z","depth":0,"parameterNumber":3,"parameterNumberName":"V-component_of_WINDS"},"data":[0.0,0.0,0.0,0.0,0.0,0.0,0.0,0.0,0.0,0.0,0.0,0.0,0.0,0.0,0.0,0.0,0.0,0.0,0.0,0.0,0.0,0.0,0.0,0.0,0.0,0.0,0.0,0.0,0.0,0.0,0.0,0.0,0.0,0.0,0.0,0.0,0.0,0.0,0.0,0.0,0.0,0.0,0.0,0.0,0.0,0.0,0.0,0.0,0.0,0.0,0.0,0.0,0.0,0.0,0.0,0.0,0.0,0.0,0.0,0.0,0.0,0.0,0.0,0.0,0.0,0.0,0.0,0.0,0.0,0.0,0.0,0.0,0.0,0.0,0.0,0.0,0.0,0.0,0.0,0.0,0.0,0.0,0.0,0.0,0.0,0.0,0.0,0.0,0.0,0.0,0.0,0.0,0.0,0.0,0.0,0.0,0.0,0.0,0.0,0.0,0.0,0.0,0.0,0.0,0.0,0.0,0.0,0.0,0.0,0.0,0.0,0.0,0.0,0.0,0.0,0.0,0.0,0.0,0.0,0.0,0.0,0.0,0.0,0.0,0.0,0.0,0.0,0.0,0.0,0.0,0.0,0.0,0.0,0.0,0.0,0.0,0.0,0.0,0.0,0.0,0.0,0.0,0.0,0.0,0.0,0.0,0.0,0.0,0.0,0.0,0.0,0.0,0.0,0.0,0.0,0.0,0.0,0.0,0.0,0.0,0.0,0.0,0.0,0.0,0.0,0.0,0.0,0.0,0.0,0.0,0.0,0.0,0.0,0.0,0.0,0.0,0.0,0.0,0.0,0.0,0.0,0.0,0.0,0.0,0.0,0.0,0.0,0.0,0.0,0.0,0.0,0.0,0.0,0.0,0.0,0.0,0.0,0.0,0.0,0.0,0.0,0.0,0.0,0.0,0.0,0.0,0.0,0.0,0.0,0.0,0.0,0.0,0.0,0.0,0.0,0.0,0.0,0.0,0.0,0.0,0.0,0.0,0.0,0.0,0.0,0.0,0.0,0.0,0.0,0.0,0.0,0.0,0.0,0.0,0.0,0.0,0.0,0.0,0.0,0.0,0.0,0.0,0.0,0.0,0.0,0.0,0.0,0.0,0.0,0.0,0.0,0.0,0.0,0.0,0.0,0.0,0.0,0.0,0.0,0.0,0.0,0.0,0.0,0.0,0.0,0.0,0.0,0.0,0.0,0.0,0.0,0.0,0.0,0.0,0.0,0.0,0.0,0.0,0.0,0.0,0.0,0.0,0.0,0.0,0.0,0.0,0.0,0.0,0.0,0.0,0.0,0.0,0.0,0.0,0.0,0.0,0.0,0.0,0.0,0.0,0.0,0.0,0.0,0.0,0.0,0.0,0.0,0.0,0.0,0.0,0.0,0.0,0.0,0.0,0.0,0.0,0.0,0.0,0.0,0.0,0.0,0.0,0.0,0.0,0.0,0.0,0.0,0.0,0.0,0.0,0.0,0.0,0.0,0.0,0.0,0.0,0.0,0.0,0.0,0.0,0.0,0.0,0.0,0.0,0.0,0.0,0.0,0.0,0.0,0.0,0.0,0.0,0.0,0.0,0.0,0.0,0.0,0.0,0.0,0.0,0.0,0.0,0.0,0.0,0.0,0.0,0.0,0.0,0.0,0.0,0.0,0.0,0.0,0.0,0.0,0.0,0.0,0.0,0.0,0.0,0.0,0.0,0.0,0.0,0.0,0.0,0.0,0.0,0.0,0.0,0.0,0.0,0.0,0.0,0.0,0.0,0.0,0.0,0.0,0.0,0.0,0.0,0.0,0.0,0.0,0.0,0.0,0.0,0.0,0.0,0.0,0.0,0.0,0.0,0.0,0.0,0.0,0.0,0.0,0.0,0.0,0.0,0.0,0.0,0.0,0.0,0.0,0.0,0.0,0.0,0.0,0.0,0.0,0.0,0.0,0.0,0.0,0.0,0.0,0.0,0.0,0.0,0.0,0.0,0.0,0.0,0.0,0.0,0.0,0.0,0.0,0.0,0.0,0.0,0.0,0.0,0.0,0.0,0.0,0.0,0.0,0.0,0.0,0.0,0.0,0.0,0.0,0.0,0.0,0.0,0.0,0.0,0.0,0.0,0.0,0.0,0.0,0.0,0.0,0.0,0.0,0.0,0.0,0.0,0.0,0.0,0.0,0.0,0.0,0.0,0.0,0.0,0.0,0.0,0.0,0.0,0.0,0.0,0.0,0.0,0.0,0.0,0.0,0.0,0.0,0.0,0.0,0.0,0.0,0.0,0.0,0.0,0.0,0.0,0.0,0.0,0.0,0.0,0.0,0.0,0.0,0.0,0.0,0.0,0.0,0.0,0.0,0.0,0.0,0.0,0.0,0.0,0.0,0.0,0.0,0.0,0.0,0.0,0.0,0.0,0.0,0.0,0.0,0.0,0.0,0.0,0.0,0.0,0.0,0.0,0.0,0.0,0.0,0.0,0.0,0.0,0.0,0.0,0.0,0.0,0.0,0.0,0.0,0.0,0.0,0.0,0.0,0.0,0.0,0.0,0.0,0.0,0.0,0.0,0.0,0.0,0.0,0.0,0.0,0.0,0.0,0.0,0.0,0.0,0.0,0.0,0.0,0.0,0.0,0.0,0.0,0.0,0.0,0.0,0.0,0.0,0.0,0.0,0.0,0.0,0.0,0.0,0.0,0.0,0.0,0.0,0.0,0.0,0.0,0.0,0.0,0.0,0.0,0.0,0.0,0.0,0.0,0.0,0.0,0.0,0.0,0.0,0.0,0.0,0.0,0.0,0.0,0.0,0.0,0.0,0.0,0.0,0.0,0.0,0.0,0.0,0.0,0.0,0.0,0.0,0.0,0.0,0.0,0.0,0.0,0.0,0.0,0.0,0.0,0.0,0.0,0.0,0.0,0.0,0.0,0.0,0.0,0.0,0.0,0.0,0.0,0.0,0.0,0.0,0.0,0.0,0.0,0.0,0.0,0.0,0.0,0.0,0.0,0.0,0.0,0.0,0.0,0.0,0.0,0.0,0.0,0.0,0.0,0.0,0.0,0.0,0.0,0.0,0.0,0.0,0.0,0.0,0.0,0.0,0.0,0.0,0.0,0.0,0.0,0.0,0.0,0.0,0.0,0.0,0.0,0.0,0.0,0.0,0.0,0.0,0.0,0.0,0.0,0.0,0.0,0.0,0.0,0.0,0.0,0.0,0.0,0.0,0.0,0.0,0.0,0.0,0.0,0.0,0.0,0.0,0.0,0.0,0.0,0.0,0.0,0.0,0.0,0.0,0.0,0.0,0.0,0.0,0.0,0.0,0.0,0.0,0.0,0.0,0.0,0.0,0.0,0.0,0.0,0.0,0.0,0.0,0.0,0.0,0.0,0.0,0.0,0.0,0.0,0.0,0.0,0.0,0.0,0.0,0.0,0.0,0.0,0.0,0.0,0.0,0.0,0.0,0.0,0.0,0.0,0.0,0.0,0.0,0.0,0.0,0.0,0.0,0.0,0.0,0.0,0.0,0.0,0.0,0.0,0.0,0.0,0.0,0.0,0.0,0.0,0.0,0.0,0.0,0.0,0.0,0.0,0.0,0.0,0.0,0.0,0.0,0.0,0.0,0.0,0.0,0.0,0.0,0.0,0.0,0.0,0.0,0.0,0.0,0.0,0.0,0.0,0.0,0.0,0.0,0.0,0.0,0.0,0.0,0.0,0.0,0.0,0.0,0.0,0.0,0.0,0.0,0.0,0.0,0.0,0.0,0.0,0.0,0.0,0.0,0.0,0.0,0.0,0.0,0.0,0.0,0.0,0.0,0.0,0.0,0.0,0.0,0.0,0.0,0.0,0.0,0.0,0.0,0.0,0.0,0.0,0.0,0.0,0.0,0.0,0.0,0.0,0.0,0.0,0.0,0.0,0.0,0.0,0.0,0.0,0.0,0.0,0.0,0.0,0.0,0.0,0.0,0.0,0.0,0.0,0.0,0.0,0.0,0.0,0.0,0.0,0.0,0.0,0.0,0.0,0.0,0.0,0.0,0.0,0.0,0.0,0.0,0.0,0.0,0.0,0.0,0.0,0.0,0.0,0.0,0.0,0.0,0.0,0.0,0.0,0.0,0.0,0.0,0.0,0.0,0.0,0.0,0.0,0.0,0.0,0.0,0.0,0.0,0.0,0.0,0.0,0.0,0.0,0.0,0.0,0.0,0.0,0.0,0.0,0.0,0.0,0.0,0.0,0.0,0.0,0.0,0.0,0.0,0.0,0.0,0.0,0.0,0.0,0.0,0.0,0.0,0.0,0.0,-3.7505,0.0,0.0,0.0,0.0,0.0,0.0,0.0,0.0,0.0,0.0,0.0,0.0,0.0,0.0,0.0,0.0,0.0,0.0,0.0,0.0,0.0,0.0,0.0,0.0,0.0,0.0,0.0,0.0,0.0,0.0,0.0,0.0,0.0,0.0,0.0,0.0,0.0,0.0,0.0,0.0,0.0,0.0,0.0,0.0,0.0,0.0,0.0,0.0,0.0,0.0,0.0,0.0,0.0,0.0,0.0,0.0,0.0,0.0,0.0,0.0,0.0,0.0,0.0,0.0,0.0,0.0,0.0,0.0,0.0,0.0,0.0,0.0,0.0,0.0,0.0,0.0,0.0,0.0,0.0,0.0,0.0,0.0,0.0,0.0,0.0,0.0,0.0,0.0,0.0,0.0,0.0,0.0,0.0,0.0,0.0,0.0,0.0,0.0,0.0,0.0,0.0,0.0,0.0,0.0,0.0,0.0,0.0,0.0,0.0,0.0,-3.8707,-3.8707,-3.8318,-3.7895,-3.7487,0.0,0.0,0.0,0.0,0.0,0.0,0.0,0.0,0.0,0.0,0.0,0.0,0.0,0.0,0.0,0.0,0.0,0.0,0.0,0.0,0.0,0.0,0.0,0.0,0.0,0.0,0.0,0.0,0.0,0.0,0.0,0.0,0.0,0.0,0.0,0.0,0.0,0.0,0.0,0.0,0.0,0.0,0.0,0.0,0.0,0.0,0.0,0.0,0.0,0.0,0.0,0.0,0.0,0.0,0.0,0.0,0.0,0.0,0.0,0.0,0.0,0.0,0.0,0.0,0.0,0.0,0.0,0.0,0.0,0.0,0.0,0.0,0.0,0.0,0.0,0.0,0.0,0.0,0.0,0.0,0.0,0.0,0.0,0.0,0.0,0.0,0.0,0.0,0.0,0.0,0.0,0.0,0.0,0.0,0.0,0.0,0.0,0.0,0.0,0.0,0.0,0.0,0.0,0.0,0.0,0.0,0.0,0.0,0.0,0.0,0.0,0.0,-3.8583,-3.818,-3.7505,0.0,0.0,0.0,0.0,0.0,0.0,0.0,0.0,0.0,0.0,0.0,0.0,0.0,0.0,0.0,0.0,0.0,0.0,0.0,0.0,0.0,0.0,0.0,0.0,0.0,0.0,0.0,0.0,0.0,0.0,0.0,0.0,0.0,0.0,0.0,0.0,0.0,0.0,0.0,0.0,0.0,0.0,0.0,0.0,0.0,0.0,0.0,0.0,0.0,0.0,0.0,0.0,0.0,0.0,0.0,0.0,0.0,0.0,0.0,0.0,0.0,0.0,0.0,0.0,0.0,0.0,0.0,0.0,0.0,0.0,0.0,0.0,0.0,0.0,0.0,0.0,0.0,0.0,0.0,0.0,0.0,0.0,0.0,0.0,0.0,0.0,0.0,0.0,0.0,0.0,0.0,0.0,0.0,0.0,0.0,0.0,0.0,0.0,0.0,0.0,0.0,0.0,0.0,0.0,0.0,0.0,0.0,0.0,0.0,0.0,-3.9441,-3.8744,-3.9373,0.0,-3.7613,0.0,0.0,0.0,0.0,0.0,0.0,0.0,0.0,0.0,0.0,0.0,0.0,0.0,0.0,0.0,0.0,0.0,0.0,0.0,0.0,0.0,0.0,0.0,0.0,0.0,0.0,0.0,0.0,0.0,0.0,0.0,0.0,0.0,0.0,0.0,0.0,0.0,0.0,0.0,0.0,0.0,0.0,0.0,0.0,0.0,0.0,0.0,0.0,0.0,0.0,0.0,0.0,0.0,0.0,0.0,0.0,0.0,0.0,0.0,0.0,0.0,0.0,0.0,0.0,0.0,0.0,0.0,0.0,0.0,0.0,0.0,0.0,0.0,0.0,0.0,0.0,0.0,0.0,0.0,0.0,0.0,0.0,0.0,0.0,0.0,0.0,0.0,0.0,0.0,0.0,0.0,0.0,0.0,0.0,0.0,0.0,0.0,0.0,0.0,0.0,0.0,0.0,0.0,0.0,0.0,0.0,0.0,0.0,0.0,0.0,-4.0451,-4.0139,-4.0218,-3.984,0.0,0.0,0.0,0.0,0.0,0.0,0.0,0.0,0.0,0.0,0.0,0.0,0.0,0.0,0.0,0.0,0.0,0.0,0.0,0.0,0.0,0.0,0.0,0.0,0.0,0.0,0.0,0.0,0.0,0.0,0.0,0.0,0.0,0.0,0.0,0.0,0.0,0.0,0.0,0.0,0.0,0.0,0.0,0.0,0.0,0.0,0.0,0.0,0.0,0.0,0.0,0.0,0.0,0.0,0.0,0.0,0.0,0.0,0.0,0.0,0.0,0.0,0.0,0.0,0.0,0.0,0.0,0.0,0.0,0.0,0.0,0.0,0.0,0.0,0.0,0.0,0.0,0.0,0.0,0.0,0.0,0.0,0.0,0.0,0.0,0.0,0.0,0.0,0.0,0.0,0.0,0.0,0.0,0.0,0.0,0.0,0.0,0.0,0.0,0.0,0.0,0.0,0.0,0.0,0.0,0.0,0.0,0.0,0.0,0.0,-4.1332,-4.1442,-4.1409,-4.0812,-4.0348,-4.0089,0.0,0.0,0.0,0.0,0.0,0.0,0.0,0.0,0.0,0.0,0.0,0.0,0.0,0.0,0.0,0.0,0.0,0.0,0.0,0.0,0.0,0.0,0.0,0.0,0.0,0.0,0.0,0.0,0.0,0.0,0.0,0.0,0.0,0.0,0.0,0.0,0.0,0.0,0.0,0.0,0.0,0.0,0.0,0.0,0.0,0.0,0.0,0.0,0.0,0.0,0.0,0.0,0.0,0.0,0.0,0.0,0.0,0.0,0.0,0.0,0.0,0.0,0.0,0.0,0.0,0.0,0.0,0.0,0.0,0.0,0.0,0.0,0.0,0.0,0.0,0.0,0.0,0.0,0.0,0.0,0.0,0.0,0.0,0.0,0.0,0.0,0.0,0.0,0.0,0.0,0.0,0.0,0.0,0.0,0.0,0.0,0.0,0.0,0.0,0.0,0.0,0.0,0.0,0.0,0.0,0.0,0.0,0.0,-4.1134,-4.1882,-4.2249,-4.2231,-4.1103,-4.0492,0.0,0.0,0.0,0.0,0.0,0.0,0.0,0.0,0.0,0.0,0.0,0.0,0.0,0.0,0.0,0.0,0.0,0.0,0.0,0.0,0.0,0.0,0.0,0.0,0.0,0.0,0.0,0.0,0.0,0.0,0.0,0.0,0.0,0.0,0.0,0.0,0.0,0.0,0.0,0.0,0.0,0.0,0.0,0.0,0.0,0.0,0.0,0.0,0.0,0.0,0.0,0.0,0.0,0.0,0.0,0.0,0.0,0.0,0.0,0.0,0.0,0.0,0.0,0.0,0.0,0.0,0.0,0.0,0.0,0.0,0.0,0.0,0.0,0.0,0.0,0.0,0.0,0.0,0.0,0.0,0.0,0.0,0.0,0.0,0.0,0.0,0.0,0.0,0.0,0.0,0.0,0.0,0.0,0.0,0.0,0.0,0.0,0.0,0.0,0.0,0.0,0.0,0.0,0.0,0.0,0.0,0.0,0.0,0.0,-4.2653,-4.2928,-4.3057,-4.3057,-4.2642,-4.2321,0.0,0.0,0.0,0.0,0.0,0.0,0.0,0.0,0.0,0.0,0.0,0.0,0.0,0.0,0.0,0.0,0.0,0.0,0.0,0.0,0.0,0.0,0.0,0.0,0.0,0.0,0.0,0.0,0.0,0.0,0.0,0.0,0.0,0.0,0.0,0.0,0.0,0.0,0.0,0.0,0.0,0.0,0.0,0.0,0.0,0.0,0.0,0.0,0.0,0.0,0.0,0.0,0.0,0.0,0.0,0.0,0.0,0.0,0.0,0.0,0.0,0.0,0.0,0.0,0.0,0.0,0.0,0.0,0.0,0.0,0.0,0.0,0.0,0.0,0.0,0.0,0.0,0.0,0.0,0.0,0.0,0.0,0.0,0.0,0.0,0.0,0.0,0.0,0.0,0.0,0.0,0.0,0.0,0.0,0.0,0.0,0.0,0.0,0.0,0.0,0.0,0.0,0.0,0.0,0.0,0.0,0.0,0.0,0.0,-4.3479,0.0,-4.3479,-4.3479,-4.3375,-4.3232,0.0,0.0,0.0,0.0,0.0,0.0,0.0,0.0,0.0,0.0,0.0,0.0,0.0,0.0,0.0,0.0,0.0,0.0,0.0,0.0,0.0,0.0,0.0,0.0,0.0,0.0,0.0,0.0,0.0,0.0,0.0,0.0,0.0,0.0,0.0,0.0,0.0,0.0,0.0,0.0,0.0,0.0,0.0,0.0,0.0,0.0,0.0,0.0,0.0,0.0,0.0,0.0,0.0,0.0,0.0,0.0,0.0,0.0,0.0,0.0,0.0,0.0,0.0,0.0,0.0,0.0,0.0,0.0,0.0,0.0,0.0,0.0,0.0,0.0,0.0,0.0,0.0,0.0,0.0,0.0,0.0,0.0,0.0,0.0,0.0,0.0,0.0,0.0,0.0,0.0,0.0,0.0,0.0,0.0,0.0,0.0,0.0,0.0,0.0,0.0,0.0,0.0,0.0,0.0,0.0,0.0,0.0,0.0,-4.3479,-4.3479,-4.3479,-4.3479,-4.3497,-4.316,-4.3123,0.0,0.0,0.0,0.0,0.0,0.0,0.0,0.0,0.0,0.0,0.0,0.0,0.0,0.0,0.0,0.0,0.0,0.0,0.0,0.0,0.0,0.0,0.0,0.0,0.0,0.0,0.0,0.0,0.0,0.0,0.0,0.0,0.0,0.0,0.0,0.0,0.0,0.0,0.0,0.0,0.0,0.0,0.0,0.0,0.0,0.0,0.0,0.0,0.0,0.0,0.0,0.0,0.0,0.0,0.0,0.0,0.0,0.0,0.0,0.0,0.0,0.0,0.0,0.0,0.0,0.0,0.0,0.0,0.0,0.0,0.0,0.0,0.0,0.0,0.0,0.0,0.0,0.0,0.0,0.0,0.0,0.0,0.0,0.0,0.0,0.0,0.0,0.0,0.0,0.0,0.0,0.0,0.0,0.0,0.0,0.0,0.0,0.0,0.0,0.0,0.0,0.0,0.0,0.0,0.0,0.0,0.0,0.0,0.0,-4.3479,-4.3479,-4.3479,-4.3479,-4.3375,-4.3268,0.0,0.0,0.0,0.0,0.0,0.0,0.0,0.0,0.0,0.0,0.0,0.0,0.0,0.0,0.0,0.0,0.0,0.0,0.0,0.0,0.0,0.0,0.0,0.0,0.0,0.0,0.0,0.0,0.0,0.0,0.0,0.0,0.0,0.0,0.0,0.0,0.0,0.0,0.0,0.0,0.0,0.0,0.0,0.0,0.0,0.0,0.0,0.0,0.0,0.0,0.0,0.0,0.0,0.0,0.0,0.0,0.0,0.0,0.0,0.0,0.0,0.0,0.0,0.0,0.0,0.0,0.0,0.0,0.0,0.0,0.0,0.0,0.0,0.0,0.0,0.0,0.0,0.0,0.0,0.0,0.0,0.0,0.0,0.0,0.0,0.0,0.0,0.0,0.0,0.0,0.0,0.0,0.0,0.0,0.0,0.0,0.0,0.0,0.0,0.0,0.0,0.0,0.0,0.0,0.0,0.0,0.0,0.0,0.0,-4.3682,-4.3548,-4.3479,-4.3479,-4.3339,-4.3214,-4.3123,0.0,0.0,0.0,0.0,0.0,0.0,0.0,0.0,0.0,0.0,0.0,0.0,0.0,0.0,0.0,0.0,0.0,0.0,0.0,0.0,0.0,0.0,0.0,0.0,0.0,0.0,0.0,0.0,0.0,0.0,0.0,0.0,0.0,0.0,0.0,0.0,0.0,0.0,0.0,0.0,0.0,0.0,0.0,0.0,0.0,0.0,0.0,0.0,0.0,0.0,0.0,0.0,0.0,0.0,0.0,0.0,0.0,0.0,0.0,0.0,0.0,0.0,0.0,0.0,0.0,0.0,0.0,0.0,0.0,0.0,0.0,0.0,0.0,0.0,0.0,0.0,0.0,0.0,0.0,0.0,0.0,0.0,0.0,0.0,0.0,0.0,0.0,0.0,0.0,0.0,0.0,0.0,0.0,0.0,0.0,0.0,0.0,0.0,0.0,0.0,0.0,0.0,0.0,0.0,0.0,0.0,0.0,0.0,-4.3955,-4.3649,-4.3479,-4.3479,-4.316,-4.3105,0.0,0.0,0.0,0.0,0.0,0.0,0.0,0.0,0.0,0.0,0.0,0.0,0.0,0.0,0.0,0.0,0.0,0.0,0.0,0.0,0.0,0.0,0.0,0.0,0.0,0.0,0.0,0.0,0.0,0.0,0.0,0.0,0.0,0.0,0.0,0.0,0.0,0.0,0.0,0.0,0.0,0.0,0.0,0.0,0.0,0.0,0.0,0.0,0.0,0.0,0.0,0.0,0.0,0.0,0.0,0.0,0.0,0.0,0.0,0.0,0.0,0.0,0.0,0.0,0.0,0.0,0.0,0.0,0.0,0.0,0.0,0.0,0.0,0.0,0.0,0.0,0.0,0.0,0.0,0.0,0.0,0.0,0.0,0.0,0.0,0.0,0.0,0.0,0.0,0.0,0.0,0.0,0.0,0.0,0.0,0.0,0.0,0.0,0.0,0.0,0.0,0.0,0.0,0.0,0.0,0.0,0.0,0.0,0.0,-4.3615,-4.3548,-4.3479,-4.3479,-4.341,-4.3393,0.0,0.0,0.0,0.0,0.0,0.0,0.0,0.0,0.0,0.0,0.0,0.0,0.0,0.0,0.0,0.0,0.0,0.0,0.0,0.0,0.0,0.0,0.0,0.0,0.0,0.0,0.0,0.0,0.0,0.0,0.0,0.0,0.0,0.0,0.0,0.0,0.0,0.0,0.0,0.0,0.0,0.0,0.0,0.0,0.0,0.0,0.0,0.0,0.0,0.0,0.0,0.0,0.0,0.0,0.0,0.0,0.0,0.0,0.0,0.0,0.0,0.0,0.0,0.0,0.0,0.0,0.0,0.0,0.0,0.0,0.0,0.0,0.0,0.0,0.0,0.0,0.0,0.0,0.0,0.0,0.0,0.0,0.0,0.0,0.0,0.0,0.0,0.0,0.0,0.0,0.0,0.0,0.0,0.0,0.0,0.0,0.0,0.0,0.0,0.0,0.0,0.0,0.0,0.0,0.0,0.0,0.0,0.0,-4.3548,-4.3716,-4.3582,-4.3479,-4.3479,-4.3479,-4.3479,0.0,0.0,0.0,0.0,0.0,0.0,0.0,0.0,0.0,0.0,0.0,0.0,0.0,0.0,0.0,0.0,0.0,0.0,0.0,0.0,0.0,0.0,0.0,0.0,0.0,0.0,0.0,0.0,0.0,0.0,0.0,0.0,0.0,0.0,0.0,0.0,0.0,0.0,0.0,0.0,0.0,0.0,0.0,0.0,0.0,0.0,0.0,0.0,0.0,0.0,0.0,0.0,0.0,0.0,0.0,0.0,0.0,0.0,0.0,0.0,0.0,0.0,0.0,0.0,0.0,0.0,0.0,0.0,0.0,0.0,0.0,0.0,0.0,0.0,0.0,0.0,0.0,0.0,0.0,0.0,0.0,0.0,0.0,0.0,0.0,0.0,0.0,0.0,0.0,0.0,0.0,0.0,0.0,0.0,0.0,0.0,0.0,0.0,0.0,0.0,0.0,0.0,0.0,0.0,0.0,0.0,0.0,0.0,-4.3664,-4.3923,-4.3682,-4.3569,-4.3626,-4.3534,-4.3479,0.0,0.0,0.0,0.0,0.0,0.0,0.0,0.0,0.0,0.0,0.0,0.0,0.0,0.0,0.0,0.0,0.0,0.0,0.0,0.0,0.0,0.0,0.0,0.0,0.0,0.0,0.0,0.0,0.0,0.0,0.0,0.0,0.0,0.0,0.0,0.0,0.0,0.0,0.0,0.0,0.0,0.0,0.0,0.0,0.0,0.0,0.0,0.0,0.0,0.0,0.0,0.0,0.0,0.0,0.0,0.0,0.0,0.0,0.0,0.0,0.0,0.0,0.0,0.0,0.0,0.0,0.0,0.0,0.0,0.0,0.0,0.0,0.0,0.0,0.0,0.0,0.0,0.0,0.0,0.0,0.0,0.0,0.0,0.0,0.0,0.0,0.0,0.0,0.0,0.0,0.0,0.0,0.0,0.0,0.0,0.0,0.0,0.0,0.0,0.0,0.0,0.0,0.0,0.0,0.0,0.0,0.0,0.0,-4.3814,-4.3615,-4.3795,-4.4044,-4.4415,-4.3828,-4.3479,0.0,0.0,0.0,0.0,0.0,0.0,0.0,0.0,0.0,0.0,0.0,0.0,0.0,0.0,0.0,0.0,0.0,0.0,0.0,0.0,0.0,0.0,0.0,0.0,0.0,0.0,0.0,0.0,0.0,0.0,0.0,0.0,0.0,0.0,0.0,0.0,0.0,0.0,0.0,0.0,0.0,0.0,0.0,0.0,0.0,0.0,0.0,0.0,-4.6224,0.0,0.0,0.0,0.0,0.0,0.0,0.0,0.0,0.0,0.0,0.0,0.0,0.0,0.0,0.0,0.0,0.0,0.0,0.0,0.0,0.0,0.0,0.0,0.0,0.0,0.0,0.0,0.0,0.0,0.0,0.0,0.0,0.0,0.0,0.0,0.0,0.0,0.0,0.0,0.0,0.0,0.0,0.0,0.0,0.0,0.0,0.0,0.0,0.0,0.0,0.0,0.0,0.0,0.0,0.0,0.0,0.0,0.0,0.0,-4.5289,-4.5114,-4.5119,-4.5259,-4.5466,-4.4925,-4.4452,0.0,0.0,0.0,0.0,0.0,0.0,0.0,0.0,0.0,0.0,0.0,0.0,0.0,0.0,0.0,0.0,0.0,0.0,0.0,0.0,0.0,0.0,0.0,0.0,0.0,0.0,0.0,0.0,0.0,0.0,0.0,0.0,0.0,0.0,0.0,0.0,0.0,0.0,0.0,0.0,0.0,0.0,0.0,0.0,0.0,0.0,0.0,0.0,0.0,0.0,0.0,0.0,0.0,0.0,0.0,0.0,0.0,0.0,0.0,0.0,0.0,0.0,0.0,0.0,0.0,0.0,0.0,0.0,0.0,0.0,0.0,0.0,0.0,0.0,0.0,0.0,0.0,0.0,0.0,0.0,0.0,0.0,0.0,0.0,0.0,0.0,0.0,0.0,0.0,0.0,0.0,0.0,0.0,0.0,0.0,0.0,0.0,0.0,0.0,0.0,0.0,0.0,0.0,0.0,0.0,0.0,0.0,-4.6435,-4.6861,-4.6832,-4.6589,-4.6504,-4.6502,-4.6247,-4.5755,-4.5112,0.0,0.0,0.0,0.0,0.0,0.0,0.0,0.0,0.0,0.0,0.0,0.0,0.0,0.0,0.0,0.0,0.0,0.0,0.0,0.0,0.0,0.0,0.0,0.0,0.0,0.0,0.0,0.0,0.0,0.0,0.0,0.0,0.0,0.0,0.0,0.0,0.0,0.0,-4.7699,-4.7699,0.0,0.0,0.0,0.0,0.0,0.0,0.0,0.0,-4.732,0.0,0.0,0.0,0.0,0.0,0.0,0.0,0.0,0.0,0.0,0.0,0.0,0.0,0.0,0.0,0.0,0.0,0.0,0.0,0.0,0.0,0.0,0.0,0.0,0.0,0.0,0.0,0.0,0.0,0.0,0.0,0.0,0.0,0.0,0.0,0.0,0.0,0.0,0.0,0.0,0.0,0.0,0.0,0.0,0.0,0.0,0.0,0.0,0.0,0.0,0.0,0.0,0.0,0.0,0.0,0.0,-4.6615,-4.6824,-4.6742,-4.6494,-4.67,-4.688,-4.6967,-4.6948,-4.6856,-4.6672,0.0,0.0,0.0,0.0,0.0,0.0,0.0,0.0,0.0,0.0,0.0,0.0,0.0,0.0,0.0,0.0,0.0,0.0,0.0,0.0,0.0,0.0,0.0,0.0,0.0,0.0,0.0,0.0,0.0,0.0,0.0,0.0,0.0,0.0,0.0,0.0,0.0,0.0,0.0,-4.7699,-4.7699,0.0,0.0,0.0,0.0,0.0,0.0,0.0,0.0,-4.7554,0.0,0.0,0.0,0.0,0.0,0.0,0.0,0.0,0.0,0.0,0.0,0.0,0.0,0.0,0.0,0.0,0.0,0.0,0.0,0.0,0.0,0.0,0.0,0.0,0.0,0.0,0.0,0.0,0.0,0.0,0.0,0.0,0.0,0.0,0.0,0.0,0.0,0.0,0.0,0.0,0.0,0.0,0.0,0.0,0.0,0.0,0.0,0.0,0.0,0.0,0.0,0.0,0.0,0.0,0.0,-4.7777,-4.8348,-4.8583,-4.8447,-4.84,-4.8356,-4.8218,-4.8066,-4.7887,0.0,0.0,0.0,0.0,0.0,0.0,0.0,0.0,0.0,0.0,0.0,0.0,0.0,0.0,0.0,0.0,0.0,0.0,0.0,0.0,0.0,0.0,0.0,0.0,0.0,0.0,0.0,0.0,0.0,0.0,0.0,0.0,0.0,0.0,0.0,0.0,0.0,0.0,0.0,0.0,-4.7699,-4.7699,-4.7699,0.0,0.0,0.0,0.0,0.0,0.0,-4.7468,-4.7363,0.0,0.0,0.0,0.0,0.0,0.0,0.0,0.0,0.0,0.0,0.0,0.0,0.0,0.0,0.0,0.0,0.0,0.0,0.0,0.0,0.0,0.0,0.0,0.0,0.0,0.0,0.0,0.0,0.0,0.0,0.0,0.0,0.0,0.0,0.0,0.0,0.0,0.0,0.0,0.0,0.0,0.0,0.0,0.0,0.0,0.0,0.0,0.0,0.0,0.0,0.0,0.0,0.0,0.0,0.0,-4.8737,-4.9708,-5.0212,-5.0169,-4.9857,-4.9541,-4.919,-4.8866,-4.855,0.0,0.0,0.0,0.0,0.0,0.0,0.0,0.0,0.0,0.0,0.0,0.0,0.0,0.0,0.0,0.0,0.0,0.0,0.0,0.0,0.0,0.0,0.0,0.0,0.0,0.0,0.0,0.0,0.0,0.0,0.0,0.0,0.0,0.0,0.0,0.0,0.0,0.0,0.0,0.0,0.0,-4.7699,-4.7699,-4.7699,0.0,0.0,0.0,0.0,-4.7699,-4.7363,0.0,0.0,0.0,0.0,0.0,0.0,0.0,0.0,0.0,0.0,0.0,0.0,0.0,0.0,0.0,0.0,0.0,0.0,0.0,0.0,0.0,0.0,0.0,0.0,0.0,0.0,0.0,0.0,0.0,0.0,0.0,0.0,0.0,0.0,0.0,0.0,0.0,0.0,0.0,0.0,0.0,0.0,0.0,0.0,0.0,0.0,0.0,0.0,0.0,0.0,0.0,0.0,0.0,0.0,0.0,0.0,-4.9194,-4.9645,-4.9857,-4.9857,-4.9541,-4.9209,-4.8866,-4.8532,-4.8326,0.0,0.0,0.0,0.0,0.0,0.0,0.0,0.0,0.0,0.0,0.0,0.0,0.0,0.0,0.0,0.0,0.0,0.0,0.0,0.0,0.0,0.0,0.0,0.0,0.0,0.0,0.0,0.0,0.0,0.0,0.0,0.0,0.0,0.0,0.0,0.0,0.0,0.0,0.0,0.0,0.0,-4.7699,-4.7699,-4.7699,-4.7699,0.0,0.0,-4.7699,-4.7699,-4.7675,0.0,0.0,0.0,0.0,0.0,0.0,0.0,0.0,0.0,0.0,0.0,0.0,0.0,0.0,0.0,0.0,0.0,0.0,0.0,0.0,0.0,0.0,0.0,0.0,0.0,0.0,0.0,0.0,0.0,0.0,0.0,0.0,0.0,0.0,0.0,0.0,0.0,0.0,0.0,0.0,0.0,0.0,0.0,0.0,0.0,0.0,0.0,0.0,0.0,0.0,0.0,0.0,0.0,0.0,0.0,-4.8725,-4.957,-4.973,-4.9903,-5.0076,-4.9936,-4.9702,-4.9363,-4.924,-4.8967,0.0,0.0,0.0,0.0,0.0,0.0,0.0,0.0,0.0,0.0,0.0,0.0,0.0,0.0,0.0,0.0,0.0,0.0,0.0,0.0,0.0,0.0,0.0,0.0,0.0,0.0,0.0,0.0,0.0,0.0,0.0,0.0,0.0,0.0,0.0,0.0,0.0,0.0,0.0,0.0,0.0,0.0,-4.7699,-4.7699,0.0,0.0,0.0,-4.7699,-4.7699,0.0,0.0,0.0,0.0,0.0,0.0,0.0,0.0,0.0,0.0,0.0,0.0,0.0,0.0,0.0,0.0,0.0,0.0,0.0,0.0,0.0,0.0,0.0,0.0,0.0,0.0,0.0,0.0,0.0,0.0,0.0,0.0,0.0,0.0,0.0,0.0,0.0,0.0,0.0,0.0,0.0,0.0,0.0,0.0,0.0,0.0,0.0,0.0,0.0,0.0,0.0,0.0,0.0,0.0,0.0,0.0,0.0,-4.9674,-4.9757,-4.9929,-5.0188,-5.0025,-4.9822,-4.956,-4.9483,0.0,0.0,0.0,0.0,0.0,0.0,0.0,0.0,0.0,0.0,0.0,0.0,0.0,0.0,0.0,0.0,0.0,0.0,0.0,0.0,0.0,0.0,0.0,0.0,0.0,0.0,0.0,-4.8324,0.0,0.0,0.0,0.0,0.0,0.0,0.0,0.0,0.0,0.0,0.0,0.0,0.0,0.0,-4.7699,-4.7699,-4.788,-4.8007,0.0,0.0,-4.8297,-4.8315,-4.8297,-4.8315,0.0,0.0,0.0,0.0,0.0,0.0,0.0,0.0,0.0,0.0,0.0,0.0,0.0,0.0,0.0,0.0,0.0,0.0,0.0,0.0,0.0,0.0,0.0,0.0,0.0,0.0,0.0,0.0,0.0,0.0,0.0,0.0,0.0,0.0,0.0,0.0,0.0,0.0,0.0,0.0,0.0,0.0,0.0,0.0,0.0,0.0,0.0,0.0,0.0,0.0,0.0,0.0,0.0,0.0,-4.9283,-4.9363,-4.9646,-4.9803,-4.983,-4.9209,-4.8866,-4.8885,-4.855,-4.8402,0.0,0.0,0.0,0.0,0.0,0.0,0.0,0.0,0.0,0.0,0.0,0.0,0.0,0.0,0.0,0.0,0.0,0.0,0.0,0.0,0.0,0.0,0.0,0.0,0.0,0.0,0.0,0.0,0.0,0.0,0.0,0.0,0.0,0.0,0.0,0.0,0.0,0.0,0.0,0.0,0.0,-4.7717,-4.7699,-4.8351,-4.884,0.0,-4.9456,-4.9927,-4.9908,-4.9908,-4.9927,-4.9908,0.0,0.0,0.0,0.0,0.0,0.0,0.0,0.0,0.0,0.0,0.0,0.0,0.0,0.0,0.0,0.0,0.0,0.0,0.0,0.0,0.0,0.0,0.0,0.0,0.0,0.0,0.0,0.0,0.0,0.0,0.0,0.0,0.0,0.0,0.0,0.0,0.0,0.0,0.0,0.0,0.0,0.0,0.0,0.0,0.0,0.0,0.0,0.0,0.0,0.0,0.0,0.0,0.0,-4.8881,-4.9283,-4.9405,-4.9599,-4.9757,-4.9541,-4.9442,-4.9442,-4.9302,-4.924,0.0,0.0,0.0,0.0,0.0,0.0,0.0,0.0,0.0,0.0,0.0,0.0,0.0,0.0,0.0,0.0,0.0,0.0,0.0,0.0,0.0,0.0,0.0,0.0,0.0,0.0,0.0,0.0,-4.8286,-4.813,-4.7966,0.0,0.0,0.0,0.0,0.0,0.0,0.0,0.0,0.0,0.0,-4.8623,-4.9112,-4.9438,0.0,0.0,-4.989,-5.009,-5.009,-4.9766,-4.9546,-4.9546,-4.9052,0.0,0.0,0.0,0.0,0.0,0.0,0.0,0.0,0.0,0.0,0.0,0.0,0.0,0.0,0.0,0.0,0.0,0.0,0.0,0.0,0.0,0.0,0.0,0.0,0.0,0.0,0.0,0.0,0.0,0.0,0.0,0.0,0.0,0.0,0.0,0.0,0.0,0.0,0.0,0.0,0.0,0.0,0.0,0.0,0.0,0.0,0.0,0.0,0.0,0.0,0.0,0.0,-4.8694,-4.9145,-4.9145,-4.9271,-4.9483,-4.9394,-4.9363,-4.9345,-4.9363,-4.9363,0.0,0.0,0.0,0.0,0.0,0.0,0.0,0.0,0.0,0.0,0.0,0.0,0.0,0.0,0.0,0.0,0.0,0.0,0.0,0.0,0.0,0.0,0.0,0.0,0.0,0.0,0.0,0.0,-4.813,-4.7888,-4.7723,0.0,0.0,0.0,0.0,0.0,0.0,0.0,0.0,0.0,0.0,-4.9456,-5.0017,-5.0119,-5.019,-5.019,-5.0279,-5.0354,-5.0587,-5.0431,-5.0388,-5.0552,0.0,0.0,0.0,0.0,0.0,0.0,0.0,0.0,0.0,0.0,0.0,0.0,0.0,0.0,0.0,0.0,0.0,0.0,0.0,0.0,0.0,0.0,0.0,0.0,0.0,0.0,0.0,-4.8233,0.0,0.0,-4.8214,0.0,0.0,0.0,0.0,0.0,0.0,0.0,0.0,0.0,0.0,0.0,0.0,0.0,0.0,0.0,0.0,0.0,0.0,0.0,0.0,0.0,0.0,-4.8781,-4.8816,-4.8816,-4.8816,-4.885,-4.8495,-4.8364,-4.8364,-4.8326,-4.8344,-4.8382,0.0,0.0,0.0,0.0,0.0,0.0,0.0,0.0,0.0,0.0,0.0,0.0,0.0,0.0,0.0,0.0,0.0,0.0,0.0,0.0,0.0,0.0,0.0,0.0,0.0,0.0,-4.8267,-4.7829,-4.745,0.0,0.0,0.0,0.0,0.0,0.0,0.0,0.0,0.0,-4.9901,-5.0071,-5.0071,-5.0126,-5.0293,-5.049,-5.0454,-5.0608,-5.0962,-5.1755,-5.2272,-5.2975,0.0,0.0,0.0,0.0,0.0,0.0,0.0,0.0,0.0,0.0,0.0,0.0,0.0,0.0,0.0,0.0,0.0,0.0,0.0,0.0,0.0,0.0,0.0,0.0,0.0,0.0,0.0,-4.8324,-4.8324,0.0,0.0,0.0,0.0,0.0,0.0,0.0,0.0,0.0,0.0,0.0,-4.8324,-4.8324,0.0,0.0,0.0,0.0,0.0,0.0,0.0,0.0,0.0,0.0,0.0,0.0,-4.8586,-4.8781,-4.8816,-4.8816,-4.8816,-4.8694,-4.8623,-4.8604,-4.8604,-4.8604,-4.8623,0.0,0.0,0.0,0.0,0.0,0.0,0.0,0.0,0.0,0.0,0.0,0.0,0.0,0.0,0.0,0.0,0.0,0.0,0.0,0.0,0.0,0.0,0.0,0.0,0.0,-4.8114,0.0,0.0,0.0,0.0,0.0,0.0,0.0,0.0,0.0,0.0,-4.8965,-4.9785,-5.0778,-5.0886,-5.1086,-5.1611,-5.2214,-5.2426,0.0,0.0,0.0,0.0,0.0,0.0,0.0,0.0,0.0,0.0,0.0,0.0,0.0,0.0,-5.3295,-5.3277,-5.3295,-5.3295,-5.3295,0.0,0.0,0.0,0.0,0.0,0.0,0.0,0.0,0.0,0.0,0.0,0.0,0.0,0.0,-4.8324,-4.8324,-4.8324,0.0,0.0,0.0,0.0,0.0,0.0,0.0,0.0,-4.8324,-4.8324,-4.8324,-4.8324,-4.8471,-4.8746,-4.8728,-4.8857,0.0,0.0,0.0,0.0,0.0,0.0,0.0,0.0,-4.8402,-4.8623,-4.8623,-4.877,-4.9048,-4.9066,-4.9214,-4.9473,-4.9492,-4.9565,-4.9654,-4.9775,-4.9775,0.0,0.0,0.0,0.0,0.0,0.0,0.0,0.0,0.0,0.0,0.0,0.0,0.0,0.0,0.0,0.0,0.0,0.0,0.0,0.0,0.0,0.0,0.0,-4.8712,0.0,0.0,0.0,0.0,0.0,0.0,0.0,0.0,0.0,-4.8889,-4.9656,-5.0687,-5.1973,-5.1882,-5.1991,-5.2806,0.0,0.0,0.0,0.0,0.0,0.0,0.0,-5.2671,-5.3474,-5.3691,-5.4029,-5.4932,-5.5501,-5.5752,-5.5752,0.0,0.0,-5.4997,-5.4937,-5.4919,-5.4919,-5.4549,-5.4397,-5.4923,-5.4644,-5.4472,0.0,0.0,0.0,0.0,-4.8297,0.0,0.0,0.0,-4.8416,-4.8434,0.0,-4.8453,0.0,0.0,0.0,0.0,-4.8416,-4.8434,0.0,0.0,-4.8434,-4.8379,-4.8416,-4.8416,-4.8838,-4.9591,-4.9554,-4.9958,-5.0655,-4.9187,-4.8379,0.0,0.0,0.0,0.0,0.0,-4.8379,-4.8416,-4.8434,-4.8802,-4.9612,-4.9609,-4.9976,-5.0729,-5.0805,-5.0927,-5.125,-5.0947,-5.0964,-5.125,-5.019,0.0,0.0,0.0,0.0,0.0,0.0,0.0,0.0,0.0,0.0,0.0,0.0,0.0,0.0,0.0,0.0,0.0,0.0,0.0,0.0,-4.9798,0.0,0.0,0.0,0.0,0.0,0.0,0.0,0.0,0.0,-5.1387,-4.9977,-5.0297,-5.1346,-5.3363,0.0,0.0,0.0,0.0,-5.1017,-5.1569,-5.0714,-5.0528,-5.1803,-5.3123,-5.4205,-5.5009,0.0,0.0,-5.7261,-5.7361,-5.7479,-5.746,-5.7577,-5.7085,-5.5462,-5.5202,-5.5171,-5.5153,-5.5265,-5.5304,-5.5304,-5.5413,-5.5358,-4.9966,0.0,0.0,0.0,0.0,-4.9929,-4.9988,-5.0086,-5.0105,-5.0086,-5.0086,-5.0086,0.0,0.0,0.0,0.0,0.0,0.0,-5.0105,-5.0086,-5.0086,-5.0086,-5.0086,-5.0086,-5.0215,-5.0453,-5.0435,-5.0563,-5.0765,-5.0325,-5.0086,-5.0086,0.0,0.0,0.0,0.0,-5.0086,-5.0086,-5.0086,-5.0215,-5.0453,-5.0453,-5.0563,-5.0784,-5.1023,-5.1081,-5.0982,-5.1062,-5.11,-5.0943,-5.0662,0.0,0.0,0.0,0.0,0.0,0.0,0.0,0.0,0.0,0.0,0.0,0.0,0.0,0.0,0.0,0.0,0.0,0.0,0.0,-4.9361,-4.9385,-4.9417,0.0,0.0,0.0,0.0,0.0,0.0,0.0,0.0,0.0,-5.2172,-5.2454,-5.2846,0.0,0.0,-5.2282,-5.1665,-5.1933,-5.2072,-5.1622,-5.1809,0.0,-5.305,-5.35,-5.444,-5.6266,-5.7882,-5.8927,-5.8909,-5.9012,-5.9096,-5.9096,-5.9197,-5.9151,-5.8614,-5.7577,-5.6915,-5.686,-5.6908,-5.6908,-5.6908,-5.6956,-5.7068,-5.265,-5.248,-5.1114,-5.0584,-5.0684,-5.0703,-5.0743,-5.082,-5.082,-5.082,-5.082,-5.082,-5.082,-5.082,-5.082,0.0,0.0,0.0,-5.082,-5.082,-5.082,-5.082,-5.082,-5.082,-5.0986,-5.1279,-5.1279,-5.1444,-5.1775,-5.1756,-5.1756,-5.1738,0.0,-5.082,-5.082,-5.082,-5.082,-5.082,-5.082,-5.0949,-5.1279,-5.1591,-5.1756,-5.1756,-5.1943,-5.1962,-5.1756,-5.1962,-5.1962,-5.1738,-5.1444,-5.1279,0.0,0.0,0.0,0.0,0.0,0.0,0.0,0.0,0.0,0.0,0.0,-5.0068,-5.0086,0.0,0.0,0.0,-5.0793,-5.074,-5.0491,-5.0749,0.0,0.0,0.0,0.0,0.0,0.0,0.0,-5.3119,-5.3937,-5.4289,-5.3873,-5.3801,-5.3594,-5.3239,-5.278,-5.227,-5.1634,0.0,-5.1917,-5.1722,-5.22,-5.2819,-5.3689,-5.4364,-5.5471,-5.7459,-5.852,-5.9276,-5.9562,-5.9735,-5.9889,-5.9889,-6.004,-6.0139,-6.0157,-5.9335,-5.8677,-5.8647,-5.8695,-5.8695,-5.8695,-5.8743,-5.8857,-5.5592,-5.5335,-5.2417,-5.1206,-5.1187,-5.1187,-5.1206,-5.1187,-5.1206,-5.1187,-5.1169,-5.1187,-5.1187,-5.1187,-5.1187,0.0,-5.1169,-5.1169,-5.1224,-5.1187,-5.1187,-5.1187,-5.1187,-5.1206,-5.1573,-5.227,-5.2289,-5.2674,-5.339,-5.3408,-5.339,-5.3353,-5.1922,-5.1114,-5.1004,-5.1004,-5.1004,-5.1004,-5.1004,-5.1371,-5.2068,-5.2821,-5.3206,-5.3188,-5.328,-5.3298,-5.3298,-5.3371,-5.3408,-5.3371,-5.2674,-5.2289,-5.2252,0.0,0.0,0.0,0.0,0.0,0.0,0.0,0.0,0.0,0.0,0.0,0.0,0.0,0.0,-5.1077,-5.177,0.0,-5.2423,-5.3081,0.0,0.0,0.0,-5.3512,-5.3176,-5.3564,-5.4062,-5.4593,0.0,0.0,-5.4955,-5.4421,-5.3897,-5.3592,-5.2947,-5.2522,-5.2586,-5.1652,-5.1187,-5.1955,-5.2212,-5.2822,-5.4371,-5.5847,-5.7281,-5.8619,-5.8848,-5.9273,-5.9834,-6.0129,-6.0208,-6.035,-6.039,-6.0639,-6.0621,-6.0591,-6.0554,-6.0439,-6.0341,-6.0346,-6.0291,-6.0272,-6.0254,-5.5592,-5.5537,-5.4766,-5.4454,-5.4454,-5.4436,-5.4454,-5.4454,-5.4454,-5.4454,-5.4436,-5.4454,-5.4454,-5.4454,-5.4454,-5.4454,-5.4454,-5.4454,-5.4454,-5.4454,-5.4454,-5.4454,-5.4454,-5.4454,-5.4546,-5.473,-5.473,-5.484,-5.5023,-5.5023,-5.5023,-5.5005,-5.4638,-5.383,-5.2692,-5.2656,-5.2637,-5.2637,-5.2637,-5.2729,-5.2931,-5.3115,-5.3206,-5.3206,-5.3794,-5.4106,-5.4142,-5.4711,-5.5023,-5.5023,-5.484,-5.473,-5.473,-5.4546,0.0,0.0,0.0,0.0,0.0,0.0,0.0,0.0,0.0,-5.1701,-5.172,0.0,-5.2894,0.0,-5.3845,-5.3773,-5.3034,-5.305,0.0,0.0,-5.3424,-5.376,-5.502,-5.4935,-5.5394,-5.6974,-5.6785,-5.5998,-5.4729,-5.4871,-5.4418,-5.2626,-5.2533,-5.2218,-5.0994,-5.1873,-5.2693,-5.29,-5.3356,-5.447,-5.6321,-5.8407,-5.9779,-6.0323,-6.0901,-6.1444,-6.1675,-6.1883,-6.1967,-6.1985,-6.2118,-6.2236,-6.2199,-6.2236,-6.2218,-6.2095,-6.1233,-6.0401,-6.0401,-6.0419,-6.0419,-5.6657,-5.6675,-5.6657,-5.6657,-5.662,-5.5904,-5.5592,-5.5592,-5.5592,-5.5592,-5.5592,-5.5592,-5.5592,-5.5592,-5.5592,-5.5592,-5.5592,-5.5592,-5.5592,-5.5592,-5.5592,-5.5592,-5.5592,-5.5592,-5.5592,-5.5592,-5.5592,-5.5592,-5.5592,-5.5592,-5.5592,-5.5592,-5.5592,-5.5152,-5.4308,-5.4271,-5.4271,-5.4271,-5.4271,-5.4271,-5.4271,-5.4271,-5.4271,-5.4271,-5.4693,-5.4932,-5.495,-5.5354,-5.5592,-5.5592,-5.5592,-5.5592,-5.5592,-5.5592,-5.5592,0.0,0.0,0.0,0.0,0.0,0.0,0.0,0.0,0.0,0.0,0.0,-5.4243,-5.4168,-5.449,-5.4381,-5.353,-5.3757,-5.4061,-5.4403,-5.4688,-5.5205,-5.5985,-5.5812,-5.6149,-5.7443,-5.6773,-5.5902,-5.5068,-5.524,-5.5008,-5.3546,-5.3658,-5.3317,-5.1912,-5.254,-5.3307,-5.3755,-5.4442,-5.5627,-5.7763,-5.9107,-6.0173,-6.0896,-6.135,-6.1823,-6.2257,-6.2397,-6.25,-6.2585,-6.2723,-6.2823,-6.2823,-6.2823,-6.2823,-6.2695,-6.2108,-6.1539,-6.1465,-6.1484,-6.1484,-5.7978,-5.8015,-5.8107,-5.8162,-5.8052,-5.6748,-5.6088,-5.5886,-5.5904,-5.5904,-5.5904,-5.5886,-5.5904,-5.5904,-5.5886,-5.5904,-5.5886,-5.5886,-5.5886,-5.5904,-5.5904,-5.5904,-5.5904,-5.5904,-5.5904,-5.5886,-5.5904,-5.5904,-5.5904,-5.5904,-5.5904,-5.5904,-5.5886,-5.5886,-5.5886,-5.5904,-5.5794,-5.5592,-5.5592,-5.5592,-5.5592,-5.5592,-5.5592,-5.5592,-5.5684,-5.5739,-5.5739,-5.5831,-5.5886,-5.5886,-5.5904,-5.5886,-5.5904,-5.5886,-5.5904,0.0,-5.5904,0.0,0.0,0.0,0.0,0.0,0.0,0.0,0.0,-5.5684,-5.5275,-5.415,-5.4565,-5.4738,-5.4258,-5.4795,-5.5204,-5.5419,-5.6435,-5.6989,-5.6561,-5.6524,-5.6779,-5.7253,-5.6248,-5.5583,-5.5776,-5.5748,-5.5716,-5.5266,-5.5417,-5.5254,-5.4121,-5.3805,-5.4162,-5.4907,-5.5688,-5.7072,-5.8477,-5.8992,-5.9574,-6.0736,-6.1068,-6.1336,-6.2185,-6.2362,-6.2519,-6.2603,-6.2705,-6.2805,-6.2823,-6.2823,-6.2823,-6.2805,-6.2732,-6.2695,-6.2695,-6.2658,-6.2823,-5.7978,-5.8052,-5.8712,-5.8988,-5.9006,-5.9355,-5.8749,-5.7556,-5.7556,-5.7538,-5.7538,-5.7538,-5.7538,-5.7556,-5.7538,-5.7556,-5.7538,-5.7538,-5.7556,-5.7538,-5.7538,-5.7538,-5.7538,-5.7538,-5.7556,-5.7538,-5.7538,-5.7538,-5.7538,-5.7556,-5.7556,-5.7556,-5.7538,-5.7538,-5.7538,0.0,0.0,0.0,-5.5592,-5.5592,-5.5592,-5.5592,-5.5592,-5.5611,-5.6235,0.0,-5.6583,-5.7189,-5.7538,-5.7556,-5.7538,0.0,0.0,0.0,0.0,0.0,0.0,0.0,0.0,0.0,0.0,0.0,-5.7464,-5.6987,-5.5739,-5.618,-5.6113,-5.5026,-5.5562,-5.5938,-5.583,-5.5529,-5.5769,-5.6825,-5.7205,-5.7359,-5.7416,-5.7881,-5.8223,-5.8206,-5.7868,-5.741,-5.6869,-5.7117,-5.6919,-5.6003,-5.6553,-5.7108,-5.6988,-5.6422,-5.6388,-5.7123,-5.8126,-5.8998,-5.8908,-5.9447,-6.0076,-6.095,-6.1243,-6.1658,-6.2308,-6.2603,-6.2723,-6.2755,-6.2755,-6.2823,-6.2823,-6.2823,-6.2823,-6.2823,-6.2823,-6.2823,-6.2823,-6.2823,-6.2823,-5.9189,-5.9226,-5.9612,-5.9795,0.0,-6.0236,-5.9942,-5.9189,-5.9189,-5.9189,-5.9171,-5.8767,-5.8602,-5.8584,-5.818,-5.7978,-5.7978,-5.7978,-5.7978,-5.7978,-5.7978,-5.7978,-5.7978,-5.7978,-5.7978,-5.7978,-5.7978,-5.7978,-5.7978,-5.7978,-5.7978,-5.7978,-5.7978,-5.7978,-5.7978,-5.7978,-5.7593,-5.6767,-5.6785,-5.6785,-5.6767,-5.6785,-5.6767,-5.6804,-5.7171,0.0,0.0,0.0,0.0,0.0,0.0,0.0,0.0,-5.7978,0.0,-5.7978,-5.7978,-5.7978,-5.7978,-5.7978,-5.818,-5.8565,-5.8951,-5.851,-5.6895,-5.7171,-5.7193,-5.6773,-5.7046,-5.7317,-5.7382,-5.6864,-5.6905,-5.784,-5.8024,-5.8032,-5.8196,-5.8688,-5.895,-5.8652,-5.8783,-5.8715,-5.8264,-5.8667,-5.8837,-5.8378,-5.8527,-5.8958,-5.9166,-5.8146,-5.7569,-5.8254,-5.9216,-5.9949,-6.003,-6.0219,-6.0729,-6.1526,-6.1732,-6.2023,-6.25,-6.2654,-6.2723,-6.2773,-6.2823,-6.2823,-6.2823,-6.2823,-6.2823,-6.2823,-6.2823,-6.2823,-6.2823,-6.2823,-6.2823,-6.0401,-6.0419,-6.0566,-6.0621,-6.0621,-6.0768,-6.0841,-6.0805,-6.0529,0.0,0.0,-5.9703,-5.9428,-5.9373,-5.8731,-5.8419,-5.8419,-5.8419,-5.8419,-5.8419,-5.8419,-5.8419,-5.8437,-5.8437,-5.8419,-5.8419,-5.8419,-5.8419,-5.8419,-5.8419,-5.8437,-5.8419,-5.8437,-5.8437,-5.8419,-5.8419,-5.8419,-5.8419,-5.8143,-5.7978,-5.7978,-5.7978,-5.7978,-5.7978,-5.7978,-5.807,-5.8217,-5.8217,-5.829,-5.84,-5.8419,-5.8437,-5.8419,-5.8419,-5.8419,-5.8419,-5.8419,-5.8437,-5.8419,-5.8325,-5.8535,-5.923,-5.9853,-5.967,-5.8351,-5.826,-5.8257,-5.8211,-5.8284,-5.8394,-5.8427,-5.8072,-5.8083,-5.8734,-5.8809,-5.8845,-5.8988,-5.9491,-5.9636,-5.9176,-5.9508,-5.9817,-5.9817,-6.0122,-6.0573,-6.0847,-6.055,-6.0468,-6.0718,-5.9485,-5.8619,-5.9039,-5.9821,-6.0362,-6.0626,-6.0747,-6.1163,-6.1768,-6.1951,-6.2185,-6.2482,-6.2603,-6.2705,-6.2755,-6.2823,-6.2823,-6.2823,-6.2823,-6.2823,-6.2823,-6.2823,-6.2823,-6.2823,-6.2823,-6.2823,-6.0419,-6.0456,-6.1135,-6.1429,-6.1465,-6.2181,-6.2475,-6.2365,-6.1006,-6.0401,-6.0382,-6.0291,-6.0236,-6.0236,-6.0126,-6.007,-6.007,-6.0052,-6.0052,-6.007,-6.007,-6.007,-6.007,-6.007,-6.007,-6.007,-6.0052,-6.007,-6.007,-6.0034,-6.0052,-6.0052,-6.007,-6.0052,-6.007,-6.0052,-6.007,-6.0034,-5.8712,-5.7978,-5.7978,-5.7978,-5.7978,-5.7978,-5.7997,-5.8345,-5.9006,-5.9043,-5.9355,-6.0015,-6.007,-6.007,-6.007,-6.0034,-6.007,-6.007,-6.007,-6.007,-6.0052,-5.9593,-5.9338,-5.9447,-5.9574,-5.9538,-5.932,-5.9302,-5.888,-5.7948,-5.8263,-5.8356,-5.7945,-5.8279,-5.8837,-5.9429,-5.9594,-5.9844,-6.0474,-6.0679,-6.0701,-6.0527,-6.0535,-6.0791,-6.1225,-6.124,-6.1181,-6.1253,-6.1456,-6.1638,-6.1145,-6.076,-6.0344,-6.0058,-6.0424,-6.0626,-6.0485,-6.0174,-6.0651,-6.1203,-6.1508,-6.1842,-6.2534,-6.2723,-6.2755,-6.2823,-6.2823,-6.2823,-6.2823,-6.2823,-6.2823,-6.2823,-6.2823,-6.2823,-6.2823,-6.2823,-6.2823,-6.1704,-6.1759,-6.2108,-6.2254,-6.2273,-6.2658,-6.2823,-6.275,-6.2034,-6.1704,-6.1667,-6.1245,-6.1043,-6.1006,-6.0603,-6.0401,-6.0401,-6.0401,-6.0401,-6.0401,-6.0401,-6.0401,-6.0401,-6.0401,-6.0401,-6.0401,-6.0401,-6.0401,-6.0401,-6.0401,-6.0401,-6.0401,-6.0401,-6.0401,-6.0401,-6.0401,-6.0401,-6.0382,-5.9667,-5.93,-5.93,-5.9318,-5.93,-5.93,-5.93,-5.9465,-5.9832,-5.985,-6.0034,-6.0401,-6.0401,-6.0401,-6.0401,-6.0401,-6.0401,-6.0401,-6.0401,-6.0401,-6.0401,-6.0271,-5.9998,-5.9651,-6.0029,-6.0262,-6.0262,-5.9763,-5.9294,-5.8834,-5.9064,-5.9282,-5.9395,-5.9669,-6.0103,-6.0822,-6.0857,-6.1076,-6.1382,-6.1733,-6.1788,-6.151,-6.1677,-6.1933,-6.2131,-6.2023,-6.1915,-6.1823,-6.1969,-6.1914,-6.1544,-6.1523,-6.1315,-6.0729,-6.1104,-6.1372,-6.1122,-6.1063,-6.1297,-6.1805,-6.1915,-6.2149,-6.2603,-6.2773,-6.2823,-6.2823,-6.2823,-6.2823,-6.2823,-6.2823,-6.2823,-6.2823,-6.2823,-6.2823,-6.2823,-6.2823,-6.2823,-6.2823,-6.2823,-6.2823,-6.2823,-6.2823,-6.2823,-6.2823,-6.2823,-6.2805,-6.2823,-6.2713,-6.2144,-6.1869,-6.1796,-6.1208,-6.0951,-6.0933,-6.0951,-6.097,-6.0951,-6.0951,-6.0951,-6.0933,-6.0951,-6.0951,-6.0951,-6.0951,-6.0951,-6.0951,-6.0951,-6.0951,-6.0951,-6.097,-6.0951,-6.0933,-6.0933,-6.0933,-6.0951,-6.0951,-6.0768,-6.0419,-6.0401,-6.0401,-6.0401,-6.0401,-6.0493,-6.0658,-6.0676,-6.0768,-6.0933,-6.0951,-6.0951,-6.0933,-6.0951,-6.0933,-6.0951,-6.0951,-6.0903,-6.0755,-6.0859,-6.0756,-6.0254,-6.0599,-6.0897,-6.0867,-6.0226,-5.9777,-5.9799,-5.9905,-6.0137,-6.0299,-6.0665,-6.1073,-6.1584,-6.1842,-6.1915,-6.2112,-6.2412,-6.2534,-6.2184,-6.2412,-6.2482,-6.2552,-6.2519,-6.231,-6.2185,-6.206,-6.2023,-6.2023,-6.2023,-6.1766,-6.1505,-6.1692,-6.195,-6.2023,-6.2005,-6.2114,-6.2362,-6.2397,-6.25,-6.2723,-6.2823,-6.2823,-6.2823,-6.2823,-6.2823,-6.2823,-6.2823,-6.2823,-6.2823,-6.3007,-6.3154,-6.3191,-6.2952,-6.2842,-6.2823,-6.2823,-6.2823,-6.2823,-6.2823,-6.2823,-6.2823,-6.2823,-6.2823,-6.2823,-6.2787,-6.2732,-6.2677,-6.2695,-6.2585,-6.2511,-6.253,-6.2567,-6.253,-6.253,-6.2585,-6.2603,-6.2511,-6.2548,-6.2585,-6.2548,-6.2511,-6.2438,-6.2456,-6.2511,-6.2567,-6.2585,-6.2603,-6.253,-6.2548,-6.2548,-6.2567,-6.2585,-6.2585,-6.1869,-6.0493,-6.0401,-6.0401,-6.0401,-6.0419,-6.0768,-6.1429,-6.1484,-6.1814,-6.2511,-6.253,-6.2567,-6.2567,-6.2567,-6.2585,-6.2567,-6.2567,-6.2365,-6.1823,-6.1806,-6.1697,-6.1678,-6.1135,-6.0897,-6.0974,-6.0831,-6.054,-6.0247,-6.0491,-6.0308,-5.9398,-6.0246,-6.1015,-6.1247,-6.164,-6.2112,-6.2534,-6.229,-6.2166,-6.2686,-6.2255,-6.2023,-6.2482,-6.2449,-6.2362,-6.2203,-6.206,-6.2023,-6.2023,-6.2023,-6.2023,-6.1895,-6.2023,-6.2023,-6.2005,-6.2114,-6.2222,-6.2362,-6.25,-6.2603,-6.2755,-6.2823,-6.2823,-6.2823,-6.2823,-6.2823,-6.2823,-6.2823,-6.2823,-6.3099,-6.3466,-6.3961,-6.3888,-6.3484,-6.3099,-6.2823,-6.2823,-6.2823,-6.2823,-6.2823,-6.2823,-6.2823,-6.2823,-6.2823,-6.2823,-6.2823,-6.2823,-6.2823,-6.2823,-6.2823,-6.2823,-6.2823,-6.2823,-6.2823,-6.2823,-6.2823,-6.2823,-6.2823,-6.2823,-6.2823,-6.2823,-6.2823,-6.2823,-6.2823,-6.2823,-6.2823,-6.2823,-6.2823,-6.2823,-6.2823,-6.2823,-6.2823,-6.2823,-6.2823,-6.2475,-6.1924,-6.1832,-6.1832,-6.1832,-6.1832,-6.1961,-6.2273,-6.2328,-6.2475,-6.2787,-6.2823,-6.2823,-6.2823,-6.2823,-6.2823,-6.2823,-6.2823,-6.2534,-6.1951,-6.1897,-6.1714,-6.134,-6.1091,-6.1073,-6.1454,-6.1454,-6.134,-6.1185,-6.0992,-6.0778,-6.0754,-6.1167,-6.1622,-6.1969,-6.229,-6.2534,-6.2755,-6.2585,-6.2515,-6.2773,-6.2534,-6.236,-6.2534,-6.2397,-6.2257,-6.2203,-6.2096,-6.2023,-6.2023,-6.2023,-6.2023,-6.2023,-6.206,-6.2096,-6.2096,-6.215,-6.231,-6.2449,-6.2552,-6.2654,-6.2755,-6.2823,-6.2823,-6.2823,-6.2823,-6.2823,-6.2823,-6.286,-6.2915,-6.3447,-6.42,-6.4806,-6.4806,-6.453,-6.431,-6.2823,-6.2823,-6.2823,-6.2823,-6.2823,-6.2823,-6.2823,-6.2823,-6.2823,-6.2823,-6.2823,-6.2823,-6.2823,-6.2823,-6.2823,-6.2823,-6.2823,-6.2823,-6.2823,-6.2823,-6.2823,-6.2823,-6.2823,-6.2823,-6.2823,-6.2823,-6.2823,-6.2823,-6.2823,-6.2823,-6.2823,-6.2823,-6.2823,-6.2823,-6.2823,-6.2823,-6.2823,-6.2823,-6.2823,-6.2823,-6.2787,-6.2823,-6.2823,-6.2823,-6.2823,-6.2823,-6.2823,-6.2823,-6.2823,-6.2823,-6.2823,-6.2823,-6.2823,-6.2823,-6.2823,-6.2823,-6.2823,-6.2636,-6.2184,-6.2131,-6.1933,-6.1492,-6.1322,-6.1415,-6.1769,-6.1897,-6.1897,-6.1842,-6.1566,-6.1622,-6.151,-6.1769,-6.2131,-6.2515,-6.2654,-6.2805,-6.2823,-6.2823,-6.2755,-6.2823,-6.2705,-6.2654,-6.25,-6.2344,-6.2203,-6.2168,-6.206,-6.2023,-6.2023,-6.2023,-6.2023,-6.2023,-6.2114,-6.2114,-6.2168,-6.2257,-6.2397,-6.25,-6.2603,-6.2705,-6.2755,-6.2823,-6.2823,-6.2823,-6.2823,-6.2842,-6.2897,-6.2952,-6.3613,-6.4457,-6.5099,-6.5466,-6.5595,-6.5466,-6.5301,-6.2823,-6.2823,-6.2823,-6.2823,-6.2823,-6.2823,-6.2823,-6.2823,-6.2823,-6.2823,-6.2823,-6.2823,-6.2823,-6.2823,-6.2823,-6.2823,-6.2823,-6.2823,-6.2823,-6.2823,-6.2823,-6.2823,-6.2823,-6.2823,-6.2823,-6.2823,-6.2823,-6.2823,-6.2823,-6.2823,-6.2823,-6.2823,-6.2823,-6.2823,-6.2823,-6.2823,-6.2823,-6.2823,-6.2823,-6.2823,-6.2823,-6.2823,-6.2823,-6.2823,-6.2823,-6.2823,-6.2823,-6.2823,-6.2823,-6.2823,-6.2823,-6.2823,-6.2823,-6.2823,-6.2823,-6.2823,-6.2823,-6.2805,-6.2755,-6.2705,-6.2686,-6.2567,-6.2131,-6.1879,-6.1969,-6.2005,-6.2005,-6.1897,-6.236,-6.2219,-6.1379,-6.1696,-6.2023,-6.2077,-6.2482,-6.2755,-6.2823,-6.2823,-6.2823,-6.2773,-6.2705,-6.2552,-6.2291,-6.2203,-6.215,-6.206,-6.2023,-6.2023,-6.2023,-6.2023,-6.2023,-6.2023,-6.2005,-6.2023,-6.206,-6.2257,-6.2449,-6.2552,-6.2654,-6.2755,-6.2805,-6.2823,-6.2823,-6.2823,-6.2823,-6.286,-6.297,-6.3631,-6.4695,-6.5393,-6.5576,-6.5888,-6.6384,-6.5778,-6.5668,-6.2823,-6.2823,-6.2823,-6.2823,-6.2823,-6.2823,-6.2823,-6.2823,-6.2823,-6.2823,-6.2823,-6.2823,-6.2823,-6.2823,-6.2823,-6.2823,-6.2823,-6.2823,-6.2823,-6.2823,-6.2823,-6.2823,-6.2823,-6.2823,-6.2823,-6.2823,-6.2823,-6.2823,-6.2823,-6.2823,-6.2823,-6.2823,-6.2823,-6.2823,-6.2823,-6.2823,-6.2823,-6.2823,-6.2823,-6.2823,-6.2823,-6.2823,-6.2823,-6.2823,-6.2823,-6.2823,-6.2823,-6.2823,-6.2823,-6.2823,-6.2823,-6.2823,-6.2823,-6.2823,-6.2823,-6.2823,-6.2823,-6.2823,-6.2823,-6.2823,-6.2823,-6.2805,-6.2585,-6.2464,-6.2464,-6.2464,-6.2482,-6.2534,-6.2636,-6.2515,-6.2342,-6.2342,-6.2464,-6.2515,-6.2636,-6.2823,-6.2823,-6.2823,-6.2823,-6.2823,-6.2755,-6.2672,-6.25,-6.2397,-6.2257,-6.2168,-6.206,-6.2005,-6.2023,-6.2023,-6.2023,-6.2023,-6.2114,-6.2222,-6.2023,-6.2257,-6.2449,-6.2552,-6.2654,-6.2705,-6.2723,-6.2755,-6.2805,-6.2842,-6.2842,-6.3301,-6.3613,-6.4714,-6.5742,-6.6109,-6.6292,-6.6623,-6.7192,-6.6659,-6.6641,-6.2823,-6.2823,-6.2823,-6.2823,-6.2823,-6.2823,-6.2823,-6.2823,-6.2823,-6.2823,-6.2823,-6.2823,-6.2823,-6.2823,-6.2823,-6.2823,-6.2823,-6.2823,-6.2823,-6.2823,-6.2823,-6.2823,-6.2823,-6.2823,-6.2823,-6.2823,-6.2823,-6.2823,-6.2823,-6.2823,-6.2823,-6.2823,-6.2823,-6.2823,-6.2823,-6.2823,-6.2823,-6.2823,-6.2823,-6.2823,-6.2823,-6.2823,-6.2823,-6.2823,-6.2823,-6.2823,-6.2823,-6.2823,-6.2823,-6.2823,-6.2823,-6.2823,-6.2823,-6.2823,-6.2823,-6.2823,-6.2823,-6.2823,-6.2823,-6.2823,-6.2823,-6.2823,-6.2823,-6.2823,-6.2823,-6.2823,-6.2823,-6.2823,-6.2823,-6.2823,-6.2823,-6.2823,-6.2823,-6.2823,-6.2823,-6.2823,-6.2823,-6.2823,-6.2823,-6.2823,-6.2823,-6.2705,-6.2585,-6.25,-6.2397,-6.231,-6.215,-6.206,-6.206,-6.206,-6.206,-6.206,-6.2203,-6.2257,-6.2222,-6.231,-6.2415,-6.25,-6.2585,-6.2654,-6.2705,-6.2755,-6.2755,-6.286,-6.3246,-6.3815,-6.4677,-6.5778,-6.6384,-6.6788,-6.7045,-6.7283,-6.754,-6.7614,-6.7412,-6.2823,-6.2823,-6.2823,-6.2823,-6.2823,-6.2823,-6.2823,-6.2823,-6.2823,-6.2755,-6.2705,-6.2755,-6.2705,-6.2755,-6.2705,-6.2755,-6.2823,-6.2823,-6.2823,-6.2823,-6.2823,-6.2823,-6.2823,-6.2823,-6.2823,-6.2823,-6.2823,-6.2823,-6.2823,-6.2823,-6.2823,-6.2823,-6.2823,-6.2823,-6.2823,-6.2823,-6.2823,-6.2823,-6.2823,-6.2823,-6.2823,-6.2823,-6.2823,-6.2823,-6.2823,-6.2823,-6.2823,-6.2823,-6.2823,-6.2823,-6.2823,-6.2823,-6.2823,-6.2823,-6.2823,-6.2823,-6.2823,-6.2823,-6.2823,-6.2823,-6.2823,-6.2823,-6.2823,-6.2823,-6.2823,-6.2823,-6.2823,-6.2823,-6.2823,-6.2823,-6.2823,-6.2823,-6.2823,-6.2823,-6.2823,-6.2823,-6.2823,-6.2823,-6.2823,-6.2823,-6.2823,-6.2773,-6.2654,-6.2603,-6.25,-6.2362,-6.2257,-6.215,-6.215,-6.215,-6.2203,-6.2203,-6.2238,-6.231,-6.2362,-6.2415,-6.2415,-6.2415,-6.2552,-6.2636,-6.2705,-6.2755,-6.2705,-6.2847,-6.3727,-6.4351,-6.5378,-6.6386,-6.688,-6.7265,-6.7559,-6.7669,-6.7669,-6.7669,-6.7669,-6.2823,-6.2823,-6.2823,-6.2823,-6.2823,-6.2823,-6.2823,-6.2823,-6.2823,-6.2585,-6.2237,-6.2184,-6.2184,-6.2184,-6.2184,-6.2412,-6.2773,-6.2823,-6.2823,-6.2805,-6.2823,-6.2823,-6.2823,-6.2823,-6.2823,-6.2823,-6.2823,-6.2823,-6.2823,-6.2823,-6.2823,-6.2823,-6.2823,-6.2823,-6.2823,-6.2823,-6.2823,-6.2823,-6.2823,-6.2823,-6.2823,-6.2823,-6.2823,-6.2823,-6.2823,-6.2823,-6.2823,-6.2823,-6.2823,-6.2823,-6.2823,-6.2823,-6.2823,-6.2823,-6.2823,-6.2823,-6.2823,-6.2823,-6.2823,-6.2823,-6.2823,-6.2823,-6.2823,-6.2823,-6.2823,-6.2823,-6.2823,-6.2823,-6.2823,-6.2823,-6.2823,-6.2823,-6.2823,-6.2823,-6.2823,-6.2823,-6.2823,-6.2823,-6.2823,-6.2823,-6.2823,-6.2755,-6.2654,-6.2585,-6.25,-6.2362,-6.2238,-6.2203,-6.2203,-6.2203,-6.2203,-6.2203,-6.2291,-6.2397,-6.2344,-6.2415,-6.2467,-6.2467,-6.25,-6.2585,-6.2654,-6.2723,-6.2705,-6.3291,-6.4152,-6.5087,-6.6113,-6.6826,-6.7302,-6.7504,-6.7632,-6.7669,-6.7669,-6.7669,-6.7669,-6.2823,-6.2823,-6.2823,-6.2654,-6.2464,-6.2464,-6.2342,-6.2094,-6.2094,-6.186,-6.1584,-6.1769,-6.1897,-6.1951,-6.2112,-6.2412,-6.2755,-6.2585,-6.2585,-6.2755,-6.2823,-6.2823,-6.2823,-6.2823,-6.2823,-6.2823,-6.2823,-6.2823,-6.2823,-6.2823,-6.2823,-6.2823,-6.2823,-6.2823,-6.2823,-6.2823,-6.2823,-6.2823,-6.2823,-6.2823,-6.2823,-6.2823,-6.2823,-6.2823,-6.2823,-6.2823,-6.2823,-6.2823,-6.2823,-6.2823,-6.2823,-6.2823,-6.2823,-6.2823,-6.2823,-6.2823,-6.2823,-6.2823,-6.2823,-6.2823,-6.2823,-6.2823,-6.2823,-6.2823,-6.2823,-6.2823,-6.2823,-6.2823,-6.2823,-6.2823,-6.2823,-6.2823,-6.2823,-6.2823,-6.2823,-6.2823,-6.2823,-6.2823,-6.2823,-6.2823,-6.2823,-6.2755,-6.2705,-6.2585,-6.2552,-6.2397,-6.231,-6.2257,-6.2257,-6.2257,-6.231,-6.231,-6.2415,-6.2397,-6.2291,-6.2344,-6.2449,-6.25,-6.25,-6.2534,-6.2603,-6.2672,-6.2658,-6.3917,-6.4906,-6.5838,-6.6809,-6.7193,-6.7614,-6.7669,-6.7669,-6.7669,-6.7669,-6.7669,-6.7687,-6.2705,-6.2705,-6.2686,-6.229,-6.1879,-6.1842,-6.1566,-6.1131,-6.1073,-6.1073,-6.1091,-6.1528,-6.1714,-6.1897,-6.2059,-6.2342,-6.2567,-6.2112,-6.2166,-6.2534,-6.2705,-6.2686,-6.2805,-6.2823,-6.2823,-6.2823,-6.2823,-6.2823,-6.2823,-6.2823,-6.2823,-6.2823,-6.2823,-6.2823,-6.2823,-6.2823,-6.2823,-6.2823,-6.2823,-6.2823,-6.2823,-6.2823,-6.2823,-6.2823,-6.2823,-6.2823,-6.2823,-6.2823,-6.2823,-6.2823,-6.2823,-6.2823,-6.2823,-6.2823,-6.2823,-6.2823,-6.2823,-6.2823,-6.2823,-6.2823,-6.2823,-6.2823,-6.2823,-6.2823,-6.2823,-6.2823,-6.2823,-6.2823,-6.2823,-6.2823,-6.2823,-6.2823,-6.2823,-6.2823,-6.2823,-6.2823,-6.2823,-6.2823,-6.2823,-6.2823,-6.2823,-6.2823,-6.2755,-6.2705,-6.2585,-6.2552,-6.2449,-6.2397,-6.2344,-6.2415,-6.2467,-6.2467,-6.2467,-6.2449,-6.2344,-6.2449,-6.25,-6.2397,-6.2449,-6.2622,-6.275,-6.2841,-6.3356,-6.4544,-6.5494,-6.6462,-6.7157,-6.7414,-6.7561,-6.7561,-6.7561,-6.7669,-6.7615,-6.7561,-6.7561,-6.1379,-6.1379,-6.1379,-6.1322,-6.1131,-6.1149,-6.134,-6.1584,-6.1584,-6.1207,-6.1015,-6.1091,-6.0933,-6.0547,-6.0711,-6.0933,-6.1322,-6.1265,-6.151,-6.2059,-6.2131,-6.2394,-6.2705,-6.2823,-6.2823,-6.2823,-6.2823,-6.2823,-6.2823,-6.2823,-6.2823,-6.2823,-6.2823,-6.2823,-6.2823,-6.2823,-6.2823,-6.2823,-6.2823,-6.2823,-6.2823,-6.2823,-6.2823,-6.2823,-6.2823,-6.2823,-6.2823,-6.2823,-6.2823,-6.2823,-6.2823,-6.2823,-6.2805,-6.2823,-6.2823,-6.2755,-6.2805,-6.2805,-6.2805,-6.2823,-6.2823,-6.2823,-6.2805,-6.2823,-6.2823,-6.2823,-6.2823,-6.2823,-6.2823,-6.2842,-6.2842,-6.2879,-6.2879,-6.2823,-6.297,-6.2915,-6.2823,-6.2823,-6.2823,-6.2823,-6.2823,-6.2823,-6.2823,-6.2773,-6.2705,-6.2603,-6.2552,-6.25,-6.2449,-6.2449,-6.2519,-6.2519,-6.2449,-6.2449,-6.2449,-6.25,-6.25,-6.2362,-6.2433,-6.2727,-6.3002,-6.3262,-6.4234,-6.5387,-6.5825,-6.6647,-6.6994,-6.7304,-6.7322,-6.7378,-6.7378,-6.7433,-6.7378,-6.7322,-6.7322,-6.0915,-6.0915,-6.0915,-6.0718,-6.0572,-6.0511,-6.0572,-6.0694,-6.0694,-6.0511,-6.0202,-6.045,-6.0344,-6.0065,-6.0282,-6.0572,-6.0915,-6.0915,-6.1265,-6.1879,-6.2184,-6.2482,-6.2773,-6.2823,-6.2823,-6.2823,-6.2823,-6.2823,-6.2823,-6.2823,-6.2823,-6.2823,-6.2823,-6.2823,-6.2823,-6.2823,-6.2823,-6.2823,-6.2823,-6.2823,-6.2823,-6.2823,-6.2823,-6.2823,-6.2805,-6.2755,-6.2705,-6.2705,-6.2755,-6.2773,-6.2823,-6.2773,-6.2705,-6.2755,-6.2773,-6.2654,-6.2705,-6.2755,-6.2672,-6.2723,-6.2755,-6.2755,-6.2755,-6.2805,-6.2823,-6.2823,-6.2823,-6.2823,-6.3117,-6.3319,-6.3411,-6.3649,-6.3851,-6.3943,-6.387,-6.3558,-6.2952,-6.2823,-6.2823,-6.2823,-6.2823,-6.2823,-6.2823,-6.2773,-6.2705,-6.2603,-6.257,-6.25,-6.25,-6.25,-6.2552,-6.25,-6.25,-6.2449,-6.2485,-6.2574,-6.2826,-6.267,-6.3073,-6.3244,-6.3518,-6.3957,-6.4875,-6.5806,-6.6207,-6.659,-6.6937,-6.7192,-6.7248,-6.7266,-6.7192,-6.721,-6.721,-6.7154,-6.7154,-6.0718,-6.0718,-6.0736,-6.0388,-5.9955,-5.9891,-5.9679,-5.9249,-5.9383,-5.9299,-5.9383,-5.9761,-5.9937,-5.9955,-6.0139,-6.0615,-6.0615,-6.0494,-6.0974,-6.151,-6.2041,-6.2412,-6.2394,-6.2705,-6.2755,-6.2823,-6.2823,-6.2823,-6.2823,-6.2823,-6.2823,-6.2823,-6.2823,-6.2823,-6.2823,-6.2823,-6.2823,-6.2823,-6.2823,-6.2823,-6.2805,-6.2755,-6.2755,-6.2755,-6.2705,-6.2654,-6.2603,-6.2603,-6.2603,-6.2755,-6.2773,-6.2705,-6.2585,-6.2705,-6.2654,-6.25,-6.2603,-6.2603,-6.2485,-6.2622,-6.2705,-6.2654,-6.2705,-6.2823,-6.2805,-6.2823,-6.2897,-6.3099,-6.3668,-6.3961,-6.4273,-6.4842,-6.5044,-6.5007,-6.5154,-6.4512,-6.3503,-6.3007,-6.2934,-6.2823,-6.2823,-6.2823,-6.2773,-6.2723,-6.2603,-6.2705,-6.2622,-6.2552,-6.2552,-6.2552,-6.2552,-6.2603,-6.2552,-6.25,-6.2555,-6.2628,-6.2921,-6.3124,-6.3874,-6.4201,-6.4418,-6.4858,-6.5624,-6.6244,-6.6627,-6.6808,-6.7008,-6.7136,-6.7154,-6.7097,-6.7058,-6.7097,-6.7154,-6.704,-6.704,-5.9317,-5.9433,-5.9433,-5.9299,-5.9199,-5.9199,-5.945,-5.9761,-5.9761,-5.9631,-5.9761,-5.9955,-5.9696,-5.9267,-5.9415,-5.9415,-5.9547,-5.9547,-5.9809,-6.0406,-6.1033,-6.1265,-6.1548,-6.2219,-6.2755,-6.2755,-6.2823,-6.2823,-6.2823,-6.2823,-6.2805,-6.2805,-6.2823,-6.2805,-6.2805,-6.2823,-6.2823,-6.2823,-6.2823,-6.2773,-6.2773,-6.2705,-6.2654,-6.2654,-6.257,-6.2467,-6.2467,-6.2467,-6.2467,-6.2467,-6.2519,-6.25,-6.2552,-6.2519,-6.2519,-6.25,-6.2467,-6.2467,-6.2415,-6.2467,-6.2519,-6.2603,-6.2603,-6.2705,-6.2805,-6.286,-6.3172,-6.3613,-6.3998,-6.4494,-6.5081,-6.5209,-6.5448,-6.554,-6.5466,-6.5283,-6.4769,-6.42,-6.3594,-6.3062,-6.2879,-6.2823,-6.2823,-6.2773,-6.2755,-6.2755,-6.2705,-6.2654,-6.2603,-6.2552,-6.2552,-6.2552,-6.2552,-6.2555,-6.2887,-6.3124,-6.3653,-6.3927,-6.4566,-6.5205,-6.5387,-6.5569,-6.617,-6.6607,-6.6972,-6.7079,-6.704,-6.704,-6.704,-6.6943,-6.6903,-6.6961,-6.6961,-6.6943,-6.6943,-5.8701,-5.8754,-5.8754,-5.8823,-5.8892,-5.8892,-5.9149,-5.9433,-5.9516,-5.9516,-5.9516,-5.945,-5.9199,-5.8892,-5.8892,-5.8892,-5.903,-5.9249,-5.9726,-6.0264,-6.0615,-6.0658,-6.082,-6.1604,-6.2184,-6.236,-6.2705,-6.2773,-6.2823,-6.2805,-6.2755,-6.2705,-6.2755,-6.2773,-6.2755,-6.2755,-6.2755,-6.2705,-6.2705,-6.2654,-6.2603,-6.2552,-6.25,-6.25,-6.2415,-6.2362,-6.231,-6.231,-6.2257,-6.2222,-6.2222,-6.2257,-6.2415,-6.2397,-6.2415,-6.231,-6.2415,-6.2328,-6.2275,-6.231,-6.2415,-6.2397,-6.25,-6.2859,-6.3145,-6.3342,-6.3815,-6.4494,-6.5044,-6.554,-6.6292,-6.6439,-6.6421,-6.6421,-6.6402,-6.6274,-6.5852,-6.5154,-6.4347,-6.3649,-6.3466,-6.3191,-6.3044,-6.3025,-6.2879,-6.2847,-6.2654,-6.2603,-6.2603,-6.2552,-6.25,-6.25,-6.25,-6.2683,-6.3108,-6.3691,-6.4566,-6.4895,-6.5387,-6.597,-6.6353,-6.6462,-6.668,-6.6897,-6.7079,-6.6983,-6.6943,-6.6885,-6.6885,-6.6845,-6.6863,-6.6804,-6.6804,-6.6845,-6.6845,-5.849,-5.849,-5.849,-5.8631,-5.8718,-5.8788,-5.884,-5.8944,-5.8944,-5.8944,-5.8892,-5.8771,-5.884,-5.8788,-5.8788,-5.8788,-5.8892,-5.9182,-5.9661,-6.0012,-5.9949,-5.9931,-6.0166,-6.0796,-6.1415,-6.1732,-6.2378,-6.2672,-6.2705,-6.2705,-6.2672,-6.2603,-6.2654,-6.2672,-6.2603,-6.2654,-6.2654,-6.2603,-6.2552,-6.2552,-6.2449,-6.2415,-6.2362,-6.231,-6.231,-6.2257,-6.2203,-6.215,-6.2096,-6.2023,-6.2023,-6.206,-6.215,-6.2257,-6.2275,-6.206,-6.2203,-6.2222,-6.2114,-6.2203,-6.2257,-6.2222,-6.2579,-6.3046,-6.3591,-6.4027,-6.4574,-6.5341,-6.6019,-6.6788,-6.7577,-6.7467,-6.7504,-6.7559,-6.7614,-6.7357,-6.6769,-6.6035,-6.5393,-6.4475,-6.4255,-6.4071,-6.3649,-6.3429,-6.3172,-6.292,-6.2746,-6.2658,-6.2625,-6.2701,-6.2777,-6.3033,-6.3231,-6.3832,-6.4255,-6.4457,-6.5259,-6.577,-6.6152,-6.6462,-6.6935,-6.684,-6.6801,-6.6931,-6.7001,-6.6943,-6.6903,-6.6903,-6.6903,-6.6804,-6.6804,-6.6804,-6.6804,-6.6804,-6.6804,-5.8331,-5.849,-5.849,-5.849,-5.8561,-5.8561,-5.8561,-5.8561,-5.8614,-5.8561,-5.8631,-5.8561,-5.8561,-5.8561,-5.8561,-5.8561,-5.8631,-5.8789,-5.8841,-5.9029,-5.8978,-5.8892,-5.9147,-6.0156,-6.0669,-6.1027,-6.186,-6.2467,-6.2467,-6.2467,-6.2467,-6.2467,-6.2467,-6.2467,-6.2467,-6.2467,-6.2449,-6.2467,-6.2415,-6.2415,-6.2362,-6.2257,-6.2203,-6.2114,-6.2114,-6.2114,-6.206,-6.2078,-6.2023,-6.2023,-6.2023,-6.2023,-6.206,-6.206,-6.2114,-6.2114,-6.2114,-6.2078,-6.2023,-6.2078,-6.2114,-6.2295,-6.2802,-6.3346,-6.3782,-6.4328,-6.5148,-6.6005,-6.6845,-6.7522,-6.765,-6.7669,-6.7669,-6.7669,-6.7669,-6.7595,-6.743,-6.7118,-6.6549,-6.5503,-6.5246,-6.4952,-6.4406,-6.3969,-6.3771,-6.357,-6.3335,-6.3155,-6.31,-6.3286,-6.3542,-6.387,-6.427,-6.4965,-6.5696,-6.5697,-6.6025,-6.6499,-6.6846,-6.6715,-6.6967,-6.6925,-6.6903,-6.6943,-6.6943,-6.6903,-6.6903,-6.6903,-6.6845,-6.6804,-6.6804,-6.6804,-6.6804,-6.6804,-6.6804,-5.8116,-5.8188,-5.8188,-5.826,-5.8331,-5.8348,-5.8402,-5.849,-5.849,-5.849,-5.849,-5.8419,-5.8331,-5.8331,-5.8348,-5.8419,-5.849,-5.8331,-5.8331,-5.8331,-5.826,-5.8188,-5.8385,-5.9596,-6.0111,-6.0608,-6.1526,-6.2257,-6.2362,-6.2415,-6.2362,-6.231,-6.2362,-6.2362,-6.231,-6.2362,-6.2381,-6.2346,-6.2364,-6.2293,-6.224,-6.215,-6.2096,-6.2041,-6.206,-6.2023,-6.2023,-6.2023,-6.2023,-6.2023,-6.2023,-6.2023,-6.2023,-6.2023,-6.2023,-6.206,-6.2078,-6.2023,-6.2023,-6.2041,-6.2241,-6.2731,-6.3203,-6.3857,-6.4549,-6.5223,-6.5843,-6.6701,-6.7176,-6.7669,-6.7669,-6.7669,-6.7669,-6.7669,-6.7669,-6.7669,-6.7687,-6.7669,-6.7136,-6.6386,-6.604,-6.5565,-6.4979,-6.4634,-6.4453,-6.4234,-6.396,-6.3777,-6.3578,-6.3943,-6.4345,-6.4657,-6.5076,-6.5569,-6.6245,-6.6353,-6.6425,-6.6917,-6.719,-6.7058,-6.7058,-6.6961,-6.6961,-6.7001,-6.6943,-6.6903,-6.6863,-6.6863,-6.6863,-6.6804,-6.6804,-6.6804,-6.6804,-6.6804,-6.6804,-5.7881,-5.7881,-5.7881,-5.7971,-5.8116,-5.8116,-5.8188,-5.8348,-5.8348,-5.8331,-5.8348,-5.8188,-5.8099,-5.8116,-5.8188,-5.8188,-5.8348,-5.8188,-5.8116,-5.8116,-5.8044,-5.7881,-5.828,-5.9012,-5.9774,-5.9902,-6.0867,-6.1859,-6.2203,-6.2275,-6.2257,-6.2203,-6.2275,-6.2402,-6.2458,-6.2639,-6.2529,-6.2676,-6.264,-6.2586,-6.2494,-6.2494,-6.2494,-6.2494,-6.2476,-6.2512,-6.2367,-6.2367,-6.2204,-6.2096,-6.2023,-6.2023,-6.2023,-6.2023,-6.2023,-6.2023,-6.2023,-6.2023,-6.206,-6.2295,-6.2603,-6.3075,-6.362,-6.4546,-6.5329,-6.5932,-6.6573,-6.725,-6.7579,-6.7687,-6.7669,-6.7669,-6.7669,-6.7669,-6.7669,-6.7687,-6.7633,-6.7633,-6.7579,-6.7048,-6.6719,-6.6354,-6.5931,-6.5492,-6.5364,-6.5038,-6.4817,-6.4437,-6.4363,-6.4785,-6.5132,-6.5496,-6.5825,-6.6116,-6.6536,-6.6753,-6.6806,-6.6931,-6.7076,-6.6961,-6.6943,-6.6943,-6.6943,-6.6943,-6.6903,-6.6804,-6.6804,-6.6804,-6.6804,-6.6804,-6.6804,-6.6804,-6.6804,-6.6804,-6.6804,-5.7881,-5.7881,-5.7881,-5.7881,-5.7971,-5.7954,-5.7954,-5.7954,-5.8044,-5.7971,-5.8027,-5.7971,-5.7954,-5.7971,-5.7954,-5.7954,-5.7954,-5.7954,-5.7971,-5.7971,-5.7954,-5.7881,-5.801,-5.8651,-5.9113,-5.9363,-5.9966,-6.0927,-6.1618,-6.1932,-6.2005,-6.2005,-6.2132,-6.2368,-6.2894,-6.3112,-6.3492,-6.3981,-6.4072,-6.4015,-6.3997,-6.3961,-6.3943,-6.3961,-6.3907,-6.3653,-6.3128,-6.3037,-6.2802,-6.215,-6.2078,-6.2041,-6.2023,-6.2023,-6.2023,-6.2023,-6.2023,-6.2041,-6.2204,-6.2603,-6.3146,-6.3653,-6.447,-6.5286,-6.5869,-6.6494,-6.701,-6.7137,-6.7506,-6.7633,-6.7633,-6.7687,-6.7687,-6.7687,-6.7687,-6.7633,-6.7579,-6.7633,-6.7579,-6.7433,-6.7067,-6.7195,-6.7084,-6.668,-6.6258,-6.5913,-6.5622,-6.5258,-6.5186,-6.5606,-6.5879,-6.6151,-6.6296,-6.6607,-6.6642,-6.6952,-6.6928,-6.7019,-6.6961,-6.6903,-6.6903,-6.6903,-6.6961,-6.6903,-6.6863,-6.6804,-6.6804,-6.6804,-6.6804,-6.6804,-6.6804,-6.6804,-6.6804,-6.6804,-6.6804,-5.7881,-5.7881,-5.7881,-5.7881,-5.7881,-5.7881,-5.7881,-5.7881,-5.7881,-5.7881,-5.7881,-5.7881,-5.7881,-5.7881,-5.7881,-5.7881,-5.7881,-5.7881,-5.7881,-5.7881,-5.7881,-5.7881,-5.8082,-5.8528,-5.8892,-5.9028,-5.9578,-6.0237,-6.0885,-6.1292,-6.143,-6.1577,-6.2273,-6.2802,-6.3382,-6.3689,-6.3997,-6.4269,-6.4359,-6.4378,-6.4396,-6.4414,-6.4414,-6.4414,-6.4432,-6.4233,-6.3997,-6.3852,-6.3472,-6.2856,-6.2675,-6.2422,-6.215,-6.206,-6.215,-6.2693,-6.2693,-6.2712,-6.2748,-6.3056,-6.3617,-6.4414,-6.5229,-6.5718,-6.6247,-6.6689,-6.7115,-6.7097,-6.7266,-6.7378,-6.7451,-6.7524,-6.7579,-6.7579,-6.7633,-6.7633,-6.7579,-6.7652,-6.7633,-6.7524,-6.7396,-6.7506,-6.7506,-6.7195,-6.6774,-6.6555,-6.6391,-6.6244,-6.6207,-6.6442,-6.6622,-6.6804,-6.6876,-6.6988,-6.6931,-6.7022,-6.6907,-6.6903,-6.6961,-6.6903,-6.6903,-6.6903,-6.6921,-6.6863,-6.6804,-6.6804,-6.6804,-6.6804,-6.6804,-6.6804,-6.6804,-6.6804,-6.6804,-6.6745,-6.6608,-5.7881,-5.7881,-5.7881,-5.7881,-5.7881,-5.7881,-5.7881,-5.7881,-5.7881,-5.7881,-5.7881,-5.7881,-5.7881,-5.7881,-5.7881,-5.7881,-5.7881,-5.7881,-5.7881,-5.7881,-5.7881,-5.7881,-5.801,-5.8458,-5.8581,-5.8651,-5.9323,-5.9696,-5.9997,-6.0621,-6.1185,-6.1307,-6.2314,-6.3249,-6.3907,-6.4396,-6.483,-6.5192,-6.5192,-6.5156,-6.512,-6.5102,-6.5084,-6.5048,-6.4975,-6.4903,-6.4722,-6.4704,-6.4305,-6.3653,-6.349,-6.3255,-6.2875,-6.2875,-6.3037,-6.3418,-6.3508,-6.3653,-6.3798,-6.4088,-6.4504,-6.5192,-6.5881,-6.6225,-6.6587,-6.6885,-6.7001,-6.6983,-6.7154,-6.721,-6.721,-6.7341,-6.7396,-6.7451,-6.7506,-6.7506,-6.7579,-6.7524,-6.747,-6.7359,-6.7303,-6.7414,-6.7414,-6.7341,-6.723,-6.7079,-6.7097,-6.7097,-6.7022,-6.6964,-6.6964,-6.7001,-6.7001,-6.7058,-6.7058,-6.7001,-6.6903,-6.6845,-6.6903,-6.6903,-6.6845,-6.6863,-6.6863,-6.6863,-6.6745,-6.6804,-6.6804,-6.6804,-6.6804,-6.6804,-6.6804,-6.6804,-6.6804,-6.6668,-6.6251,-5.7881,-5.7881,-5.7881,-5.7881,-5.7881,-5.7881,-5.7881,-5.7881,-5.7881,-5.7881,-5.7881,-5.7881,-5.7881,-5.7881,-5.7881,-5.7881,-5.7881,-5.7881,-5.7881,-5.7881,-5.7881,-5.7881,-5.7954,-5.801,-5.8099,-5.8218,-5.888,-5.9166,-5.9456,-6.0427,-6.1292,-6.2114,-6.2659,-6.3752,-6.4676,-6.5337,-6.579,-6.6134,-6.6279,-6.6351,-6.6388,-6.6406,-6.6424,-6.6478,-6.6496,-6.6315,-6.5573,-6.5518,-6.5156,-6.4378,-6.4305,-6.416,-6.3871,-6.3834,-6.3979,-6.4233,-6.4323,-6.4613,-6.5029,-6.512,-6.5392,-6.5772,-6.6188,-6.6605,-6.6768,-6.6903,-6.7019,-6.7001,-6.7058,-6.7154,-6.7154,-6.721,-6.721,-6.7266,-6.7266,-6.7322,-6.7341,-6.7341,-6.7285,-6.719,-6.719,-6.7303,-6.7359,-6.7285,-6.7229,-6.7115,-6.7001,-6.7058,-6.6943,-6.6867,-6.6925,-6.6943,-6.6943,-6.7001,-6.7001,-6.6943,-6.6903,-6.6863,-6.6863,-6.6863,-6.6804,-6.6804,-6.6863,-6.659,-6.6512,-6.6668,-6.6668,-6.633,-6.6251,-6.6608,-6.6686,-6.633,-6.6048,-6.5778,-6.5374,-5.7881,-5.7881,-5.7881,-5.7881,-5.7881,-5.7881,-5.7881,-5.7881,-5.7881,-5.7881,-5.7881,-5.7881,-5.7881,-5.7881,-5.7881,-5.7881,-5.7881,-5.7881,-5.7881,-5.7881,-5.7881,-5.7881,-5.7881,-5.7881,-5.7881,-5.8084,-5.8643,-5.8998,-5.9123,-6.0251,-6.1622,-6.2508,-6.3208,-6.4279,-6.5362,-6.6062,-6.6478,-6.6641,-6.6804,-6.6804,-6.6804,-6.6804,-6.6804,-6.6804,-6.6804,-6.6677,-6.637,-6.6333,-6.5844,-6.5355,-6.5156,-6.4921,-6.4631,-6.4559,-6.474,-6.5066,-6.5138,-6.5537,-6.5971,-6.5953,-6.5808,-6.6315,-6.6641,-6.6804,-6.6804,-6.6863,-6.6845,-6.6903,-6.6961,-6.7001,-6.6943,-6.7001,-6.7115,-6.7097,-6.7097,-6.7097,-6.7097,-6.7097,-6.7022,-6.6907,-6.7097,-6.7266,-6.7266,-6.7285,-6.7172,-6.7115,-6.7019,-6.6903,-6.6768,-6.6768,-6.6809,-6.6885,-6.6961,-6.6943,-6.7001,-6.6961,-6.6863,-6.6804,-6.6804,-6.6668,-6.6608,-6.6804,-6.6727,-6.6452,-6.603,-6.5905,-6.576,-6.5486,-6.5633,-6.5985,-6.5778,-6.5356,-6.5092,-6.4958,-6.448,-5.8237,-5.8254,-5.844,-5.8271,-5.7915,-5.7881,-5.7881,-5.7881,-5.7881,-5.7881,-5.7881,-5.7881,-5.7881,-5.7881,-5.7881,-5.7881,-5.7881,-5.7881,-5.7881,-5.7881,-5.7881,-5.7881,-5.7881,-5.7932,-5.8034,-5.8304,-5.8964,-5.9421,-5.9877,-6.0452,-6.1787,-6.3154,-6.4013,-6.4685,-6.5904,-6.646,-6.6804,-6.6804,-6.6804,-6.6804,-6.6804,-6.6804,-6.6804,-6.6804,-6.6804,-6.6786,-6.6714,-6.6659,-6.6478,-6.6134,-6.5899,-6.5663,-6.5355,-6.5192,-6.5428,-6.5718,-6.6007,-6.6243,-6.646,-6.6442,-6.6207,-6.6623,-6.675,-6.6804,-6.6804,-6.6804,-6.6804,-6.6804,-6.6804,-6.6804,-6.6804,-6.6903,-6.6961,-6.6943,-6.7001,-6.7001,-6.6849,-6.679,-6.6714,-6.6637,-6.6754,-6.6794,-6.6696,-6.6637,-6.6577,-6.6458,-6.6416,-6.6355,-6.6294,-6.6355,-6.6554,-6.6691,-6.6903,-6.6943,-6.6943,-6.6827,-6.6727,-6.665,-6.659,-6.6391,-6.6391,-6.6452,-6.619,-6.5633,-6.5273,-6.5074,-6.4941,-6.4738,-6.4941,-6.529,-6.5008,-6.4669,-6.4323,-6.4129,-6.3716,-5.893,-5.9082,-5.9674,-5.9167,-5.8068,-5.7898,-5.7932,-5.7983,-5.7898,-5.7881,-5.7881,-5.7881,-5.7881,-5.7881,-5.7881,-5.7881,-5.7881,-5.7881,-5.7881,-5.7881,-5.7881,-5.7881,-5.7915,-5.8,-5.8355,-5.9032,-5.9725,-6.0436,-6.1044,-6.1586,-6.2641,-6.3307,-6.3903,-6.4697,-6.6536,-6.6786,-6.6804,-6.6804,-6.6804,-6.6804,-6.6804,-6.6804,-6.6804,-6.6804,-6.6804,-6.6804,-6.6804,-6.6804,-6.6677,-6.6587,-6.6551,-6.646,-6.6406,-6.6388,-6.6514,-6.6605,-6.6659,-6.6732,-6.6786,-6.6768,-6.675,-6.6768,-6.6804,-6.6804,-6.6804,-6.6804,-6.6668,-6.659,-6.6608,-6.6668,-6.6727,-6.6668,-6.659,-6.6512,-6.6494,-6.6416,-6.6276,-6.6197,-6.5994,-6.5976,-6.602,-6.6064,-6.5958,-6.5851,-6.5788,-6.5806,-6.5742,-6.576,-6.576,-6.5824,-6.5949,-6.6012,-6.6215,-6.6215,-6.6215,-6.6512,-6.653,-6.653,-6.6312,-6.5905,-6.5633,-6.5421,-6.5141,-6.4738,-6.4532,-6.4393,-6.4183,-6.3987,-6.4129,-6.4183,-6.4393,-6.4183,-6.3788,-6.344,-6.31,-5.8558,-5.9032,-5.9285,-5.9387,-5.9268,-5.8829,-5.8643,-5.8541,-5.8135,-5.7881,-5.7881,-5.7881,-5.7881,-5.7881,-5.7881,-5.7881,-5.7881,-5.7881,-5.7881,-5.7881,-5.7915,-5.7881,-5.8,-5.844,-5.8795,-5.9302,-6.0148,-6.0926,-6.1247,-6.2042,-6.2745,-6.3365,-6.3861,-6.4873,-6.5887,-6.6452,-6.6804,-6.6804,-6.6804,-6.6804,-6.6804,-6.6745,-6.6745,-6.6745,-6.6745,-6.6745,-6.6804,-6.6804,-6.6804,-6.6804,-6.6804,-6.6804,-6.6804,-6.6804,-6.6745,-6.6745,-6.6804,-6.6804,-6.6804,-6.6804,-6.6804,-6.6804,-6.6804,-6.6804,-6.6804,-6.6804,-6.659,-6.6172,-6.611,-6.5905,-6.5421,-6.5356,-6.529,-6.5207,-6.5207,-6.5207,-6.5141,-6.5141,-6.5074,-6.5057,-6.5171,-6.5314,-6.5314,-6.5105,-6.4972,-6.4856,-6.4788,-6.4941,-6.4941,-6.4941,-6.5057,-6.5074,-6.5141,-6.5273,-6.5421,-6.5697,-6.5778,-6.5568,-6.5356,-6.5074,-6.4806,-6.4601,-6.4323,-6.3987,-6.3843,-6.3699,-6.3513,-6.3233,-6.3007,-6.3083,-6.3348,-6.3496,-6.3083,-6.2889,-6.2676,-5.871,-5.9404,-5.9691,-6.0216,-6.0672,-5.9827,-5.9387,-5.9302,-5.8863,-5.8541,-5.8338,-5.8287,-5.8118,-5.7966,-5.7881,-5.7881,-5.7881,-5.7881,-5.7881,-5.7932,-5.8203,-5.8304,-5.8558,-5.9032,-5.9607,-5.9979,-6.0639,-6.1383,-6.1755,-6.2178,-6.2642,-6.3158,-6.3861,-6.4253,-6.5008,-6.5504,-6.5905,-6.5841,-6.5841,-6.5905,-6.5905,-6.5967,-6.611,-6.6312,-6.6373,-6.6512,-6.6727,-6.6804,-6.6804,-6.6745,-6.6745,-6.6745,-6.6727,-6.653,-6.6452,-6.6452,-6.6391,-6.6391,-6.6391,-6.6745,-6.6668,-6.6391,-6.659,-6.6804,-6.6727,-6.653,-6.6172,-6.5806,-6.5486,-6.5074,-6.4669,-6.4532,-6.4463,-6.4532,-6.4532,-6.4532,-6.4532,-6.4532,-6.4271,-6.4253,-6.4306,-6.4462,-6.4632,-6.4393,-6.4236,-6.397,-6.3771,-6.397,-6.4183,-6.4183,-6.4323,-6.4393,-6.4532,-6.472,-6.4806,-6.4873,-6.4873,-6.4669,-6.4463,-6.4271,-6.4058,-6.3771,-6.3496,-6.3291,-6.3158,-6.3025,-6.2676,-6.2459,-6.2598,-6.2598,-6.2676,-6.2598,-6.2398,-6.2398,-6.2398,-5.9387,-6.0165,-6.0943,-6.1603,-6.2026,-6.0808,-6.0199,-6.008,-6.0047,-5.9641,-5.9049,-5.8998,-5.8693,-5.8135,-5.8,-5.8084,-5.8203,-5.8169,-5.8203,-5.8321,-5.8829,-5.8947,-5.9268,-5.9793,-6.0351,-6.0943,-6.145,-6.1806,-6.2313,-6.2364,-6.2459,-6.2598,-6.3158,-6.3496,-6.3843,-6.42,-6.4669,-6.4941,-6.5074,-6.5074,-6.5074,-6.4941,-6.5273,-6.5486,-6.5697,-6.5967,-6.6172,-6.6391,-6.6452,-6.653,-6.659,-6.659,-6.6452,-6.603,-6.5824,-6.5742,-6.576,-6.5697,-6.5905,-6.6391,-6.6172,-6.5824,-6.619,-6.653,-6.6391,-6.5905,-6.5551,-6.5207,-6.4806,-6.4601,-6.4323,-6.4253,-6.4183,-6.4253,-6.4253,-6.4183,-6.4183,-6.3987,-6.3587,-6.3513,-6.3513,-6.3608,-6.3952,-6.3826,-6.3552,-6.3348,-6.3141,-6.3158,-6.3365,-6.344,-6.3643,-6.397,-6.4112,-6.4236,-6.4323,-6.4058,-6.3987,-6.3771,-6.3643,-6.344,-6.3233,-6.3176,-6.2949,-6.2736,-6.2537,-6.2398,-6.2398,-6.2398,-6.2398,-6.2398,-6.2398,-6.2398,-6.2398,-6.2398,-6.2398,-5.8947,-6.0097,-6.0351,-6.118,-6.2245,-6.1907,-6.1129,-6.0182,-6.0097,-5.9945,-5.9759,-5.9235,-5.9201,-5.9404,-5.8947,-5.9049,-5.9268,-5.9471,-5.9488,-5.959,-5.9624,-5.9725,-6.0063,-6.0554,-6.1061,-6.1417,-6.1789,-6.211,-6.2313,-6.2398,-6.2398,-6.2459,-6.2676,-6.2736,-6.2872,-6.2949,-6.3699,-6.4183,-6.4393,-6.4393,-6.4463,-6.4393,-6.4652,-6.4806,-6.4941,-6.5141,-6.5356,-6.5421,-6.5421,-6.5356,-6.529,-6.529,-6.5141,-6.5074,-6.5008,-6.5551,-6.5356,-6.5074,-6.5551,-6.5421,-6.5141,-6.5008,-6.5225,-6.5141,-6.5141,-6.5008,-6.4669,-6.4463,-6.4112,-6.3771,-6.357,-6.344,-6.344,-6.344,-6.344,-6.344,-6.3365,-6.3216,-6.2889,-6.2966,-6.2889,-6.2949,-6.3291,-6.3158,-6.2872,-6.2736,-6.2676,-6.2676,-6.2676,-6.2813,-6.2949,-6.3365,-6.3422,-6.3496,-6.3216,-6.3025,-6.3025,-6.2872,-6.2889,-6.2889,-6.2753,-6.2676,-6.2476,-6.2398,-6.2398,-6.2398,-6.2398,-6.2398,-6.2398,-6.2398,-6.2398,-6.2398,-6.2398,-6.2398,-6.2398,-5.8761,-6.0013,-6.0097,-6.0994,-6.2245,-6.2398,-6.1806,-6.1078,-6.1011,-6.0875,-6.0537,-6.0165,-5.9996,-5.9945,-5.9641,-5.9641,-5.9979,-5.9945,-5.9962,-6.0013,-6.0452,-6.0537,-6.0842,-6.1298,-6.1687,-6.1924,-6.2093,-6.233,-6.2398,-6.2398,-6.2398,-6.2398,-6.2398,-6.2398,-6.2476,-6.2615,-6.2872,-6.3348,-6.3626,-6.3699,-6.3771,-6.3843,-6.3898,-6.4112,-6.42,-6.4253,-6.4532,-6.4532,-6.4532,-6.4601,-6.4601,-6.4601,-6.4532,-6.4393,-6.4253,-6.4669,-6.4463,-6.4323,-6.4583,-6.4738,-6.4463,-6.4253,-6.4183,-6.3987,-6.3987,-6.3915,-6.3861,-6.3716,-6.3291,-6.2949,-6.2676,-6.2398,-6.2476,-6.2476,-6.2476,-6.2476,-6.2476,-6.2476,-6.2476,-6.2476,-6.2476,-6.2476,-6.2476,-6.2398,-6.2398,-6.2459,-6.2459,-6.2537,-6.2554,-6.2537,-6.2615,-6.2736,-6.2676,-6.2676,-6.2398,-6.2398,-6.2537,-6.2598,-6.2615,-6.2537,-6.2398,-6.2398,-6.2398,-6.2398,-6.2398,-6.2398,-6.2398,-6.2398,-6.2398,-6.2398,-6.2398,-6.2398,-6.2398,-6.2398,-6.2398,-5.8761,-6.0114,-6.0233,-6.1146,-6.2296,-6.2398,-6.2347,-6.2398,-6.2245,-6.1992,-6.1434,-6.1298,-6.0858,-6.0622,-6.0334,-6.0334,-6.0588,-6.0655,-6.0689,-6.0334,-6.1061,-6.1366,-6.1569,-6.2009,-6.2144,-6.2313,-6.2398,-6.2398,-6.2398,-6.2398,-6.2398,-6.2398,-6.2398,-6.2398,-6.2398,-6.2398,-6.2598,-6.2736,-6.2813,-6.2736,-6.2676,-6.2598,-6.2659,-6.3308,-6.3513,-6.3643,-6.4112,-6.4393,-6.4463,-6.4393,-6.4393,-6.4253,-6.4058,-6.3771,-6.3496,-6.3513,-6.357,-6.3643,-6.3771,-6.3987,-6.3861,-6.357,-6.3365,-6.3158,-6.3158,-6.3233,-6.3233,-6.3176,-6.2813,-6.2676,-6.2476,-6.2398,-6.2398,-6.2398,-6.2398,-6.2398,-6.2398,-6.2398,-6.2398,-6.2398,-6.2398,-6.2398,-6.2398,-6.2398,-6.2398,-6.2398,-6.2398,-6.2398,-6.2398,-6.2398,-6.2398,-6.2398,-6.2398,-6.2398,-6.2398,-6.2398,-6.2398,-6.2398,-6.2398,-6.2398,-6.2398,-6.2398,-6.2398,-6.2398,-6.2398,-6.2398,-6.2398,-6.2398,-6.2398,-6.2398,-6.2398,-6.2398,-6.2398,-6.2398,-6.2398,-5.8744,-6.0216,-6.1366,-6.2076,-6.2381,-6.2398,-6.2398,-6.2398,-6.2398,-6.2279,-6.2042,-6.1603,-6.1518,-6.162,-6.1163,-6.1197,-6.1637,-6.1518,-6.1789,-6.1721,-6.1992,-6.1958,-6.2093,-6.2245,-6.2398,-6.2398,-6.2398,-6.2398,-6.2398,-6.2398,-6.2398,-6.2398,-6.2398,-6.2398,-6.2398,-6.2398,-6.2398,-6.2398,-6.2398,-6.2398,-6.2398,-6.2398,-6.2537,-6.2676,-6.2736,-6.2813,-6.3083,-6.3025,-6.3025,-6.2949,-6.2949,-6.2872,-6.2872,-6.2736,-6.3025,-6.3291,-6.3025,-6.31,-6.3233,-6.3233,-6.3025,-6.2889,-6.2676,-6.2598,-6.2537,-6.2615,-6.2693,-6.2615,-6.2537,-6.2476,-6.2398,-6.2398,-6.2398,-6.2398,-6.2398,-6.2398,-6.2398,-6.2398,-6.2398,-6.2398,-6.2398,-6.2398,-6.2398,-6.2398,-6.2398,-6.2398,-6.2398,-6.2398,-6.2398,-6.2398,-6.2398,-6.2398,-6.2398,-6.2398,-6.2398,-6.2398,-6.2398,-6.2398,-6.2398,-6.2398,-6.2398,-6.2398,-6.2398,-6.2398,-6.2398,-6.2398,-6.2398,-6.2398,-6.2398,-6.2398,-6.2398,-6.2398,-6.2398,-6.2398,-6.2398,-5.8761,-6.0233,-6.1755,-6.2398,-6.2398,-6.2398,-6.2398,-6.2398,-6.2398,-6.2398,-6.2364,-6.2009,-6.2026,-6.2381,-6.1941,-6.189,-6.2364,-6.2364,-6.2245,-6.233,-6.2398,-6.2364,-6.2398,-6.2398,-6.2398,-6.2398,-6.2398,-6.2398,-6.2398,-6.2398,-6.2398,-6.2398,-6.2398,-6.2398,-6.2398,-6.2398,-6.2398,-6.2398,-6.2398,-6.2398,-6.2398,-6.2398,-6.2398,-6.2398,-6.2398,-6.2398,-6.2398,-6.2398,-6.2398,-6.2398,-6.2459,-6.2813,-6.2796,-6.2659,-6.2872,-6.3083,-6.2949,-6.2598,-6.2736,-6.2676,-6.2398,-6.2398,-6.2398,-6.2476,-6.2476,-6.2537,-6.2537,-6.2476,-6.2476,-6.2398,-6.2398,-6.2398,-6.2398,-6.2398,-6.2398,-6.2398,-6.2398,-6.2398,-6.2398,-6.2398,-6.2398,-6.2398,-6.2398,-6.2398,-6.2398,-6.2398,-6.2398,-6.2398,-6.2398,-6.2398,-6.2398,-6.2398,-6.2398,-6.2398,-6.2398,-6.2398,-6.2398,-6.2398,-6.2398,-6.2398,-6.2398,-6.2398,-6.2398,-6.2398,-6.2398,-6.2398,-6.2398,-6.2398,-6.2398,-6.2398,-6.2398,-6.2398,-6.2398,-6.2398,-6.2398,-5.8687,-6.0157,-6.1738,-6.2381,-6.2381,-6.2381,-6.2398,-6.2398,-6.2398,-6.2398,-6.2398,-6.2364,-6.2398,-6.2398,-6.2398,-6.2398,-6.2398,-6.2398,-6.2398,-6.2398,-6.2398,-6.2398,-6.2398,-6.2398,-6.2398,-6.2398,-6.2398,-6.2398,-6.2398,-6.2398,-6.2398,-6.2398,-6.2398,-6.2398,-6.2398,-6.2398,-6.2398,-6.2398,-6.2398,-6.2398,-6.2398,-6.2398,-6.2398,-6.2398,-6.2398,-6.2398,-6.2398,-6.2398,-6.2398,-6.2398,-6.2398,-6.2676,-6.2813,-6.2676,-6.2813,-6.2949,-6.2736,-6.2459,-6.2476,-6.2476,-6.2398,-6.2398,-6.2398,-6.2398,-6.2398,-6.2398,-6.2398,-6.2398,-6.2398,-6.2398,-6.2398,-6.2398,-6.2398,-6.2398,-6.2398,-6.2398,-6.2398,-6.2398,-6.2398,-6.2398,-6.2398,-6.2398,-6.2398,-6.2398,-6.2398,-6.2398,-6.2398,-6.2398,-6.2398,-6.2398,-6.2398,-6.2398,-6.2398,-6.2398,-6.2398,-6.2398,-6.2398,-6.2398,-6.2398,-6.2398,-6.2398,-6.2398,-6.2398,-6.2398,-6.2398,-6.2398,-6.2398,-6.2398,-6.2398,-6.2398,-6.2398,-6.2398,-6.2398,-6.2398,-6.2398,-5.8387,-5.9789,-6.1599,-6.2285,-6.2172,-6.2302,-6.2398,-6.2398,-6.2398,-6.2398,-6.2398,-6.2398,-6.2398,-6.2398,-6.2398,-6.2398,-6.2398,-6.2398,-6.2398,-6.2398,-6.2398,-6.2398,-6.2398,-6.2398,-6.2398,-6.2398,-6.2398,-6.2398,-6.2398,-6.2398,-6.2398,-6.2398,-6.2398,-6.2398,-6.2398,-6.2398,-6.2398,-6.2398,-6.2398,-6.2398,-6.2398,-6.2398,-6.2398,-6.2398,-6.2398,-6.2398,-6.2398,-6.2398,-6.2398,-6.2398,-6.2398,-6.2537,-6.2537,-6.2537,-6.2598,-6.2676,-6.2459,-6.2476,-6.2398,-6.2398,-6.2398,-6.2398,-6.2398,-6.2398,-6.2398,-6.2398,-6.2398,-6.2398,-6.2398,-6.2398,-6.2398,-6.2398,-6.2398,-6.2398,-6.2398,-6.2398,-6.2398,-6.2398,-6.2398,-6.2398,-6.2398,-6.2398,-6.2398,-6.2398,-6.2398,-6.2398,-6.2398,-6.2398,-6.2398,-6.2398,-6.2398,-6.2398,-6.2398,-6.2398,-6.2398,-6.2398,-6.2398,-6.2398,-6.2398,-6.2398,-6.2398,-6.2398,-6.2398,-6.2398,-6.2398,-6.2398,-6.2398,-6.2398,-6.2398,-6.2398,-6.2398,-6.2398,-6.2398,-6.2398,-6.2398]}]]